Temperatur und Luftfeuchte

Nummer Datum Zeit Sensor Temp Celsius Gef├╝hlte Temp Luftfeuchte in %
12877 2019-08-18 13:22:04 ESP12E-S1 25.70 27.40 96.40
12876 2019-08-18 12:53:32 ESP12E-S1 24.60 25.72 99.90
12875 2019-08-18 12:24:20 ESP12E-S1 22.40 23.30 99.90
12874 2019-08-18 11:55:56 ESP12E-S1 21.10 21.87 99.90
12873 2019-08-18 11:27:29 ESP12E-S1 19.50 20.11 99.90
12872 2019-08-18 10:59:11 ESP12E-S1 19.30 19.89 99.90
12871 2019-08-18 10:30:49 ESP12E-S1 18.60 19.12 99.90
12870 2019-08-18 10:02:30 ESP12E-S1 18.50 19.01 99.90
12869 2019-08-18 09:34:08 ESP12E-S1 18.00 18.46 99.90
12868 2019-08-18 09:05:50 ESP12E-S1 17.90 18.35 99.90
12867 2019-08-18 08:37:33 ESP12E-S1 17.80 18.24 99.90
12866 2019-08-18 08:09:13 ESP12E-S1 17.40 17.80 99.90
12865 2019-08-18 07:40:56 ESP12E-S1 17.20 17.58 99.90
12864 2019-08-18 07:12:38 ESP12E-S1 17.20 17.58 99.90
12863 2019-08-18 06:44:21 ESP12E-S1 17.10 17.47 99.90
12862 2019-08-18 06:16:03 ESP12E-S1 17.10 17.47 99.90
12861 2019-08-18 05:47:46 ESP12E-S1 17.10 17.47 99.90
12860 2019-08-18 05:19:27 ESP12E-S1 17.20 17.58 99.90
12859 2019-08-18 04:51:12 ESP12E-S1 17.20 17.58 99.90
12858 2019-08-18 04:22:55 ESP12E-S1 17.20 17.58 99.90
12857 2019-08-18 03:54:39 ESP12E-S1 17.30 17.69 99.90
12856 2019-08-18 03:26:22 ESP12E-S1 17.30 17.69 99.90
12855 2019-08-18 02:58:07 ESP12E-S1 17.50 17.91 99.90
12854 2019-08-18 02:29:50 ESP12E-S1 17.40 17.80 99.90
12853 2019-08-18 02:01:32 ESP12E-S1 17.40 17.80 99.90
12852 2019-08-18 01:33:16 ESP12E-S1 17.50 17.91 99.90
12851 2019-08-18 01:04:59 ESP12E-S1 17.50 17.91 99.90
12850 2019-08-18 00:36:44 ESP12E-S1 17.60 18.02 99.90
12849 2019-08-18 00:08:28 ESP12E-S1 17.70 18.13 99.90
12848 2019-08-17 23:40:10 ESP12E-S1 17.70 18.13 99.90
12847 2019-08-17 23:11:53 ESP12E-S1 17.80 18.24 99.90
12846 2019-08-17 22:43:36 ESP12E-S1 17.90 18.35 99.90
12845 2019-08-17 22:15:21 ESP12E-S1 18.10 18.57 99.90
12844 2019-08-17 21:47:05 ESP12E-S1 18.20 18.68 99.90
12843 2019-08-17 21:18:48 ESP12E-S1 18.30 18.79 99.90
12842 2019-08-17 20:50:33 ESP12E-S1 18.50 19.01 99.90
12841 2019-08-17 20:22:15 ESP12E-S1 18.70 19.23 99.90
12840 2019-08-17 19:53:59 ESP12E-S1 18.60 19.12 99.90
12839 2019-08-17 19:25:42 ESP12E-S1 18.80 19.34 99.90
12838 2019-08-17 18:57:27 ESP12E-S1 19.20 19.75 98.60
12837 2019-08-17 18:29:12 ESP12E-S1 19.40 19.90 95.80
12836 2019-08-17 18:00:54 ESP12E-S1 19.60 20.11 95.60
12835 2019-08-17 17:32:37 ESP12E-S1 19.60 20.10 95.00
12834 2019-08-17 17:04:20 ESP12E-S1 19.50 19.99 95.00
12833 2019-08-17 16:36:03 ESP12E-S1 19.60 20.09 94.80
12832 2019-08-17 16:07:47 ESP12E-S1 19.80 20.30 94.50
12831 2019-08-17 15:39:31 ESP12E-S1 20.00 20.51 93.90
12830 2019-08-17 15:11:14 ESP12E-S1 20.20 20.87 99.50
12829 2019-08-17 14:42:59 ESP12E-S1 20.20 20.84 98.40
12828 2019-08-17 14:14:43 ESP12E-S1 20.30 20.92 96.90
12827 2019-08-17 13:46:22 ESP12E-S1 19.90 20.54 99.20
12826 2019-08-17 13:18:01 ESP12E-S1 19.30 19.89 99.90
12825 2019-08-17 12:49:45 ESP12E-S1 19.10 19.67 99.90
12824 2019-08-17 12:21:26 ESP12E-S1 18.70 19.23 99.90
12823 2019-08-17 11:53:10 ESP12E-S1 18.50 19.01 99.90
12822 2019-08-17 11:24:53 ESP12E-S1 18.30 18.79 99.90
12821 2019-08-17 10:56:35 ESP12E-S1 18.10 18.57 99.90
12820 2019-08-17 10:28:17 ESP12E-S1 17.70 18.13 99.90
12819 2019-08-17 10:00:02 ESP12E-S1 17.70 18.13 99.90
12818 2019-08-17 09:31:47 ESP12E-S1 17.80 18.24 99.90
12817 2019-08-17 09:03:32 ESP12E-S1 17.70 18.10 98.60
12816 2019-08-17 08:35:17 ESP12E-S1 17.70 18.04 96.20
12815 2019-08-17 08:07:02 ESP12E-S1 17.70 18.02 95.50
12814 2019-08-17 07:38:45 ESP12E-S1 17.70 18.02 95.40
12813 2019-08-17 07:10:28 ESP12E-S1 17.60 17.94 96.70
12812 2019-08-17 06:42:12 ESP12E-S1 17.70 17.99 94.20
12811 2019-08-17 06:13:56 ESP12E-S1 17.70 17.95 92.70
12810 2019-08-17 05:45:39 ESP12E-S1 17.80 18.03 91.80
12809 2019-08-17 05:17:21 ESP12E-S1 17.80 18.02 91.50
12808 2019-08-17 04:49:05 ESP12E-S1 17.80 18.03 91.80
12807 2019-08-17 04:20:48 ESP12E-S1 17.80 18.02 91.20
12806 2019-08-17 03:52:31 ESP12E-S1 17.80 18.02 91.40
12805 2019-08-17 03:24:14 ESP12E-S1 17.90 18.11 90.60
12804 2019-08-17 02:55:58 ESP12E-S1 18.00 18.19 89.40
12803 2019-08-17 02:27:42 ESP12E-S1 18.10 18.22 86.40
12802 2019-08-17 01:59:25 ESP12E-S1 18.10 18.17 84.60
12801 2019-08-17 01:31:09 ESP12E-S1 18.20 18.23 82.40
12800 2019-08-17 01:02:52 ESP12E-S1 18.20 18.15 79.30
12799 2019-08-17 00:34:37 ESP12E-S1 18.30 18.22 77.80
12798 2019-08-17 00:06:30 ESP12E-S1 18.50 18.39 76.10
12797 2019-08-16 23:38:11 ESP12E-S1 18.70 18.57 74.60
12796 2019-08-16 23:09:56 ESP12E-S1 18.90 18.70 70.90
12795 2019-08-16 22:41:41 ESP12E-S1 19.00 18.76 69.00
12794 2019-08-16 22:13:35 ESP12E-S1 19.20 18.92 67.00
12793 2019-08-16 21:45:20 ESP12E-S1 19.60 19.29 64.00
12792 2019-08-16 21:17:06 ESP12E-S1 20.10 19.84 64.00
12791 2019-08-16 20:48:53 ESP12E-S1 20.70 20.44 61.70
12790 2019-08-16 20:20:40 ESP12E-S1 21.50 21.23 58.40
12789 2019-08-16 19:52:27 ESP12E-S1 22.30 22.01 54.40
12788 2019-08-16 19:24:12 ESP12E-S1 22.70 22.43 53.70
12787 2019-08-16 18:55:56 ESP12E-S1 23.00 22.77 54.20
12786 2019-08-16 18:27:40 ESP12E-S1 23.30 23.10 54.20
12785 2019-08-16 17:59:23 ESP12E-S1 23.60 23.46 55.20
12784 2019-08-16 17:31:06 ESP12E-S1 23.80 23.66 54.60
12783 2019-08-16 17:02:49 ESP12E-S1 23.80 23.67 55.10
12782 2019-08-16 16:34:33 ESP12E-S1 24.20 24.09 54.20
12781 2019-08-16 16:06:19 ESP12E-S1 24.40 24.32 54.70
12780 2019-08-16 15:38:01 ESP12E-S1 24.30 24.24 55.60
12779 2019-08-16 15:09:40 ESP12E-S1 24.40 24.40 57.70
12778 2019-08-16 14:41:20 ESP12E-S1 23.70 23.63 57.70
12777 2019-08-16 14:12:56 ESP12E-S1 22.90 22.81 60.00
12776 2019-08-16 13:44:48 ESP12E-S1 24.20 24.22 59.30
12775 2019-08-16 13:16:26 ESP12E-S1 23.20 23.25 64.10
12774 2019-08-16 12:48:02 ESP12E-S1 22.00 22.11 71.10
12773 2019-08-16 12:19:47 ESP12E-S1 22.30 22.66 79.60
12772 2019-08-16 11:51:24 ESP12E-S1 21.70 22.12 84.00
12771 2019-08-16 11:23:08 ESP12E-S1 20.80 21.30 90.70
12770 2019-08-16 10:54:27 ESP12E-S1 18.50 18.95 97.50
12769 2019-08-16 10:26:08 ESP12E-S1 18.50 19.00 99.30
12768 2019-08-16 09:57:45 ESP12E-S1 18.00 18.46 99.90
12767 2019-08-16 09:29:27 ESP12E-S1 17.40 17.78 98.80
12766 2019-08-16 09:01:04 ESP12E-S1 16.70 17.03 99.90
12765 2019-08-16 08:32:42 ESP12E-S1 16.00 16.26 99.90
12764 2019-08-16 08:04:24 ESP12E-S1 15.60 15.82 99.90
12763 2019-08-16 07:36:03 ESP12E-S1 15.00 15.16 99.90
12762 2019-08-16 07:07:45 ESP12E-S1 14.60 14.72 99.90
12761 2019-08-16 06:39:29 ESP12E-S1 14.50 14.61 99.90
12760 2019-08-16 06:11:13 ESP12E-S1 14.40 14.50 99.90
12759 2019-08-16 05:42:57 ESP12E-S1 14.60 14.72 99.90
12758 2019-08-16 05:14:42 ESP12E-S1 14.70 14.83 99.90
12757 2019-08-16 04:46:27 ESP12E-S1 14.90 15.05 99.90
12756 2019-08-16 04:18:10 ESP12E-S1 15.10 15.27 99.90
12755 2019-08-16 03:49:55 ESP12E-S1 15.30 15.49 99.90
12754 2019-08-16 03:21:41 ESP12E-S1 15.60 15.82 99.90
12753 2019-08-16 02:53:25 ESP12E-S1 15.80 16.04 99.90
12752 2019-08-16 02:25:08 ESP12E-S1 15.90 16.15 99.90
12751 2019-08-16 01:56:55 ESP12E-S1 16.10 16.37 99.90
12750 2019-08-16 01:28:38 ESP12E-S1 16.20 16.48 99.90
12749 2019-08-16 01:00:20 ESP12E-S1 16.30 16.59 99.90
12748 2019-08-16 00:32:04 ESP12E-S1 16.30 16.59 99.90
12747 2019-08-16 00:03:47 ESP12E-S1 16.20 16.48 99.90
12746 2019-08-15 23:35:31 ESP12E-S1 16.40 16.70 99.90
12745 2019-08-15 23:07:14 ESP12E-S1 16.50 16.81 99.90
12744 2019-08-15 22:38:58 ESP12E-S1 16.70 17.03 99.90
12743 2019-08-15 22:10:41 ESP12E-S1 16.80 17.14 99.90
12742 2019-08-15 21:42:29 ESP12E-S1 16.80 17.14 99.90
12741 2019-08-15 21:14:13 ESP12E-S1 17.00 17.36 99.70
12740 2019-08-15 20:45:58 ESP12E-S1 17.30 17.67 99.10
12739 2019-08-15 20:17:43 ESP12E-S1 17.60 18.01 99.50
12738 2019-08-15 19:49:29 ESP12E-S1 18.00 18.42 98.20
12737 2019-08-15 19:21:13 ESP12E-S1 18.10 18.55 98.90
12736 2019-08-15 18:52:59 ESP12E-S1 18.40 18.84 97.40
12735 2019-08-15 18:24:50 ESP12E-S1 19.40 19.82 92.90
12734 2019-08-15 17:56:37 ESP12E-S1 20.00 20.42 90.70
12733 2019-08-15 17:28:21 ESP12E-S1 19.90 20.34 91.60
12732 2019-08-15 17:00:06 ESP12E-S1 20.20 20.81 97.00
12731 2019-08-15 16:31:53 ESP12E-S1 20.80 21.43 95.60
12730 2019-08-15 16:03:32 ESP12E-S1 20.10 20.74 98.60
12729 2019-08-15 15:35:13 ESP12E-S1 19.70 20.33 99.60
12728 2019-08-15 15:06:59 ESP12E-S1 20.40 20.89 91.70
12727 2019-08-15 14:38:48 ESP12E-S1 21.00 21.54 91.40
12726 2019-08-15 14:10:38 ESP12E-S1 21.60 22.20 91.40
12725 2019-08-15 13:42:04 ESP12E-S1 19.70 20.33 99.90
12724 2019-08-15 13:13:42 ESP12E-S1 18.50 19.01 99.90
12723 2019-08-15 12:45:25 ESP12E-S1 18.00 18.46 99.90
12722 2019-08-15 12:17:02 ESP12E-S1 17.30 17.69 99.90
12721 2019-08-15 11:48:44 ESP12E-S1 17.20 17.58 99.90
12720 2019-08-15 11:20:26 ESP12E-S1 17.00 17.36 99.90
12719 2019-08-15 10:52:07 ESP12E-S1 16.90 17.25 99.90
12718 2019-08-15 10:23:51 ESP12E-S1 16.90 17.25 99.90
12717 2019-08-15 09:55:35 ESP12E-S1 17.00 17.35 99.40
12716 2019-08-15 09:27:16 ESP12E-S1 16.60 16.92 99.90
12715 2019-08-15 08:58:57 ESP12E-S1 16.50 16.80 99.40
12714 2019-08-15 08:30:39 ESP12E-S1 16.20 16.48 99.90
12713 2019-08-15 08:02:22 ESP12E-S1 16.20 16.48 99.90
12712 2019-08-15 07:34:04 ESP12E-S1 16.20 16.48 99.70
12711 2019-08-15 07:05:47 ESP12E-S1 16.10 16.37 99.90
12710 2019-08-15 06:37:31 ESP12E-S1 16.00 16.26 99.90
12709 2019-08-15 06:09:15 ESP12E-S1 16.10 16.37 99.90
12708 2019-08-15 05:41:00 ESP12E-S1 16.30 16.59 99.90
12707 2019-08-15 05:12:44 ESP12E-S1 16.40 16.69 99.20
12706 2019-08-15 04:44:28 ESP12E-S1 16.60 16.88 98.40
12705 2019-08-15 04:16:13 ESP12E-S1 16.70 16.95 96.70
12704 2019-08-15 03:47:58 ESP12E-S1 17.00 17.29 96.90
12703 2019-08-15 03:19:42 ESP12E-S1 17.20 17.31 89.30
12702 2019-08-15 02:51:27 ESP12E-S1 17.40 17.27 79.60
12701 2019-08-15 02:23:09 ESP12E-S1 17.50 17.39 79.90
12700 2019-08-15 01:54:53 ESP12E-S1 17.50 17.25 74.60
12699 2019-08-15 01:26:38 ESP12E-S1 17.50 17.32 77.00
12698 2019-08-15 00:58:21 ESP12E-S1 17.60 17.43 77.20
12697 2019-08-15 00:30:04 ESP12E-S1 17.80 17.44 69.10
12696 2019-08-15 00:01:48 ESP12E-S1 17.90 17.47 66.10
12695 2019-08-14 23:33:34 ESP12E-S1 18.00 17.54 64.40
12694 2019-08-14 23:05:18 ESP12E-S1 18.20 17.74 63.70
12693 2019-08-14 22:37:04 ESP12E-S1 18.40 17.92 62.20
12692 2019-08-14 22:08:48 ESP12E-S1 18.50 18.01 61.40
12691 2019-08-14 21:40:32 ESP12E-S1 18.90 18.45 61.30
12690 2019-08-14 21:12:19 ESP12E-S1 19.40 18.97 60.20
12689 2019-08-14 20:44:08 ESP12E-S1 20.20 19.83 59.60
12688 2019-08-14 20:15:53 ESP12E-S1 21.00 20.58 54.70
12687 2019-08-14 19:47:44 ESP12E-S1 21.40 21.06 56.20
12686 2019-08-14 19:19:28 ESP12E-S1 22.00 21.63 52.50
12685 2019-08-14 18:51:15 ESP12E-S1 22.60 22.24 50.90
12684 2019-08-14 18:22:58 ESP12E-S1 22.80 22.46 50.60
12683 2019-08-14 17:54:44 ESP12E-S1 23.30 22.92 47.40
12682 2019-08-14 17:26:26 ESP12E-S1 23.30 22.95 48.50
12681 2019-08-14 16:58:08 ESP12E-S1 23.30 22.96 49.00
12680 2019-08-14 16:29:48 ESP12E-S1 23.00 22.64 49.10
12679 2019-08-14 16:01:36 ESP12E-S1 23.40 23.06 48.50
12678 2019-08-14 15:33:23 ESP12E-S1 24.10 23.81 47.50
12677 2019-08-14 15:05:08 ESP12E-S1 24.40 24.11 46.40
12676 2019-08-14 14:36:53 ESP12E-S1 25.00 24.75 45.60
12675 2019-08-14 14:08:29 ESP12E-S1 23.50 23.17 48.30
12674 2019-08-14 13:40:02 ESP12E-S1 23.10 22.75 49.10
12673 2019-08-14 13:11:51 ESP12E-S1 22.70 22.34 50.30
12672 2019-08-14 12:43:32 ESP12E-S1 23.30 23.04 51.70
12671 2019-08-14 12:15:12 ESP12E-S1 22.40 22.10 53.70
12670 2019-08-14 11:46:53 ESP12E-S1 21.20 20.80 54.60
12669 2019-08-14 11:18:42 ESP12E-S1 22.20 22.00 58.20
12668 2019-08-14 10:50:09 ESP12E-S1 20.40 20.17 64.30
12667 2019-08-14 10:21:41 ESP12E-S1 18.30 17.98 68.60
12666 2019-08-14 09:53:15 ESP12E-S1 17.10 16.76 72.70
12665 2019-08-14 09:24:54 ESP12E-S1 16.20 15.98 80.60
12664 2019-08-14 08:56:37 ESP12E-S1 15.60 15.45 85.60
12663 2019-08-14 08:28:16 ESP12E-S1 14.80 14.71 90.80
12662 2019-08-14 07:59:58 ESP12E-S1 14.40 14.29 91.70
12661 2019-08-14 07:31:41 ESP12E-S1 14.00 13.85 91.70
12660 2019-08-14 07:03:25 ESP12E-S1 13.90 13.71 90.50
12659 2019-08-14 06:35:10 ESP12E-S1 14.30 14.11 89.10
12658 2019-08-14 06:06:55 ESP12E-S1 14.30 14.05 86.90
12657 2019-08-14 05:38:39 ESP12E-S1 14.30 14.01 85.20
12656 2019-08-14 05:10:24 ESP12E-S1 14.50 14.16 82.50
12655 2019-08-14 04:42:09 ESP12E-S1 14.50 14.18 83.30
12654 2019-08-14 04:13:53 ESP12E-S1 14.60 14.23 81.10
12653 2019-08-14 03:45:38 ESP12E-S1 14.70 14.30 79.50
12652 2019-08-14 03:17:23 ESP12E-S1 14.80 14.39 78.70
12651 2019-08-14 02:49:09 ESP12E-S1 15.10 14.64 75.60
12650 2019-08-14 02:20:56 ESP12E-S1 15.50 14.96 71.00
12649 2019-08-14 01:52:41 ESP12E-S1 15.80 15.18 66.80
12648 2019-08-14 01:24:26 ESP12E-S1 16.00 15.34 64.40
12647 2019-08-14 00:56:10 ESP12E-S1 16.20 15.50 62.30
12646 2019-08-14 00:27:55 ESP12E-S1 16.40 15.68 60.60
12645 2019-08-13 23:59:40 ESP12E-S1 16.60 15.84 58.20
12644 2019-08-13 23:31:25 ESP12E-S1 16.80 16.09 59.60
12643 2019-08-13 23:03:12 ESP12E-S1 17.00 16.29 58.90
12642 2019-08-13 22:35:05 ESP12E-S1 17.00 16.34 60.70
12641 2019-08-13 22:06:51 ESP12E-S1 17.20 16.60 62.30
12640 2019-08-13 21:38:37 ESP12E-S1 17.60 17.00 60.50
12639 2019-08-13 21:10:25 ESP12E-S1 18.30 17.69 57.80
12638 2019-08-13 20:42:10 ESP12E-S1 18.80 18.16 54.50
12637 2019-08-13 20:13:58 ESP12E-S1 19.10 18.49 54.60
12636 2019-08-13 19:45:45 ESP12E-S1 19.80 19.19 51.90
12635 2019-08-13 19:17:29 ESP12E-S1 19.90 19.30 51.80
12634 2019-08-13 18:49:14 ESP12E-S1 20.10 19.47 50.10
12633 2019-08-13 18:21:01 ESP12E-S1 20.50 19.88 48.80
12632 2019-08-13 17:52:47 ESP12E-S1 21.20 20.64 48.30
12631 2019-08-13 17:24:32 ESP12E-S1 21.40 20.91 50.30
12630 2019-08-13 16:56:13 ESP12E-S1 21.20 20.68 49.80
12629 2019-08-13 16:27:52 ESP12E-S1 20.60 20.03 50.30
12628 2019-08-13 15:59:43 ESP12E-S1 20.80 20.37 54.80
12627 2019-08-13 15:31:25 ESP12E-S1 20.90 20.49 55.40
12626 2019-08-13 15:03:03 ESP12E-S1 20.50 20.04 55.10
12625 2019-08-13 14:34:55 ESP12E-S1 21.30 20.88 53.50
12624 2019-08-13 14:06:39 ESP12E-S1 22.00 21.71 55.80
12623 2019-08-13 13:38:20 ESP12E-S1 21.60 21.27 55.90
12622 2019-08-13 13:09:59 ESP12E-S1 21.30 20.98 57.30
12621 2019-08-13 12:41:37 ESP12E-S1 20.70 20.39 59.80
12620 2019-08-13 12:13:13 ESP12E-S1 19.20 18.93 67.10
12619 2019-08-13 11:44:56 ESP12E-S1 19.50 19.36 71.20
12618 2019-08-13 11:16:23 ESP12E-S1 18.10 18.01 78.30
12617 2019-08-13 10:48:00 ESP12E-S1 17.50 17.68 90.90
12616 2019-08-13 10:19:41 ESP12E-S1 16.70 16.84 92.50
12615 2019-08-13 09:51:19 ESP12E-S1 16.10 16.32 98.00
12614 2019-08-13 09:23:02 ESP12E-S1 15.80 16.04 99.90
12613 2019-08-13 08:54:41 ESP12E-S1 15.10 15.27 99.90
12612 2019-08-13 08:26:23 ESP12E-S1 15.00 15.16 99.90
12611 2019-08-13 07:58:04 ESP12E-S1 14.50 14.61 99.90
12610 2019-08-13 07:29:47 ESP12E-S1 14.10 14.17 99.90
12609 2019-08-13 07:01:31 ESP12E-S1 14.10 14.17 99.90
12608 2019-08-13 06:33:20 ESP12E-S1 14.20 14.28 99.90
12607 2019-08-13 06:05:05 ESP12E-S1 14.40 14.50 99.90
12606 2019-08-13 05:36:50 ESP12E-S1 14.60 14.72 99.90
12605 2019-08-13 05:08:34 ESP12E-S1 14.80 14.94 99.90
12604 2019-08-13 04:40:17 ESP12E-S1 14.80 14.94 99.90
12603 2019-08-13 04:12:01 ESP12E-S1 14.70 14.83 99.90
12602 2019-08-13 03:43:45 ESP12E-S1 14.70 14.83 99.90
12601 2019-08-13 03:15:28 ESP12E-S1 14.60 14.72 99.90
12600 2019-08-13 02:47:11 ESP12E-S1 14.60 14.72 99.90
12599 2019-08-13 02:18:56 ESP12E-S1 14.60 14.72 99.90
12598 2019-08-13 01:50:41 ESP12E-S1 14.70 14.83 99.90
12597 2019-08-13 01:22:26 ESP12E-S1 14.80 14.93 99.50
12596 2019-08-13 00:54:14 ESP12E-S1 14.80 14.92 98.90
12595 2019-08-13 00:25:59 ESP12E-S1 14.90 15.04 99.30
12594 2019-08-12 23:57:44 ESP12E-S1 15.10 15.23 98.40
12593 2019-08-12 23:29:30 ESP12E-S1 15.50 15.66 97.90
12592 2019-08-12 23:01:16 ESP12E-S1 15.90 16.10 97.90
12591 2019-08-12 22:33:02 ESP12E-S1 15.80 15.96 96.70
12590 2019-08-12 22:04:49 ESP12E-S1 16.00 16.17 96.40
12589 2019-08-12 21:36:36 ESP12E-S1 16.60 16.85 96.90
12588 2019-08-12 21:08:29 ESP12E-S1 17.20 17.56 99.00
12587 2019-08-12 20:40:16 ESP12E-S1 17.50 17.83 96.80
12586 2019-08-12 20:12:02 ESP12E-S1 17.80 18.08 93.50
12585 2019-08-12 19:43:48 ESP12E-S1 18.10 18.39 92.80
12584 2019-08-12 19:15:37 ESP12E-S1 18.70 19.03 92.20
12583 2019-08-12 18:47:28 ESP12E-S1 19.60 19.91 87.70
12582 2019-08-12 18:19:18 ESP12E-S1 21.40 21.33 66.30
12581 2019-08-12 17:51:04 ESP12E-S1 21.90 21.88 66.30
12580 2019-08-12 17:22:47 ESP12E-S1 22.10 21.95 60.50
12579 2019-08-12 16:54:33 ESP12E-S1 22.40 22.36 63.80
12578 2019-08-12 16:26:17 ESP12E-S1 22.30 22.21 62.40
12577 2019-08-12 15:57:59 ESP12E-S1 22.20 22.09 61.80
12576 2019-08-12 15:29:43 ESP12E-S1 22.00 21.92 63.70
12575 2019-08-12 15:01:26 ESP12E-S1 22.30 22.31 66.10
12574 2019-08-12 14:33:05 ESP12E-S1 21.40 21.29 65.00
12573 2019-08-12 14:04:56 ESP12E-S1 22.10 22.17 69.00
12572 2019-08-12 13:36:41 ESP12E-S1 22.60 22.72 69.30
12571 2019-08-12 13:08:17 ESP12E-S1 20.80 20.96 77.60
12570 2019-08-12 12:40:09 ESP12E-S1 22.50 22.69 72.20
12569 2019-08-12 12:12:11 ESP12E-S1 21.20 21.78 92.00
12568 2019-08-12 12:08:41 ESP12E-S1 21.10 21.20 74.20
12567 2019-08-12 11:40:30 ESP12E-S1 21.80 21.99 74.70
12566 2019-08-12 11:12:08 ESP12E-S1 21.10 21.36 80.40
12565 2019-08-12 10:43:38 ESP12E-S1 20.00 20.23 83.40
12564 2019-08-12 10:15:14 ESP12E-S1 18.70 19.00 90.90
12563 2019-08-12 09:46:53 ESP12E-S1 17.80 18.08 93.50
12562 2019-08-12 09:18:30 ESP12E-S1 17.00 17.23 94.60
12561 2019-08-12 08:50:06 ESP12E-S1 16.00 16.18 96.70
12560 2019-08-12 08:21:47 ESP12E-S1 15.20 15.33 98.00
12559 2019-08-12 07:53:27 ESP12E-S1 14.60 14.66 97.40
12558 2019-08-12 07:25:11 ESP12E-S1 14.40 14.43 97.10
12557 2019-08-12 06:56:55 ESP12E-S1 14.20 14.19 96.40
12556 2019-08-12 06:28:39 ESP12E-S1 14.20 14.19 96.40
12555 2019-08-12 06:00:27 ESP12E-S1 14.40 14.39 95.60
12554 2019-08-12 05:32:13 ESP12E-S1 14.60 14.58 94.30
12553 2019-08-12 05:03:59 ESP12E-S1 14.70 14.69 94.50
12552 2019-08-12 04:35:46 ESP12E-S1 14.90 14.91 94.50
12551 2019-08-12 04:07:31 ESP12E-S1 15.10 15.13 94.40
12550 2019-08-12 03:39:18 ESP12E-S1 15.50 15.54 93.20
12549 2019-08-12 03:11:04 ESP12E-S1 16.00 16.07 92.30
12548 2019-08-12 02:42:48 ESP12E-S1 16.10 16.19 92.90
12547 2019-08-12 02:14:34 ESP12E-S1 16.20 16.29 92.60
12546 2019-08-12 01:46:20 ESP12E-S1 16.30 16.40 92.30
12545 2019-08-12 01:18:07 ESP12E-S1 16.60 16.68 90.60
12544 2019-08-12 00:49:54 ESP12E-S1 16.90 16.98 89.40
12543 2019-08-12 00:21:38 ESP12E-S1 17.00 17.04 87.40
12542 2019-08-11 23:53:23 ESP12E-S1 17.30 17.39 88.30
12541 2019-08-11 23:25:07 ESP12E-S1 17.40 17.43 85.60
12540 2019-08-11 22:56:53 ESP12E-S1 17.60 17.50 80.00
12539 2019-08-11 22:28:38 ESP12E-S1 17.70 17.77 86.10
12538 2019-08-11 22:00:24 ESP12E-S1 18.00 18.08 85.30
12537 2019-08-11 21:32:11 ESP12E-S1 18.60 18.58 79.10
12536 2019-08-11 21:03:57 ESP12E-S1 19.20 18.92 67.00
12535 2019-08-11 20:35:44 ESP12E-S1 19.60 19.35 66.40
12534 2019-08-11 20:07:32 ESP12E-S1 20.30 19.92 58.60
12533 2019-08-11 19:39:16 ESP12E-S1 20.60 20.32 61.40
12532 2019-08-11 19:11:05 ESP12E-S1 21.10 20.89 62.40
12531 2019-08-11 18:42:52 ESP12E-S1 22.10 21.88 57.90
12530 2019-08-11 18:14:42 ESP12E-S1 22.60 22.36 55.30
12529 2019-08-11 17:46:32 ESP12E-S1 23.20 22.96 53.10
12528 2019-08-11 17:18:26 ESP12E-S1 23.80 23.61 52.60
12527 2019-08-11 16:50:11 ESP12E-S1 24.20 24.00 50.70
12526 2019-08-11 16:21:57 ESP12E-S1 24.60 24.37 48.10
12525 2019-08-11 15:53:45 ESP12E-S1 25.40 25.26 48.30
12524 2019-08-11 15:25:34 ESP12E-S1 26.30 26.66 46.80
12523 2019-08-11 14:57:23 ESP12E-S1 27.40 27.69 48.30
12522 2019-08-11 14:29:05 ESP12E-S1 27.60 27.83 47.50
12521 2019-08-11 14:00:42 ESP12E-S1 26.50 27.02 51.10
12520 2019-08-11 13:32:25 ESP12E-S1 26.60 27.08 50.60
12519 2019-08-11 13:04:01 ESP12E-S1 24.80 24.73 53.40
12518 2019-08-11 12:35:52 ESP12E-S1 25.90 25.88 51.00
12517 2019-08-11 12:07:46 ESP12E-S1 26.70 27.27 52.30
12516 2019-08-11 11:39:23 ESP12E-S1 25.70 25.68 51.90
12515 2019-08-11 11:10:59 ESP12E-S1 24.70 24.78 59.40
12514 2019-08-11 10:42:21 ESP12E-S1 22.60 22.76 70.80
12513 2019-08-11 10:13:54 ESP12E-S1 21.20 21.40 77.50
12512 2019-08-11 09:45:33 ESP12E-S1 20.30 20.48 80.30
12511 2019-08-11 09:17:13 ESP12E-S1 19.60 19.72 80.50
12510 2019-08-11 08:48:50 ESP12E-S1 18.60 18.68 83.00
12509 2019-08-11 08:20:28 ESP12E-S1 17.90 18.00 86.20
12508 2019-08-11 07:52:09 ESP12E-S1 17.40 17.47 87.30
12507 2019-08-11 07:23:52 ESP12E-S1 17.10 17.11 85.80
12506 2019-08-11 06:55:37 ESP12E-S1 17.00 16.90 82.20
12505 2019-08-11 06:27:22 ESP12E-S1 17.20 17.01 78.00
12504 2019-08-11 05:59:07 ESP12E-S1 17.50 17.31 76.90
12503 2019-08-11 05:30:52 ESP12E-S1 17.50 17.31 76.90
12502 2019-08-11 05:02:37 ESP12E-S1 17.60 17.41 76.20
12501 2019-08-11 04:34:22 ESP12E-S1 17.80 17.58 74.30
12500 2019-08-11 04:06:08 ESP12E-S1 18.00 17.75 72.40
12499 2019-08-11 03:37:54 ESP12E-S1 18.30 18.01 69.70
12498 2019-08-11 03:09:39 ESP12E-S1 18.40 18.10 69.00
12497 2019-08-11 02:41:29 ESP12E-S1 18.50 18.15 66.80
12496 2019-08-11 02:13:13 ESP12E-S1 18.60 18.20 64.50
12495 2019-08-11 01:44:59 ESP12E-S1 18.80 18.38 62.90
12494 2019-08-11 01:16:45 ESP12E-S1 19.10 18.67 61.40
12493 2019-08-11 00:48:33 ESP12E-S1 19.50 19.03 58.40
12492 2019-08-11 00:20:18 ESP12E-S1 19.80 19.29 55.80
12491 2019-08-10 23:52:02 ESP12E-S1 20.20 19.70 54.70
12490 2019-08-10 23:23:48 ESP12E-S1 20.30 19.78 53.50
12489 2019-08-10 22:55:34 ESP12E-S1 20.60 20.09 52.60
12488 2019-08-10 22:27:21 ESP12E-S1 20.90 20.39 51.60
12487 2019-08-10 21:59:06 ESP12E-S1 21.30 20.83 51.50
12486 2019-08-10 21:30:52 ESP12E-S1 21.80 21.38 51.50
12485 2019-08-10 21:02:39 ESP12E-S1 22.30 21.90 50.20
12484 2019-08-10 20:34:27 ESP12E-S1 23.00 22.62 48.30
12483 2019-08-10 20:06:15 ESP12E-S1 23.80 23.51 49.00
12482 2019-08-10 19:37:57 ESP12E-S1 23.70 23.52 53.50
12481 2019-08-10 19:09:41 ESP12E-S1 23.70 23.46 51.10
12480 2019-08-10 18:41:25 ESP12E-S1 23.90 23.72 52.80
12479 2019-08-10 18:13:11 ESP12E-S1 24.20 24.04 52.30
12478 2019-08-10 17:44:53 ESP12E-S1 24.40 24.33 55.00
12477 2019-08-10 17:16:35 ESP12E-S1 24.20 24.12 55.30
12476 2019-08-10 16:48:21 ESP12E-S1 24.60 24.57 55.60
12475 2019-08-10 16:20:05 ESP12E-S1 24.90 24.95 57.70
12474 2019-08-10 15:51:51 ESP12E-S1 25.00 25.05 57.10
12473 2019-08-10 15:23:33 ESP12E-S1 24.90 24.93 56.80
12472 2019-08-10 14:55:15 ESP12E-S1 24.80 24.99 63.40
12471 2019-08-10 14:27:00 ESP12E-S1 24.80 25.05 65.70
12470 2019-08-10 13:58:37 ESP12E-S1 23.80 24.18 74.40
12469 2019-08-10 13:30:16 ESP12E-S1 22.70 23.08 78.80
12468 2019-08-10 13:01:58 ESP12E-S1 22.30 22.68 80.40
12467 2019-08-10 12:33:43 ESP12E-S1 22.60 23.07 82.50
12466 2019-08-10 12:05:39 ESP12E-S1 23.70 24.23 80.50
12465 2019-08-10 11:37:06 ESP12E-S1 21.90 22.53 91.20
12464 2019-08-10 11:08:45 ESP12E-S1 20.70 21.28 94.10
12463 2019-08-10 10:40:32 ESP12E-S1 20.20 20.78 95.80
12462 2019-08-10 10:12:16 ESP12E-S1 20.10 20.73 98.10
12461 2019-08-10 09:43:58 ESP12E-S1 19.90 20.54 99.20
12460 2019-08-10 09:15:42 ESP12E-S1 19.70 20.33 99.70
12459 2019-08-10 08:47:29 ESP12E-S1 19.60 20.22 99.90
12458 2019-08-10 08:19:11 ESP12E-S1 19.40 20.00 99.90
12457 2019-08-10 07:50:56 ESP12E-S1 19.40 20.00 99.90
12456 2019-08-10 07:22:41 ESP12E-S1 19.60 20.22 99.90
12455 2019-08-10 06:54:26 ESP12E-S1 19.70 20.33 99.90
12454 2019-08-10 06:26:10 ESP12E-S1 19.80 20.44 99.90
12453 2019-08-10 05:57:56 ESP12E-S1 19.90 20.55 99.90
12452 2019-08-10 05:29:43 ESP12E-S1 20.20 20.88 99.90
12451 2019-08-10 05:01:29 ESP12E-S1 20.50 21.21 99.90
12450 2019-08-10 04:33:13 ESP12E-S1 20.70 21.43 99.90
12449 2019-08-10 04:04:58 ESP12E-S1 20.90 21.65 99.90
12448 2019-08-10 03:36:43 ESP12E-S1 20.90 21.65 99.90
12447 2019-08-10 03:08:30 ESP12E-S1 20.90 21.65 99.90
12446 2019-08-10 02:40:14 ESP12E-S1 21.00 21.76 99.90
12445 2019-08-10 02:11:59 ESP12E-S1 21.00 21.76 99.90
12444 2019-08-10 01:43:44 ESP12E-S1 21.10 21.87 99.90
12443 2019-08-10 01:15:29 ESP12E-S1 21.10 21.87 99.90
12442 2019-08-10 00:47:13 ESP12E-S1 21.20 21.98 99.90
12441 2019-08-10 00:18:58 ESP12E-S1 21.30 22.09 99.90
12440 2019-08-09 23:50:44 ESP12E-S1 21.50 22.31 99.90
12439 2019-08-09 23:22:28 ESP12E-S1 21.70 22.53 99.90
12438 2019-08-09 22:54:13 ESP12E-S1 21.70 22.53 99.90
12437 2019-08-09 22:26:00 ESP12E-S1 21.90 22.75 99.90
12436 2019-08-09 21:57:51 ESP12E-S1 22.10 22.97 99.90
12435 2019-08-09 21:29:39 ESP12E-S1 22.40 23.30 99.90
12434 2019-08-09 21:01:24 ESP12E-S1 22.70 23.63 99.90
12433 2019-08-09 20:33:13 ESP12E-S1 23.00 23.96 99.90
12432 2019-08-09 20:05:06 ESP12E-S1 23.20 24.18 99.90
12431 2019-08-09 19:36:51 ESP12E-S1 23.70 24.73 99.90
12430 2019-08-09 19:08:37 ESP12E-S1 24.20 25.24 98.30
12429 2019-08-09 18:40:22 ESP12E-S1 24.60 25.49 90.80
12428 2019-08-09 18:11:59 ESP12E-S1 23.40 24.14 89.80
12427 2019-08-09 18:06:58 ESP12E-S1 23.80 23.98 67.00
12426 2019-08-09 04:43:45 ESP12E-S1 18.80 19.34 99.90
12425 2019-08-09 04:14:55 ESP12E-S1 18.90 19.45 99.90
12424 2019-08-09 03:46:25 ESP12E-S1 19.00 19.56 99.90
12423 2019-08-09 03:17:31 ESP12E-S1 19.20 19.70 96.50
12422 2019-08-09 02:48:40 ESP12E-S1 19.30 19.82 97.10
12421 2019-08-09 02:19:59 ESP12E-S1 19.40 19.90 96.00
12420 2019-08-09 01:51:19 ESP12E-S1 19.20 19.56 91.30
12419 2019-08-09 01:22:30 ESP12E-S1 19.60 19.97 90.30
12418 2019-08-09 00:53:50 ESP12E-S1 20.30 20.67 87.50
12417 2019-08-09 00:25:02 ESP12E-S1 20.10 20.52 90.30
12416 2019-08-08 23:56:23 ESP12E-S1 20.30 20.69 88.10
12415 2019-08-08 23:27:51 ESP12E-S1 20.60 21.03 88.50
12414 2019-08-08 22:59:11 ESP12E-S1 20.80 21.19 86.30
12413 2019-08-08 22:30:34 ESP12E-S1 21.10 21.47 84.40
12412 2019-08-08 22:02:01 ESP12E-S1 21.50 21.84 81.80
12411 2019-08-08 21:33:24 ESP12E-S1 22.00 22.36 80.60
12410 2019-08-08 21:04:47 ESP12E-S1 22.50 22.88 79.50
12409 2019-08-08 20:36:11 ESP12E-S1 23.10 23.53 78.90
12408 2019-08-08 20:07:38 ESP12E-S1 23.50 23.92 77.00
12407 2019-08-08 19:38:59 ESP12E-S1 23.90 24.27 73.60
12406 2019-08-08 19:10:24 ESP12E-S1 24.40 24.72 70.00
12405 2019-08-08 18:41:42 ESP12E-S1 24.80 25.14 69.00
12404 2019-08-08 18:13:03 ESP12E-S1 25.00 25.38 70.00
12403 2019-08-08 17:44:17 ESP12E-S1 25.40 25.81 69.50
12402 2019-08-08 17:15:36 ESP12E-S1 25.20 25.55 67.80
12401 2019-08-08 16:46:59 ESP12E-S1 25.40 25.80 69.00
12400 2019-08-08 16:18:20 ESP12E-S1 25.50 25.90 68.70
12399 2019-08-08 15:49:45 ESP12E-S1 25.80 26.95 67.80
12398 2019-08-08 15:21:09 ESP12E-S1 25.40 25.77 68.10
12397 2019-08-08 14:52:26 ESP12E-S1 25.40 25.80 69.20
12396 2019-08-08 14:23:51 ESP12E-S1 25.80 26.94 67.50
12395 2019-08-08 13:55:12 ESP12E-S1 26.20 27.73 73.10
12394 2019-08-08 13:26:23 ESP12E-S1 24.40 25.01 81.00
12393 2019-08-08 12:57:43 ESP12E-S1 23.90 24.54 84.20
12392 2019-08-08 12:29:15 ESP12E-S1 24.90 25.59 82.20
12391 2019-08-08 12:00:35 ESP12E-S1 24.50 25.26 86.20
12390 2019-08-08 11:31:57 ESP12E-S1 24.20 25.08 92.20
12389 2019-08-08 11:03:09 ESP12E-S1 23.20 24.07 95.70
12388 2019-08-08 10:34:12 ESP12E-S1 20.60 21.32 99.90
12387 2019-08-08 10:05:31 ESP12E-S1 20.10 20.77 99.90
12386 2019-08-08 09:36:46 ESP12E-S1 19.00 19.56 99.90
12385 2019-08-08 09:08:10 ESP12E-S1 18.30 18.79 99.90
12384 2019-08-08 08:39:29 ESP12E-S1 17.40 17.80 99.90
12383 2019-08-08 08:10:48 ESP12E-S1 16.80 17.14 99.90
12382 2019-08-08 07:42:13 ESP12E-S1 16.40 16.70 99.90
12381 2019-08-08 07:13:39 ESP12E-S1 16.10 16.37 99.90
12380 2019-08-08 06:44:59 ESP12E-S1 15.90 16.15 99.90
12379 2019-08-08 06:16:22 ESP12E-S1 15.90 16.15 99.90
12378 2019-08-08 05:47:47 ESP12E-S1 16.20 16.48 99.90
12377 2019-08-08 05:19:09 ESP12E-S1 16.50 16.81 99.90
12376 2019-08-08 04:50:34 ESP12E-S1 16.80 17.14 99.90
12375 2019-08-08 04:21:57 ESP12E-S1 17.00 17.36 99.90
12374 2019-08-08 03:53:21 ESP12E-S1 17.30 17.69 99.90
12373 2019-08-08 03:24:42 ESP12E-S1 17.30 17.69 99.90
12372 2019-08-08 02:56:04 ESP12E-S1 17.40 17.80 99.90
12371 2019-08-08 02:27:27 ESP12E-S1 17.50 17.91 99.90
12370 2019-08-08 01:58:49 ESP12E-S1 17.60 18.02 99.90
12369 2019-08-08 01:30:11 ESP12E-S1 17.80 18.22 98.80
12368 2019-08-08 01:01:36 ESP12E-S1 18.10 18.55 98.90
12367 2019-08-08 00:33:00 ESP12E-S1 18.40 18.90 99.90
12366 2019-08-08 00:04:23 ESP12E-S1 18.40 18.90 99.90
12365 2019-08-07 23:35:46 ESP12E-S1 18.60 19.12 99.90
12364 2019-08-07 23:07:08 ESP12E-S1 18.50 19.01 99.90
12363 2019-08-07 22:38:31 ESP12E-S1 18.60 19.12 99.90
12362 2019-08-07 22:09:55 ESP12E-S1 18.80 19.34 99.90
12361 2019-08-07 21:41:19 ESP12E-S1 19.30 19.89 99.90
12360 2019-08-07 21:12:44 ESP12E-S1 19.30 19.85 98.40
12359 2019-08-07 20:44:12 ESP12E-S1 18.40 18.82 96.80
12358 2019-08-07 20:15:38 ESP12E-S1 20.20 20.77 95.40
12357 2019-08-07 19:47:03 ESP12E-S1 20.50 21.06 94.00
12356 2019-08-07 19:18:28 ESP12E-S1 20.80 21.38 93.50
12355 2019-08-07 18:49:52 ESP12E-S1 20.90 21.49 93.50
12354 2019-08-07 18:21:19 ESP12E-S1 21.40 22.00 92.10
12353 2019-08-07 17:52:43 ESP12E-S1 21.40 22.04 93.50
12352 2019-08-07 17:24:03 ESP12E-S1 20.80 21.43 95.40
12351 2019-08-07 16:55:26 ESP12E-S1 20.70 21.30 94.90
12350 2019-08-07 16:26:57 ESP12E-S1 20.80 21.44 96.00
12349 2019-08-07 15:58:17 ESP12E-S1 20.60 21.22 95.90
12348 2019-08-07 15:29:43 ESP12E-S1 20.70 21.27 93.60
12347 2019-08-07 15:01:06 ESP12E-S1 20.70 21.29 94.40
12346 2019-08-07 14:32:30 ESP12E-S1 20.60 21.28 98.10
12345 2019-08-07 14:03:53 ESP12E-S1 20.50 21.16 97.70
12344 2019-08-07 13:35:17 ESP12E-S1 20.50 21.17 98.30
12343 2019-08-07 13:06:41 ESP12E-S1 20.50 21.21 99.90
12342 2019-08-07 12:38:04 ESP12E-S1 20.40 21.10 99.90
12341 2019-08-07 12:09:28 ESP12E-S1 20.00 20.66 99.90
12340 2019-08-07 11:40:54 ESP12E-S1 20.40 21.10 99.90
12339 2019-08-07 11:12:18 ESP12E-S1 20.40 21.10 99.90
12338 2019-08-07 10:43:37 ESP12E-S1 20.20 20.88 99.90
12337 2019-08-07 10:14:58 ESP12E-S1 19.70 20.33 99.90
12336 2019-08-07 09:46:23 ESP12E-S1 19.30 19.89 99.90
12335 2019-08-07 09:17:46 ESP12E-S1 19.30 19.89 99.90
12334 2019-08-07 08:49:05 ESP12E-S1 18.80 19.34 99.90
12333 2019-08-07 08:20:27 ESP12E-S1 18.30 18.79 99.90
12332 2019-08-07 07:51:52 ESP12E-S1 18.20 18.68 99.90
12331 2019-08-07 07:23:16 ESP12E-S1 18.20 18.68 99.90
12330 2019-08-07 06:54:40 ESP12E-S1 18.20 18.68 99.90
12329 2019-08-07 06:26:05 ESP12E-S1 18.30 18.79 99.90
12328 2019-08-07 05:57:28 ESP12E-S1 18.30 18.79 99.90
12327 2019-08-07 05:28:55 ESP12E-S1 18.30 18.79 99.90
12326 2019-08-07 05:00:17 ESP12E-S1 18.40 18.90 99.90
12325 2019-08-07 04:31:42 ESP12E-S1 18.40 18.90 99.90
12324 2019-08-07 04:03:06 ESP12E-S1 18.40 18.90 99.90
12323 2019-08-07 03:34:31 ESP12E-S1 18.30 18.79 99.90
12322 2019-08-07 03:05:55 ESP12E-S1 18.40 18.90 99.90
12321 2019-08-07 02:37:20 ESP12E-S1 18.40 18.90 99.90
12320 2019-08-07 02:08:45 ESP12E-S1 18.50 19.01 99.90
12319 2019-08-07 01:40:11 ESP12E-S1 18.60 19.12 99.90
12318 2019-08-07 01:11:36 ESP12E-S1 18.70 19.23 99.90
12317 2019-08-07 00:43:02 ESP12E-S1 18.90 19.45 99.90
12316 2019-08-07 00:14:27 ESP12E-S1 19.00 19.56 99.90
12315 2019-08-06 23:45:53 ESP12E-S1 19.30 19.89 99.90
12314 2019-08-06 23:17:20 ESP12E-S1 19.40 20.00 99.90
12313 2019-08-06 22:48:45 ESP12E-S1 19.70 20.33 99.90
12312 2019-08-06 22:20:10 ESP12E-S1 20.00 20.66 99.90
12311 2019-08-06 21:51:36 ESP12E-S1 20.20 20.88 99.90
12310 2019-08-06 21:23:04 ESP12E-S1 20.70 21.40 98.60
12309 2019-08-06 20:54:37 ESP12E-S1 21.40 22.20 99.90
12308 2019-08-06 20:26:03 ESP12E-S1 21.80 22.64 99.90
12307 2019-08-06 19:57:30 ESP12E-S1 22.10 22.87 96.10
12306 2019-08-06 19:28:57 ESP12E-S1 22.40 23.19 95.40
12305 2019-08-06 19:00:23 ESP12E-S1 22.60 23.34 92.90
12304 2019-08-06 18:31:48 ESP12E-S1 23.00 23.74 91.40
12303 2019-08-06 18:03:13 ESP12E-S1 23.00 23.80 93.50
12302 2019-08-06 17:34:37 ESP12E-S1 23.00 23.83 94.90
12301 2019-08-06 17:06:01 ESP12E-S1 22.90 23.75 96.00
12300 2019-08-06 16:37:24 ESP12E-S1 22.60 23.46 97.60
12299 2019-08-06 16:08:44 ESP12E-S1 21.80 22.64 99.90
12298 2019-08-06 15:40:05 ESP12E-S1 21.10 21.87 99.90
12297 2019-08-06 15:11:29 ESP12E-S1 21.10 21.87 99.90
12296 2019-08-06 14:42:55 ESP12E-S1 21.30 22.09 99.90
12295 2019-08-06 14:14:19 ESP12E-S1 21.20 21.98 99.90
12294 2019-08-06 13:45:46 ESP12E-S1 21.10 21.86 99.50
12293 2019-08-06 13:17:13 ESP12E-S1 21.30 22.08 99.30
12292 2019-08-06 12:48:40 ESP12E-S1 21.40 22.13 97.20
12291 2019-08-06 12:20:06 ESP12E-S1 21.40 22.04 93.60
12290 2019-08-06 11:51:32 ESP12E-S1 21.50 22.16 93.90
12289 2019-08-06 11:22:59 ESP12E-S1 21.30 21.93 93.80
12288 2019-08-06 10:54:17 ESP12E-S1 20.80 21.40 94.30
12287 2019-08-06 10:25:40 ESP12E-S1 20.20 20.74 94.20
12286 2019-08-06 09:57:06 ESP12E-S1 20.70 21.12 87.70
12285 2019-08-06 09:28:32 ESP12E-S1 20.70 20.79 75.20
12284 2019-08-06 08:59:57 ESP12E-S1 20.90 20.99 74.40
12283 2019-08-06 08:31:20 ESP12E-S1 20.80 20.77 70.40
12282 2019-08-06 08:02:45 ESP12E-S1 20.70 20.63 69.00
12281 2019-08-06 07:34:09 ESP12E-S1 20.30 20.37 75.90
12280 2019-08-06 07:05:34 ESP12E-S1 20.20 20.10 69.90
12279 2019-08-06 06:36:59 ESP12E-S1 20.10 19.92 67.10
12278 2019-08-06 06:08:25 ESP12E-S1 20.10 19.92 67.30
12277 2019-08-06 05:39:51 ESP12E-S1 20.10 19.88 65.80
12276 2019-08-06 05:11:17 ESP12E-S1 19.10 18.76 64.90
12275 2019-08-06 04:42:43 ESP12E-S1 20.30 20.10 65.60
12274 2019-08-06 04:14:08 ESP12E-S1 20.40 20.20 65.10
12273 2019-08-06 03:45:34 ESP12E-S1 20.40 20.19 64.90
12272 2019-08-06 03:17:01 ESP12E-S1 21.70 21.60 64.30
12271 2019-08-06 02:48:28 ESP12E-S1 20.70 20.44 61.80
12270 2019-08-06 02:19:55 ESP12E-S1 21.00 20.74 60.50
12269 2019-08-06 01:51:22 ESP12E-S1 21.50 21.24 58.90
12268 2019-08-06 01:22:49 ESP12E-S1 21.70 21.45 58.40
12267 2019-08-06 00:54:16 ESP12E-S1 21.90 21.67 58.30
12266 2019-08-06 00:25:46 ESP12E-S1 22.40 22.17 56.60
12265 2019-08-05 23:57:14 ESP12E-S1 22.80 22.56 54.40
12264 2019-08-05 23:28:42 ESP12E-S1 23.20 22.98 53.90
12263 2019-08-05 23:00:09 ESP12E-S1 23.50 23.29 53.10
12262 2019-08-05 22:31:37 ESP12E-S1 23.80 23.62 53.00
12261 2019-08-05 22:03:05 ESP12E-S1 24.00 23.87 54.00
12260 2019-08-05 21:34:32 ESP12E-S1 24.30 24.19 53.80
12259 2019-08-05 21:06:07 ESP12E-S1 24.60 24.55 55.00
12258 2019-08-05 20:37:36 ESP12E-S1 25.00 24.97 54.00
12257 2019-08-05 20:09:04 ESP12E-S1 25.30 25.27 53.20
12256 2019-08-05 19:40:35 ESP12E-S1 25.80 25.82 53.10
12255 2019-08-05 19:12:03 ESP12E-S1 26.20 26.88 53.80
12254 2019-08-05 18:43:30 ESP12E-S1 26.30 26.97 53.90
12253 2019-08-05 18:14:58 ESP12E-S1 26.60 27.13 51.50
12252 2019-08-05 17:46:28 ESP12E-S1 27.30 27.81 51.40
12251 2019-08-05 17:17:54 ESP12E-S1 27.50 28.01 51.30
12250 2019-08-05 16:49:19 ESP12E-S1 27.30 27.92 53.00
12249 2019-08-05 16:20:49 ESP12E-S1 27.70 28.50 54.50
12248 2019-08-05 15:52:14 ESP12E-S1 27.70 28.98 59.60
12247 2019-08-05 15:23:37 ESP12E-S1 27.40 28.60 60.00
12246 2019-08-05 14:55:04 ESP12E-S1 27.40 28.98 64.20
12245 2019-08-05 14:26:26 ESP12E-S1 26.70 27.94 63.70
12244 2019-08-05 13:57:42 ESP12E-S1 25.70 26.06 66.50
12243 2019-08-05 13:28:58 ESP12E-S1 24.20 24.56 72.00
12242 2019-08-05 13:00:19 ESP12E-S1 23.20 23.54 75.10
12241 2019-08-05 12:31:44 ESP12E-S1 21.60 21.75 74.20
12240 2019-08-05 12:03:08 ESP12E-S1 22.20 22.47 76.40
12239 2019-08-05 11:34:29 ESP12E-S1 22.10 22.37 76.70
12238 2019-08-05 11:05:53 ESP12E-S1 21.50 21.89 83.60
12237 2019-08-05 10:37:20 ESP12E-S1 21.50 22.01 88.20
12236 2019-08-05 10:08:41 ESP12E-S1 21.00 21.60 93.50
12235 2019-08-05 09:40:03 ESP12E-S1 20.30 20.77 91.50
12234 2019-08-05 09:11:29 ESP12E-S1 20.10 20.37 84.40
12233 2019-08-05 08:42:57 ESP12E-S1 20.50 20.35 66.90
12232 2019-08-05 08:14:26 ESP12E-S1 20.60 20.42 65.20
12231 2019-08-05 07:45:52 ESP12E-S1 20.50 20.30 65.00
12230 2019-08-05 07:17:20 ESP12E-S1 20.40 20.21 65.60
12229 2019-08-05 06:48:48 ESP12E-S1 20.40 20.16 63.60
12228 2019-08-05 06:20:16 ESP12E-S1 20.50 20.21 61.50
12227 2019-08-05 05:51:44 ESP12E-S1 20.60 20.34 62.20
12226 2019-08-05 05:23:11 ESP12E-S1 20.60 20.29 60.30
12225 2019-08-05 04:54:38 ESP12E-S1 20.70 20.37 59.10
12224 2019-08-05 04:26:07 ESP12E-S1 20.80 20.46 58.30
12223 2019-08-05 03:57:39 ESP12E-S1 20.90 20.58 58.90
12222 2019-08-05 03:29:06 ESP12E-S1 21.00 20.70 59.30
12221 2019-08-05 03:00:34 ESP12E-S1 21.10 20.82 59.60
12220 2019-08-05 02:32:02 ESP12E-S1 21.30 21.01 58.20
12219 2019-08-05 02:03:31 ESP12E-S1 21.40 21.13 58.90
12218 2019-08-05 01:34:58 ESP12E-S1 21.50 21.20 57.40
12217 2019-08-05 01:06:27 ESP12E-S1 21.70 21.45 58.50
12216 2019-08-05 00:37:57 ESP12E-S1 22.00 21.77 57.90
12215 2019-08-05 00:09:23 ESP12E-S1 22.10 21.87 57.50
12214 2019-08-04 23:40:53 ESP12E-S1 22.30 22.10 57.90
12213 2019-08-04 23:12:24 ESP12E-S1 22.60 22.42 57.70
12212 2019-08-04 22:43:51 ESP12E-S1 22.80 22.64 57.50
12211 2019-08-04 22:15:22 ESP12E-S1 23.20 23.04 56.20
12210 2019-08-04 21:46:50 ESP12E-S1 23.70 23.57 55.40
12209 2019-08-04 21:18:21 ESP12E-S1 24.20 24.11 54.80
12208 2019-08-04 20:49:52 ESP12E-S1 24.80 24.74 53.70
12207 2019-08-04 20:21:23 ESP12E-S1 25.50 25.42 50.30
12206 2019-08-04 19:52:52 ESP12E-S1 25.80 25.76 50.70
12205 2019-08-04 19:24:22 ESP12E-S1 26.20 26.69 49.30
12204 2019-08-04 18:55:52 ESP12E-S1 26.60 27.01 49.10
12203 2019-08-04 18:27:22 ESP12E-S1 27.00 27.33 48.50
12202 2019-08-04 17:58:52 ESP12E-S1 27.30 27.59 48.30
12201 2019-08-04 17:30:21 ESP12E-S1 27.50 27.74 47.70
12200 2019-08-04 17:01:52 ESP12E-S1 27.80 28.20 49.70
12199 2019-08-04 16:33:20 ESP12E-S1 27.80 28.10 48.40
12198 2019-08-04 16:04:53 ESP12E-S1 28.10 28.49 49.20
12197 2019-08-04 15:36:21 ESP12E-S1 28.60 29.04 48.90
12196 2019-08-04 15:07:49 ESP12E-S1 28.50 29.29 52.40
12195 2019-08-04 14:39:18 ESP12E-S1 28.60 29.38 52.00
12194 2019-08-04 14:10:41 ESP12E-S1 28.40 29.51 55.50
12193 2019-08-04 13:42:00 ESP12E-S1 27.00 28.08 60.00
12192 2019-08-04 13:13:24 ESP12E-S1 25.20 25.42 63.00
12191 2019-08-04 12:45:02 ESP12E-S1 25.90 26.10 59.60
12190 2019-08-04 12:16:32 ESP12E-S1 26.10 27.10 61.70
12189 2019-08-04 11:47:51 ESP12E-S1 24.60 24.79 64.20
12188 2019-08-04 11:19:21 ESP12E-S1 24.90 25.24 68.80
12187 2019-08-04 10:50:35 ESP12E-S1 23.20 23.54 75.30
12186 2019-08-04 10:21:53 ESP12E-S1 21.80 22.17 81.90
12185 2019-08-04 09:53:15 ESP12E-S1 20.10 20.40 85.60
12184 2019-08-04 09:24:36 ESP12E-S1 19.70 20.06 89.40
12183 2019-08-04 08:55:57 ESP12E-S1 18.70 19.02 91.70
12182 2019-08-04 08:27:21 ESP12E-S1 17.80 18.06 92.90
12181 2019-08-04 07:58:45 ESP12E-S1 17.30 17.52 93.30
12180 2019-08-04 07:30:11 ESP12E-S1 16.90 17.06 92.60
12179 2019-08-04 07:01:39 ESP12E-S1 16.50 16.61 92.10
12178 2019-08-04 06:33:07 ESP12E-S1 16.50 16.58 90.80
12177 2019-08-04 06:04:37 ESP12E-S1 16.60 16.66 89.80
12176 2019-08-04 05:36:07 ESP12E-S1 16.90 16.94 87.70
12175 2019-08-04 05:07:39 ESP12E-S1 17.00 16.99 85.60
12174 2019-08-04 04:39:08 ESP12E-S1 17.30 17.27 83.70
12173 2019-08-04 04:10:38 ESP12E-S1 17.70 17.65 81.40
12172 2019-08-04 03:42:08 ESP12E-S1 18.00 17.93 79.50
12171 2019-08-04 03:13:39 ESP12E-S1 18.20 18.13 78.50
12170 2019-08-04 02:45:11 ESP12E-S1 18.40 18.31 77.10
12169 2019-08-04 02:16:40 ESP12E-S1 18.60 18.48 75.30
12168 2019-08-04 01:48:10 ESP12E-S1 18.90 18.75 72.80
12167 2019-08-04 01:19:40 ESP12E-S1 19.30 19.17 72.10
12166 2019-08-04 00:51:09 ESP12E-S1 19.50 19.35 70.80
12165 2019-08-04 00:22:40 ESP12E-S1 19.70 19.55 70.00
12164 2019-08-03 23:54:10 ESP12E-S1 19.90 19.73 68.40
12163 2019-08-03 23:25:40 ESP12E-S1 20.20 20.03 67.30
12162 2019-08-03 22:57:09 ESP12E-S1 20.40 20.24 66.80
12161 2019-08-03 22:28:39 ESP12E-S1 20.80 20.64 65.40
12160 2019-08-03 22:00:10 ESP12E-S1 21.10 20.93 63.90
12159 2019-08-03 21:31:41 ESP12E-S1 21.50 21.32 62.00
12158 2019-08-03 21:03:13 ESP12E-S1 22.00 21.84 60.60
12157 2019-08-03 20:34:44 ESP12E-S1 22.50 22.36 59.60
12156 2019-08-03 20:06:14 ESP12E-S1 23.00 22.89 58.80
12155 2019-08-03 19:37:45 ESP12E-S1 23.50 23.42 58.10
12154 2019-08-03 19:09:17 ESP12E-S1 22.80 22.61 56.60
12153 2019-08-03 18:40:52 ESP12E-S1 24.30 24.31 58.40
12152 2019-08-03 18:12:21 ESP12E-S1 24.60 24.65 58.90
12151 2019-08-03 17:43:52 ESP12E-S1 24.90 25.03 60.70
12150 2019-08-03 17:15:18 ESP12E-S1 24.80 24.90 60.10
12149 2019-08-03 16:46:51 ESP12E-S1 25.20 25.36 60.70
12148 2019-08-03 16:18:16 ESP12E-S1 24.40 24.58 64.60
12147 2019-08-03 15:49:49 ESP12E-S1 25.00 25.17 61.90
12146 2019-08-03 15:21:18 ESP12E-S1 24.70 24.88 63.40
12145 2019-08-03 14:52:53 ESP12E-S1 25.10 25.31 62.90
12144 2019-08-03 14:24:19 ESP12E-S1 25.60 25.91 64.90
12143 2019-08-03 13:55:48 ESP12E-S1 25.20 25.47 64.90
12142 2019-08-03 13:27:11 ESP12E-S1 25.00 25.44 72.10
12141 2019-08-03 12:58:37 ESP12E-S1 23.20 23.40 69.80
12140 2019-08-03 12:30:09 ESP12E-S1 23.60 23.86 70.50
12139 2019-08-03 12:01:49 ESP12E-S1 24.00 24.40 74.40
12138 2019-08-03 11:33:09 ESP12E-S1 23.10 23.64 83.40
12137 2019-08-03 11:04:32 ESP12E-S1 22.40 22.92 85.10
12136 2019-08-03 10:35:47 ESP12E-S1 21.30 21.88 91.80
12135 2019-08-03 10:07:09 ESP12E-S1 20.10 20.62 93.90
12134 2019-08-03 09:38:31 ESP12E-S1 19.00 19.52 98.20
12133 2019-08-03 09:09:54 ESP12E-S1 18.00 18.46 99.90
12132 2019-08-03 08:41:22 ESP12E-S1 17.80 18.24 99.90
12131 2019-08-03 08:12:50 ESP12E-S1 17.50 17.91 99.90
12130 2019-08-03 07:44:20 ESP12E-S1 17.40 17.80 99.90
12129 2019-08-03 07:15:48 ESP12E-S1 17.40 17.80 99.90
12128 2019-08-03 06:47:18 ESP12E-S1 17.40 17.80 99.90
12127 2019-08-03 06:18:46 ESP12E-S1 17.40 17.80 99.90
12126 2019-08-03 05:50:18 ESP12E-S1 17.40 17.80 99.90
12125 2019-08-03 05:21:46 ESP12E-S1 17.40 17.80 99.90
12124 2019-08-03 04:53:17 ESP12E-S1 17.50 17.91 99.90
12123 2019-08-03 04:24:47 ESP12E-S1 17.50 17.91 99.90
12122 2019-08-03 03:56:17 ESP12E-S1 17.60 18.00 99.00
12121 2019-08-03 03:27:49 ESP12E-S1 17.70 18.05 96.80
12120 2019-08-03 02:59:19 ESP12E-S1 17.60 17.95 97.00
12119 2019-08-03 02:30:48 ESP12E-S1 17.60 17.94 96.70
12118 2019-08-03 02:02:18 ESP12E-S1 17.80 18.15 96.30
12117 2019-08-03 01:33:51 ESP12E-S1 17.90 18.25 95.80
12116 2019-08-03 01:05:21 ESP12E-S1 18.10 18.44 94.80
12115 2019-08-03 00:36:51 ESP12E-S1 18.30 18.71 96.70
12114 2019-08-03 00:08:23 ESP12E-S1 18.40 18.78 95.20
12113 2019-08-02 23:39:55 ESP12E-S1 18.50 18.87 94.30
12112 2019-08-02 23:11:27 ESP12E-S1 18.90 19.30 94.10
12111 2019-08-02 22:42:58 ESP12E-S1 19.10 19.55 95.20
12110 2019-08-02 22:14:29 ESP12E-S1 19.40 19.83 93.30
12109 2019-08-02 21:46:01 ESP12E-S1 19.30 19.69 92.20
12108 2019-08-02 21:17:37 ESP12E-S1 20.60 21.06 89.90
12107 2019-08-02 20:49:09 ESP12E-S1 21.30 21.35 71.40
12106 2019-08-02 20:20:40 ESP12E-S1 21.60 21.74 73.90
12105 2019-08-02 19:52:12 ESP12E-S1 22.00 22.11 71.20
12104 2019-08-02 19:23:42 ESP12E-S1 22.30 22.48 72.40
12103 2019-08-02 18:55:13 ESP12E-S1 22.40 22.57 71.80
12102 2019-08-02 18:26:45 ESP12E-S1 22.70 22.85 69.80
12101 2019-08-02 17:58:17 ESP12E-S1 22.80 22.95 69.60
12100 2019-08-02 17:29:45 ESP12E-S1 22.60 22.69 67.80
12099 2019-08-02 17:01:12 ESP12E-S1 22.40 22.54 70.80
12098 2019-08-02 16:32:41 ESP12E-S1 22.10 22.37 76.70
12097 2019-08-02 16:04:12 ESP12E-S1 22.40 22.75 78.70
12096 2019-08-02 15:35:41 ESP12E-S1 21.90 22.34 83.90
12095 2019-08-02 15:07:10 ESP12E-S1 21.50 21.74 78.10
12094 2019-08-02 14:38:45 ESP12E-S1 22.30 22.42 70.10
12093 2019-08-02 14:10:32 ESP12E-S1 24.80 24.72 52.90
12092 2019-08-02 13:42:10 ESP12E-S1 26.60 27.23 53.40
12091 2019-08-02 13:13:13 ESP12E-S1 22.60 22.53 61.90
12090 2019-08-02 12:44:46 ESP12E-S1 22.80 22.69 59.60
12089 2019-08-02 12:16:21 ESP12E-S1 23.60 23.52 57.60
12088 2019-08-02 11:47:54 ESP12E-S1 23.70 23.71 60.80
12087 2019-08-02 11:19:23 ESP12E-S1 23.30 23.22 58.90
12086 2019-08-02 10:50:54 ESP12E-S1 24.10 24.13 59.90
12085 2019-08-02 10:22:10 ESP12E-S1 22.10 22.00 62.70
12084 2019-08-02 09:53:38 ESP12E-S1 21.80 21.74 65.20
12083 2019-08-02 09:25:08 ESP12E-S1 20.70 20.62 68.60
12082 2019-08-02 08:56:34 ESP12E-S1 20.20 20.13 71.20
12081 2019-08-02 08:28:02 ESP12E-S1 20.00 19.94 72.20
12080 2019-08-02 07:59:31 ESP12E-S1 19.60 19.41 68.90
12079 2019-08-02 07:31:01 ESP12E-S1 19.50 19.25 67.00
12078 2019-08-02 07:02:31 ESP12E-S1 19.30 18.99 65.20
12077 2019-08-02 06:34:02 ESP12E-S1 19.20 18.82 63.00
12076 2019-08-02 06:05:33 ESP12E-S1 19.30 18.90 61.90
12075 2019-08-02 05:37:07 ESP12E-S1 19.30 18.88 60.90
12074 2019-08-02 05:08:46 ESP12E-S1 19.40 18.98 60.50
12073 2019-08-02 04:40:22 ESP12E-S1 19.50 19.08 60.40
12072 2019-08-02 04:11:52 ESP12E-S1 19.50 19.07 59.90
12071 2019-08-02 03:43:23 ESP12E-S1 19.70 19.27 59.20
12070 2019-08-02 03:14:57 ESP12E-S1 19.90 19.47 58.40
12069 2019-08-02 02:46:34 ESP12E-S1 20.10 19.67 57.60
12068 2019-08-02 02:18:12 ESP12E-S1 20.30 19.88 57.30
12067 2019-08-02 01:49:43 ESP12E-S1 20.70 20.29 56.10
12066 2019-08-02 01:21:22 ESP12E-S1 20.90 20.51 56.20
12065 2019-08-02 00:52:52 ESP12E-S1 21.20 20.82 55.40
12064 2019-08-02 00:24:24 ESP12E-S1 21.50 21.14 54.90
12063 2019-08-01 23:55:57 ESP12E-S1 21.60 21.26 55.50
12062 2019-08-01 23:27:36 ESP12E-S1 21.70 21.36 54.90
12061 2019-08-01 22:59:05 ESP12E-S1 21.80 21.45 54.10
12060 2019-08-01 22:30:39 ESP12E-S1 21.90 21.55 53.70
12059 2019-08-01 22:02:11 ESP12E-S1 22.10 21.76 53.30
12058 2019-08-01 21:33:44 ESP12E-S1 22.30 21.98 53.60
12057 2019-08-01 21:05:18 ESP12E-S1 22.60 22.32 53.70
12056 2019-08-01 20:37:00 ESP12E-S1 23.10 22.90 55.00
12055 2019-08-01 20:08:32 ESP12E-S1 23.50 23.24 51.10
12054 2019-08-01 19:40:05 ESP12E-S1 24.00 23.73 49.00
12053 2019-08-01 19:11:39 ESP12E-S1 24.40 24.14 47.70
12052 2019-08-01 18:43:14 ESP12E-S1 25.10 24.82 44.40
12051 2019-08-01 18:14:54 ESP12E-S1 25.10 24.86 45.80
12050 2019-08-01 17:46:21 ESP12E-S1 25.00 24.78 46.80
12049 2019-08-01 17:17:52 ESP12E-S1 25.20 24.98 46.10
12048 2019-08-01 16:49:27 ESP12E-S1 25.80 25.63 45.90
12047 2019-08-01 16:20:59 ESP12E-S1 26.10 25.92 44.10
12046 2019-08-01 15:52:29 ESP12E-S1 25.90 25.75 46.10
12045 2019-08-01 15:23:53 ESP12E-S1 25.00 24.77 46.60
12044 2019-08-01 14:55:33 ESP12E-S1 24.20 23.89 46.50
12043 2019-08-01 14:27:02 ESP12E-S1 24.40 24.09 45.60
12042 2019-08-01 13:58:38 ESP12E-S1 24.90 24.65 46.30
12041 2019-08-01 13:30:16 ESP12E-S1 25.90 25.70 44.30
12040 2019-08-01 13:01:49 ESP12E-S1 27.20 27.13 42.20
12039 2019-08-01 12:33:20 ESP12E-S1 26.20 26.03 44.20
12038 2019-08-01 12:04:51 ESP12E-S1 25.80 25.64 46.30
12037 2019-08-01 11:36:16 ESP12E-S1 24.90 24.73 49.30
12036 2019-08-01 11:07:20 ESP12E-S1 22.10 21.70 51.20
12035 2019-08-01 10:38:52 ESP12E-S1 21.70 21.29 52.10
12034 2019-08-01 10:10:26 ESP12E-S1 21.90 21.51 52.30
12033 2019-08-01 09:41:52 ESP12E-S1 21.10 20.68 54.10
12032 2019-08-01 09:13:16 ESP12E-S1 20.20 19.75 56.60
12031 2019-08-01 08:44:39 ESP12E-S1 19.20 18.71 58.70
12030 2019-08-01 08:16:06 ESP12E-S1 18.60 18.06 59.30
12029 2019-08-01 07:47:35 ESP12E-S1 18.20 17.67 61.10
12028 2019-08-01 07:19:06 ESP12E-S1 18.10 17.60 62.70
12027 2019-08-01 06:50:38 ESP12E-S1 18.00 17.42 59.80
12026 2019-08-01 06:22:12 ESP12E-S1 18.00 17.44 60.60
12025 2019-08-01 05:53:44 ESP12E-S1 18.20 17.66 60.50
12024 2019-08-01 05:25:18 ESP12E-S1 18.50 17.96 59.50
12023 2019-08-01 04:56:51 ESP12E-S1 18.60 18.02 57.80
12022 2019-08-01 04:28:23 ESP12E-S1 18.70 18.13 57.70
12021 2019-08-01 03:59:56 ESP12E-S1 18.70 18.11 56.90
12020 2019-08-01 03:31:30 ESP12E-S1 18.80 18.22 57.00
12019 2019-08-01 03:03:03 ESP12E-S1 19.00 18.40 55.50
12018 2019-08-01 02:34:41 ESP12E-S1 19.30 18.73 55.20
12017 2019-08-01 02:06:15 ESP12E-S1 19.80 19.24 53.90
12016 2019-08-01 01:37:49 ESP12E-S1 20.20 19.65 52.70
12015 2019-08-01 01:09:22 ESP12E-S1 20.50 19.97 52.20
12014 2019-08-01 00:40:56 ESP12E-S1 20.70 20.17 51.50
12013 2019-08-01 00:12:29 ESP12E-S1 21.00 20.49 51.10
12012 2019-07-31 23:44:02 ESP12E-S1 21.10 20.59 50.90
12011 2019-07-31 23:15:35 ESP12E-S1 21.30 20.80 50.40
12010 2019-07-31 22:47:08 ESP12E-S1 21.50 21.01 49.80
12009 2019-07-31 22:18:46 ESP12E-S1 21.90 21.43 49.20
12008 2019-07-31 21:50:18 ESP12E-S1 22.20 21.71 47.20
12007 2019-07-31 21:21:53 ESP12E-S1 22.80 22.36 46.80
12006 2019-07-31 20:53:27 ESP12E-S1 23.20 22.76 45.30
12005 2019-07-31 20:25:01 ESP12E-S1 23.60 23.24 46.90
12004 2019-07-31 19:56:36 ESP12E-S1 24.00 23.55 42.00
12003 2019-07-31 19:28:09 ESP12E-S1 24.50 24.04 39.80
12002 2019-07-31 18:59:44 ESP12E-S1 25.00 24.58 39.40
12001 2019-07-31 18:31:19 ESP12E-S1 25.60 25.25 39.70
12000 2019-07-31 18:02:55 ESP12E-S1 26.20 25.84 36.90
11999 2019-07-31 17:34:32 ESP12E-S1 26.40 26.07 37.50
11998 2019-07-31 17:06:02 ESP12E-S1 26.70 26.62 39.30
11997 2019-07-31 16:37:44 ESP12E-S1 27.20 26.91 38.10
11996 2019-07-31 16:09:11 ESP12E-S1 26.80 26.65 38.60
11995 2019-07-31 15:40:47 ESP12E-S1 27.60 27.38 40.90
11994 2019-07-31 15:12:19 ESP12E-S1 27.20 26.92 38.20
11993 2019-07-31 14:43:54 ESP12E-S1 28.00 27.68 40.30
11992 2019-07-31 14:15:25 ESP12E-S1 28.30 27.87 39.10
11991 2019-07-31 13:47:00 ESP12E-S1 28.20 27.78 39.10
11990 2019-07-31 13:18:21 ESP12E-S1 27.70 27.71 44.60
11989 2019-07-31 12:49:44 ESP12E-S1 26.30 26.10 42.70
11988 2019-07-31 12:21:25 ESP12E-S1 27.00 27.00 42.70
11987 2019-07-31 11:52:54 ESP12E-S1 26.60 26.99 48.70
11986 2019-07-31 11:24:14 ESP12E-S1 24.90 24.81 52.30
11985 2019-07-31 10:55:46 ESP12E-S1 24.70 24.59 52.30
11984 2019-07-31 10:27:08 ESP12E-S1 23.80 23.74 57.70
11983 2019-07-31 09:58:35 ESP12E-S1 22.80 22.67 58.60
11982 2019-07-31 09:30:03 ESP12E-S1 22.00 21.79 58.80
11981 2019-07-31 09:01:30 ESP12E-S1 21.20 21.00 62.40
11980 2019-07-31 08:33:00 ESP12E-S1 20.50 20.31 65.20
11979 2019-07-31 08:04:32 ESP12E-S1 20.40 20.24 66.90
11978 2019-07-31 07:36:03 ESP12E-S1 20.20 20.04 67.50
11977 2019-07-31 07:07:36 ESP12E-S1 20.10 19.94 67.80
11976 2019-07-31 06:39:08 ESP12E-S1 20.10 19.93 67.50
11975 2019-07-31 06:10:40 ESP12E-S1 20.00 19.80 66.90
11974 2019-07-31 05:42:21 ESP12E-S1 19.90 19.72 67.80
11973 2019-07-31 05:13:52 ESP12E-S1 20.20 19.98 65.30
11972 2019-07-31 04:45:27 ESP12E-S1 20.40 20.16 63.70
11971 2019-07-31 04:17:01 ESP12E-S1 20.80 20.57 62.70
11970 2019-07-31 03:48:35 ESP12E-S1 21.00 20.75 61.20
11969 2019-07-31 03:20:10 ESP12E-S1 21.30 21.07 60.80
11968 2019-07-31 02:51:44 ESP12E-S1 21.70 21.47 59.00
11967 2019-07-31 02:23:18 ESP12E-S1 22.00 21.78 58.30
11966 2019-07-31 01:54:51 ESP12E-S1 22.20 22.02 59.00
11965 2019-07-31 01:26:23 ESP12E-S1 22.40 22.23 58.70
11964 2019-07-31 00:57:59 ESP12E-S1 22.60 22.40 57.00
11963 2019-07-31 00:29:40 ESP12E-S1 22.90 22.73 56.70
11962 2019-07-31 00:01:16 ESP12E-S1 23.20 23.00 54.70
11961 2019-07-30 23:32:50 ESP12E-S1 23.60 23.41 53.50
11960 2019-07-30 23:04:25 ESP12E-S1 23.90 23.71 52.30
11959 2019-07-30 22:36:00 ESP12E-S1 24.30 24.12 51.00
11958 2019-07-30 22:07:37 ESP12E-S1 24.80 24.67 51.00
11957 2019-07-30 21:39:12 ESP12E-S1 25.20 25.02 47.80
11956 2019-07-30 21:10:47 ESP12E-S1 25.50 25.31 46.10
11955 2019-07-30 20:42:23 ESP12E-S1 25.90 25.75 46.20
11954 2019-07-30 20:14:00 ESP12E-S1 26.50 26.71 44.50
11953 2019-07-30 19:45:36 ESP12E-S1 27.20 27.32 45.50
11952 2019-07-30 19:17:14 ESP12E-S1 28.10 28.20 45.90
11951 2019-07-30 18:48:50 ESP12E-S1 28.50 28.47 44.20
11950 2019-07-30 18:20:25 ESP12E-S1 29.00 29.04 44.50
11949 2019-07-30 17:52:01 ESP12E-S1 29.40 29.61 45.40
11948 2019-07-30 17:23:34 ESP12E-S1 29.60 29.82 45.10
11947 2019-07-30 16:55:07 ESP12E-S1 29.80 30.34 47.10
11946 2019-07-30 16:26:43 ESP12E-S1 30.40 30.90 45.30
11945 2019-07-30 15:58:16 ESP12E-S1 30.50 30.71 43.10
11944 2019-07-30 15:29:52 ESP12E-S1 31.30 32.20 45.30
11943 2019-07-30 15:01:23 ESP12E-S1 30.80 31.66 46.50
11942 2019-07-30 14:32:58 ESP12E-S1 31.00 31.55 44.10
11941 2019-07-30 14:04:27 ESP12E-S1 30.50 31.50 48.20
11940 2019-07-30 13:36:03 ESP12E-S1 31.10 33.01 51.10
11939 2019-07-30 13:07:37 ESP12E-S1 31.40 32.98 48.50
11938 2019-07-30 12:38:59 ESP12E-S1 29.10 30.70 56.70
11937 2019-07-30 12:10:32 ESP12E-S1 29.00 30.97 59.60
11936 2019-07-30 11:42:01 ESP12E-S1 28.10 30.54 67.60
11935 2019-07-30 11:13:25 ESP12E-S1 26.80 29.15 78.10
11934 2019-07-30 10:44:41 ESP12E-S1 25.00 25.83 87.20
11933 2019-07-30 10:16:04 ESP12E-S1 23.50 24.34 93.40
11932 2019-07-30 09:47:30 ESP12E-S1 22.40 23.17 94.70
11931 2019-07-30 09:18:58 ESP12E-S1 21.60 22.35 97.10
11930 2019-07-30 08:50:39 ESP12E-S1 21.10 21.81 97.60
11929 2019-07-30 08:22:06 ESP12E-S1 20.70 21.37 97.60
11928 2019-07-30 07:53:36 ESP12E-S1 19.90 20.54 99.30
11927 2019-07-30 07:25:07 ESP12E-S1 19.40 20.00 99.90
11926 2019-07-30 06:56:40 ESP12E-S1 19.20 19.77 99.50
11925 2019-07-30 06:28:13 ESP12E-S1 19.10 19.64 98.50
11924 2019-07-30 05:59:48 ESP12E-S1 19.40 19.93 97.20
11923 2019-07-30 05:31:22 ESP12E-S1 19.50 20.01 95.90
11922 2019-07-30 05:02:56 ESP12E-S1 19.50 20.01 95.90
11921 2019-07-30 04:34:31 ESP12E-S1 19.80 20.33 95.50
11920 2019-07-30 04:06:04 ESP12E-S1 20.00 20.54 95.00
11919 2019-07-30 03:37:38 ESP12E-S1 20.20 20.75 94.60
11918 2019-07-30 03:09:13 ESP12E-S1 20.40 20.97 94.60
11917 2019-07-30 02:40:47 ESP12E-S1 20.50 21.07 94.40
11916 2019-07-30 02:12:23 ESP12E-S1 20.80 21.37 93.40
11915 2019-07-30 01:43:58 ESP12E-S1 20.90 21.47 93.00
11914 2019-07-30 01:15:32 ESP12E-S1 21.10 21.68 92.50
11913 2019-07-30 00:47:06 ESP12E-S1 21.40 21.97 91.10
11912 2019-07-30 00:18:42 ESP12E-S1 21.70 22.25 89.10
11911 2019-07-29 23:50:17 ESP12E-S1 21.90 22.39 85.90
11910 2019-07-29 23:21:51 ESP12E-S1 22.00 22.46 84.40
11909 2019-07-29 22:53:27 ESP12E-S1 22.20 22.63 82.70
11908 2019-07-29 22:25:03 ESP12E-S1 22.50 22.92 80.80
11907 2019-07-29 21:56:38 ESP12E-S1 22.90 23.29 78.30
11906 2019-07-29 21:28:13 ESP12E-S1 23.40 23.81 77.30
11905 2019-07-29 20:59:49 ESP12E-S1 23.80 24.22 75.90
11904 2019-07-29 20:31:26 ESP12E-S1 24.40 24.78 72.30
11903 2019-07-29 20:03:02 ESP12E-S1 24.70 25.09 71.50
11902 2019-07-29 19:34:37 ESP12E-S1 25.20 25.49 65.80
11901 2019-07-29 19:06:13 ESP12E-S1 25.50 25.84 66.60
11900 2019-07-29 18:37:47 ESP12E-S1 25.80 26.11 64.00
11899 2019-07-29 18:09:20 ESP12E-S1 25.90 26.98 64.80
11898 2019-07-29 17:40:53 ESP12E-S1 26.00 26.98 61.50
11897 2019-07-29 17:12:23 ESP12E-S1 25.70 26.02 65.00
11896 2019-07-29 16:43:54 ESP12E-S1 25.50 25.85 66.70
11895 2019-07-29 16:15:24 ESP12E-S1 25.20 25.59 69.40
11894 2019-07-29 15:46:57 ESP12E-S1 25.20 25.57 68.60
11893 2019-07-29 15:18:33 ESP12E-S1 25.70 26.03 65.40
11892 2019-07-29 14:50:10 ESP12E-S1 26.20 27.37 65.10
11891 2019-07-29 14:21:38 ESP12E-S1 25.60 26.00 68.20
11890 2019-07-29 13:53:12 ESP12E-S1 25.50 25.92 69.40
11889 2019-07-29 13:24:53 ESP12E-S1 26.30 27.55 66.20
11888 2019-07-29 12:56:20 ESP12E-S1 26.70 28.03 65.10
11887 2019-07-29 12:27:53 ESP12E-S1 26.30 27.71 69.40
11886 2019-07-29 11:59:26 ESP12E-S1 26.10 27.54 72.40
11885 2019-07-29 11:30:53 ESP12E-S1 25.10 25.73 79.10
11884 2019-07-29 11:02:16 ESP12E-S1 23.30 23.98 87.80
11883 2019-07-29 10:33:33 ESP12E-S1 21.20 21.76 91.50
11882 2019-07-29 10:04:58 ESP12E-S1 20.00 20.50 93.70
11881 2019-07-29 09:36:30 ESP12E-S1 19.30 19.75 94.50
11880 2019-07-29 09:08:07 ESP12E-S1 19.00 19.42 94.20
11879 2019-07-29 08:39:39 ESP12E-S1 18.70 19.09 94.30
11878 2019-07-29 08:11:13 ESP12E-S1 18.50 18.87 94.30
11877 2019-07-29 07:42:46 ESP12E-S1 18.40 18.76 94.20
11876 2019-07-29 07:14:20 ESP12E-S1 18.40 18.76 94.40
11875 2019-07-29 06:45:52 ESP12E-S1 18.30 18.67 95.20
11874 2019-07-29 06:17:27 ESP12E-S1 18.40 18.77 94.90
11873 2019-07-29 05:49:01 ESP12E-S1 18.40 18.78 95.20
11872 2019-07-29 05:20:35 ESP12E-S1 18.60 19.01 95.70
11871 2019-07-29 04:52:10 ESP12E-S1 18.60 19.02 96.10
11870 2019-07-29 04:23:44 ESP12E-S1 18.60 19.02 96.10
11869 2019-07-29 03:55:19 ESP12E-S1 18.70 19.15 96.60
11868 2019-07-29 03:26:53 ESP12E-S1 18.70 19.15 96.60
11867 2019-07-29 02:58:27 ESP12E-S1 18.80 19.27 96.90
11866 2019-07-29 02:30:00 ESP12E-S1 18.80 19.26 96.70
11865 2019-07-29 02:01:34 ESP12E-S1 18.90 19.36 96.40
11864 2019-07-29 01:33:09 ESP12E-S1 19.00 19.46 96.10
11863 2019-07-29 01:04:42 ESP12E-S1 19.10 19.57 96.10
11862 2019-07-29 00:36:18 ESP12E-S1 19.20 19.69 96.40
11861 2019-07-29 00:07:52 ESP12E-S1 19.30 19.81 96.50
11860 2019-07-28 23:39:27 ESP12E-S1 19.50 20.01 96.00
11859 2019-07-28 23:11:02 ESP12E-S1 19.80 20.33 95.40
11858 2019-07-28 22:42:38 ESP12E-S1 20.00 20.54 95.00
11857 2019-07-28 22:14:13 ESP12E-S1 20.20 20.74 94.50
11856 2019-07-28 21:45:48 ESP12E-S1 20.50 21.07 94.30
11855 2019-07-28 21:17:23 ESP12E-S1 20.80 21.37 93.40
11854 2019-07-28 20:48:59 ESP12E-S1 21.20 21.81 93.30
11853 2019-07-28 20:20:35 ESP12E-S1 21.60 22.25 93.10
11852 2019-07-28 19:52:10 ESP12E-S1 21.90 22.55 92.20
11851 2019-07-28 19:23:47 ESP12E-S1 22.40 23.09 91.60
11850 2019-07-28 18:55:23 ESP12E-S1 22.90 23.62 90.90
11849 2019-07-28 18:26:58 ESP12E-S1 23.10 23.85 91.20
11848 2019-07-28 17:58:33 ESP12E-S1 23.40 24.18 91.30
11847 2019-07-28 17:30:09 ESP12E-S1 23.70 24.50 90.80
11846 2019-07-28 17:01:47 ESP12E-S1 23.80 24.60 90.70
11845 2019-07-28 16:33:18 ESP12E-S1 23.60 24.38 90.70
11844 2019-07-28 16:04:52 ESP12E-S1 23.60 24.35 89.50
11843 2019-07-28 15:36:25 ESP12E-S1 23.50 24.27 90.60
11842 2019-07-28 15:08:01 ESP12E-S1 23.60 24.40 91.50
11841 2019-07-28 14:39:35 ESP12E-S1 23.50 24.35 93.80
11840 2019-07-28 14:11:09 ESP12E-S1 23.70 24.66 97.20
11839 2019-07-28 13:42:40 ESP12E-S1 23.50 24.46 98.00
11838 2019-07-28 13:14:11 ESP12E-S1 23.00 23.91 97.70
11837 2019-07-28 12:45:43 ESP12E-S1 22.80 23.74 99.90
11836 2019-07-28 12:17:21 ESP12E-S1 23.00 23.89 97.10
11835 2019-07-28 11:48:54 ESP12E-S1 23.20 24.03 94.10
11834 2019-07-28 11:20:28 ESP12E-S1 22.90 23.70 94.00
11833 2019-07-28 10:52:00 ESP12E-S1 22.70 23.48 94.10
11832 2019-07-28 10:23:31 ESP12E-S1 22.50 23.26 94.10
11831 2019-07-28 09:55:04 ESP12E-S1 22.20 22.96 95.00
11830 2019-07-28 09:26:36 ESP12E-S1 21.70 22.42 95.70
11829 2019-07-28 08:58:06 ESP12E-S1 21.20 21.86 95.10
11828 2019-07-28 08:29:42 ESP12E-S1 21.00 21.64 95.20
11827 2019-07-28 08:01:15 ESP12E-S1 20.90 21.54 95.70
11826 2019-07-28 07:32:49 ESP12E-S1 20.80 21.42 95.30
11825 2019-07-28 07:04:23 ESP12E-S1 20.70 21.29 94.50
11824 2019-07-28 06:35:58 ESP12E-S1 20.80 21.38 93.80
11823 2019-07-28 06:07:32 ESP12E-S1 20.80 21.36 92.90
11822 2019-07-28 05:39:07 ESP12E-S1 20.90 21.43 91.40
11821 2019-07-28 05:10:42 ESP12E-S1 21.00 21.55 91.60
11820 2019-07-28 04:42:19 ESP12E-S1 21.10 21.64 90.80
11819 2019-07-28 04:13:54 ESP12E-S1 21.20 21.76 91.40
11818 2019-07-28 03:45:29 ESP12E-S1 21.30 21.86 91.00
11817 2019-07-28 03:17:05 ESP12E-S1 21.40 21.95 90.20
11816 2019-07-28 02:48:42 ESP12E-S1 21.50 22.03 89.00
11815 2019-07-28 02:20:18 ESP12E-S1 21.80 22.33 87.70
11814 2019-07-28 01:51:55 ESP12E-S1 22.00 22.60 89.90
11813 2019-07-28 01:23:30 ESP12E-S1 22.10 22.78 92.30
11812 2019-07-28 00:55:07 ESP12E-S1 22.20 22.87 91.70
11811 2019-07-28 00:26:43 ESP12E-S1 22.40 23.09 91.90
11810 2019-07-27 23:58:18 ESP12E-S1 22.60 23.31 91.80
11809 2019-07-27 23:29:53 ESP12E-S1 22.80 23.57 93.30
11808 2019-07-27 23:01:29 ESP12E-S1 23.00 23.75 91.80
11807 2019-07-27 22:33:04 ESP12E-S1 23.30 24.06 91.00
11806 2019-07-27 22:04:43 ESP12E-S1 23.50 24.29 91.20
11805 2019-07-27 21:36:18 ESP12E-S1 23.70 24.54 92.30
11804 2019-07-27 21:07:55 ESP12E-S1 24.00 24.85 91.80
11803 2019-07-27 20:39:32 ESP12E-S1 24.30 25.20 92.50
11802 2019-07-27 20:11:07 ESP12E-S1 24.50 25.43 93.00
11801 2019-07-27 19:42:45 ESP12E-S1 24.90 25.86 92.60
11800 2019-07-27 19:14:20 ESP12E-S1 25.20 26.07 92.70
11799 2019-07-27 18:45:54 ESP12E-S1 25.20 26.10 90.80
11798 2019-07-27 18:17:28 ESP12E-S1 25.10 26.07 92.10
11797 2019-07-27 17:49:05 ESP12E-S1 25.30 26.32 92.20
11796 2019-07-27 17:20:41 ESP12E-S1 25.30 26.32 92.40
11795 2019-07-27 16:52:15 ESP12E-S1 25.00 25.96 92.00
11794 2019-07-27 16:23:51 ESP12E-S1 25.10 26.07 92.20
11793 2019-07-27 15:55:29 ESP12E-S1 25.20 26.06 93.00
11792 2019-07-27 15:27:01 ESP12E-S1 24.90 25.92 94.70
11791 2019-07-27 14:58:35 ESP12E-S1 24.70 25.68 94.00
11790 2019-07-27 14:30:09 ESP12E-S1 24.60 25.59 94.70
11789 2019-07-27 14:01:48 ESP12E-S1 25.00 25.95 91.90
11788 2019-07-27 13:33:24 ESP12E-S1 25.10 26.04 90.80
11787 2019-07-27 13:05:00 ESP12E-S1 25.20 25.97 84.10
11786 2019-07-27 12:36:32 ESP12E-S1 24.90 25.76 88.50
11785 2019-07-27 12:08:13 ESP12E-S1 25.50 26.73 79.60
11784 2019-07-27 11:39:49 ESP12E-S1 26.00 27.18 66.80
11783 2019-07-27 11:11:28 ESP12E-S1 26.40 27.55 63.70
11782 2019-07-27 10:43:07 ESP12E-S1 27.10 28.43 62.90
11781 2019-07-27 10:14:38 ESP12E-S1 26.80 28.34 67.50
11780 2019-07-27 09:46:10 ESP12E-S1 26.00 27.18 66.80
11779 2019-07-27 09:17:46 ESP12E-S1 26.10 27.19 64.00
11778 2019-07-27 08:49:13 ESP12E-S1 25.10 25.45 68.50
11777 2019-07-27 08:20:47 ESP12E-S1 25.00 25.33 68.10
11776 2019-07-27 07:52:22 ESP12E-S1 24.80 25.06 65.90
11775 2019-07-27 07:23:57 ESP12E-S1 25.00 25.17 61.70
11774 2019-07-27 06:55:33 ESP12E-S1 25.40 25.43 54.80
11773 2019-07-27 06:27:09 ESP12E-S1 25.80 25.81 52.70
11772 2019-07-27 05:58:44 ESP12E-S1 25.90 25.90 51.80
11771 2019-07-27 05:30:19 ESP12E-S1 25.80 25.75 50.20
11770 2019-07-27 05:01:55 ESP12E-S1 26.20 26.65 48.30
11769 2019-07-27 04:33:32 ESP12E-S1 26.60 26.82 45.30
11768 2019-07-27 04:05:09 ESP12E-S1 27.10 27.11 43.30
11767 2019-07-27 03:36:46 ESP12E-S1 27.40 27.34 43.00
11766 2019-07-27 03:08:22 ESP12E-S1 27.60 27.46 42.20
11765 2019-07-27 02:40:00 ESP12E-S1 28.00 27.75 41.30
11764 2019-07-27 02:11:36 ESP12E-S1 28.40 28.12 41.30
11763 2019-07-27 01:43:13 ESP12E-S1 28.70 28.35 40.50
11762 2019-07-27 01:14:49 ESP12E-S1 28.90 28.53 40.30
11761 2019-07-27 00:46:26 ESP12E-S1 29.30 28.89 39.70
11760 2019-07-27 00:18:02 ESP12E-S1 29.60 29.13 38.90
11759 2019-07-26 23:49:39 ESP12E-S1 29.80 29.27 38.20
11758 2019-07-26 23:21:16 ESP12E-S1 30.10 29.49 37.20
11757 2019-07-26 22:52:52 ESP12E-S1 30.40 29.75 36.50
11756 2019-07-26 22:24:34 ESP12E-S1 30.80 30.19 36.40
11755 2019-07-26 21:56:10 ESP12E-S1 31.20 30.68 36.50
11754 2019-07-26 21:27:46 ESP12E-S1 31.50 31.15 37.20
11753 2019-07-26 20:59:24 ESP12E-S1 31.90 31.77 37.80
11752 2019-07-26 20:31:00 ESP12E-S1 32.30 32.15 36.80
11751 2019-07-26 20:02:37 ESP12E-S1 32.60 32.93 38.80
11750 2019-07-26 19:34:20 ESP12E-S1 33.00 33.45 38.40
11749 2019-07-26 19:05:57 ESP12E-S1 33.50 34.52 39.70
11748 2019-07-26 18:37:37 ESP12E-S1 34.20 34.97 36.80
11747 2019-07-26 18:09:14 ESP12E-S1 34.70 35.64 36.20
11746 2019-07-26 17:40:53 ESP12E-S1 35.40 36.02 33.20
11745 2019-07-26 17:12:32 ESP12E-S1 36.20 37.37 33.30
11744 2019-07-26 16:44:06 ESP12E-S1 36.10 36.76 31.70
11743 2019-07-26 16:15:44 ESP12E-S1 36.70 38.02 32.60
11742 2019-07-26 15:47:21 ESP12E-S1 37.10 38.47 31.80
11741 2019-07-26 15:19:05 ESP12E-S1 38.30 40.52 31.50
11740 2019-07-26 14:50:41 ESP12E-S1 38.80 41.10 30.60
11739 2019-07-26 14:22:18 ESP12E-S1 38.90 41.33 30.70
11738 2019-07-26 13:53:58 ESP12E-S1 39.30 41.84 30.10
11737 2019-07-26 13:25:30 ESP12E-S1 39.20 41.41 29.50
11736 2019-07-26 12:56:58 ESP12E-S1 37.20 38.67 31.90
11735 2019-07-26 12:28:31 ESP12E-S1 35.90 36.41 31.60
11734 2019-07-26 12:00:04 ESP12E-S1 35.50 36.29 33.60
11733 2019-07-26 11:31:37 ESP12E-S1 34.60 35.28 35.40
11732 2019-07-26 11:03:04 ESP12E-S1 33.20 33.47 37.00
11731 2019-07-26 10:34:23 ESP12E-S1 31.40 31.36 39.50
11730 2019-07-26 10:05:50 ESP12E-S1 30.30 29.82 38.10
11729 2019-07-26 09:37:22 ESP12E-S1 29.20 28.82 40.10
11728 2019-07-26 09:08:49 ESP12E-S1 28.20 28.04 42.70
11727 2019-07-26 08:40:18 ESP12E-S1 27.20 27.01 40.00
11726 2019-07-26 08:11:52 ESP12E-S1 27.10 27.10 43.00
11725 2019-07-26 07:43:27 ESP12E-S1 26.80 26.75 40.70
11724 2019-07-26 07:15:00 ESP12E-S1 26.70 26.68 40.70
11723 2019-07-26 06:46:35 ESP12E-S1 26.60 26.62 40.90
11722 2019-07-26 06:18:12 ESP12E-S1 26.60 26.63 41.10
11721 2019-07-26 05:49:50 ESP12E-S1 26.70 26.67 40.50
11720 2019-07-26 05:21:25 ESP12E-S1 26.70 26.76 42.40
11719 2019-07-26 04:53:03 ESP12E-S1 27.10 27.02 41.50
11718 2019-07-26 04:24:40 ESP12E-S1 27.40 27.19 40.50
11717 2019-07-26 03:56:18 ESP12E-S1 27.80 27.52 40.50
11716 2019-07-26 03:27:55 ESP12E-S1 28.10 27.75 40.00
11715 2019-07-26 02:59:31 ESP12E-S1 28.30 27.86 39.00
11714 2019-07-26 02:31:10 ESP12E-S1 28.50 28.05 39.10
11713 2019-07-26 02:02:48 ESP12E-S1 28.80 28.37 39.60
11712 2019-07-26 01:34:26 ESP12E-S1 29.30 28.82 39.00
11711 2019-07-26 01:06:04 ESP12E-S1 29.60 29.07 38.30
11710 2019-07-26 00:37:40 ESP12E-S1 30.00 29.49 38.20
11709 2019-07-26 00:09:17 ESP12E-S1 30.20 29.61 37.30
11708 2019-07-25 23:40:55 ESP12E-S1 30.60 30.15 38.00
11707 2019-07-25 23:12:31 ESP12E-S1 30.90 30.25 35.90
11706 2019-07-25 22:44:07 ESP12E-S1 31.10 30.86 38.70
11705 2019-07-25 22:15:44 ESP12E-S1 31.50 31.17 37.30
11704 2019-07-25 21:47:23 ESP12E-S1 31.90 31.62 36.90
11703 2019-07-25 21:19:01 ESP12E-S1 32.40 31.89 34.40
11702 2019-07-25 20:50:38 ESP12E-S1 32.80 33.25 38.90
11701 2019-07-25 20:22:18 ESP12E-S1 33.50 34.05 37.60
11700 2019-07-25 19:53:57 ESP12E-S1 34.10 34.63 36.00
11699 2019-07-25 19:25:38 ESP12E-S1 34.90 35.21 33.10
11698 2019-07-25 18:57:20 ESP12E-S1 35.60 35.62 30.30
11697 2019-07-25 18:28:58 ESP12E-S1 36.10 36.17 29.40
11696 2019-07-25 18:00:37 ESP12E-S1 36.50 36.89 29.80
11695 2019-07-25 17:32:17 ESP12E-S1 36.90 37.45 29.50
11694 2019-07-25 17:03:54 ESP12E-S1 37.30 38.82 31.80
11693 2019-07-25 16:35:33 ESP12E-S1 37.70 40.46 34.40
11692 2019-07-25 16:07:14 ESP12E-S1 38.30 41.20 33.30
11691 2019-07-25 15:38:56 ESP12E-S1 39.80 42.62 29.70
11690 2019-07-25 15:10:30 ESP12E-S1 39.60 43.88 33.40
11689 2019-07-25 14:42:07 ESP12E-S1 40.00 44.19 32.30
11688 2019-07-25 14:13:46 ESP12E-S1 40.10 43.33 30.00
11687 2019-07-25 14:13:46 ESP12E-S1 40.30 45.63 33.90
11686 2019-07-25 13:16:59 ESP12E-S1 39.70 44.61 34.50
11685 2019-07-25 12:48:14 ESP12E-S1 36.70 40.58 40.00
11684 2019-07-25 12:19:52 ESP12E-S1 36.30 40.01 40.70
11683 2019-07-25 11:51:24 ESP12E-S1 35.60 38.55 40.60
11682 2019-07-25 11:22:52 ESP12E-S1 34.30 37.46 45.20
11681 2019-07-25 10:54:15 ESP12E-S1 32.70 36.42 52.60
11680 2019-07-25 10:25:36 ESP12E-S1 30.70 32.47 51.80
11679 2019-07-25 09:57:02 ESP12E-S1 29.20 31.28 59.40
11678 2019-07-25 09:28:32 ESP12E-S1 27.90 29.30 60.00
11677 2019-07-25 08:59:56 ESP12E-S1 26.50 27.71 64.30
11676 2019-07-25 08:31:30 ESP12E-S1 25.70 26.86 69.30
11675 2019-07-25 08:03:02 ESP12E-S1 25.20 25.40 62.40
11674 2019-07-25 07:34:39 ESP12E-S1 24.70 24.82 61.20
11673 2019-07-25 07:06:12 ESP12E-S1 24.40 24.44 59.10
11672 2019-07-25 06:37:47 ESP12E-S1 24.40 24.38 57.00
11671 2019-07-25 06:09:24 ESP12E-S1 24.40 24.35 55.90
11670 2019-07-25 05:41:02 ESP12E-S1 24.90 24.85 53.80
11669 2019-07-25 05:12:40 ESP12E-S1 25.20 25.16 53.10
11668 2019-07-25 04:44:18 ESP12E-S1 25.60 25.58 52.30
11667 2019-07-25 04:15:54 ESP12E-S1 25.70 25.69 52.40
11666 2019-07-25 03:47:32 ESP12E-S1 26.00 25.99 51.00
11665 2019-07-25 03:19:11 ESP12E-S1 26.40 26.92 50.70
11664 2019-07-25 02:50:50 ESP12E-S1 26.70 27.16 50.30
11663 2019-07-25 02:22:28 ESP12E-S1 26.90 27.32 50.00
11662 2019-07-25 01:54:06 ESP12E-S1 27.20 27.58 49.50
11661 2019-07-25 01:25:43 ESP12E-S1 27.40 27.71 48.60
11660 2019-07-25 00:57:20 ESP12E-S1 27.60 27.90 48.50
11659 2019-07-25 00:28:57 ESP12E-S1 27.90 28.11 47.30
11658 2019-07-25 00:00:34 ESP12E-S1 28.20 28.43 47.30
11657 2019-07-24 23:32:11 ESP12E-S1 28.50 28.77 47.40
11656 2019-07-24 23:03:49 ESP12E-S1 28.90 29.20 47.10
11655 2019-07-24 22:35:27 ESP12E-S1 29.20 29.46 46.20
11654 2019-07-24 22:07:05 ESP12E-S1 29.60 30.01 46.60
11653 2019-07-24 21:38:44 ESP12E-S1 30.20 30.68 45.70
11652 2019-07-24 21:10:23 ESP12E-S1 30.90 31.84 46.70
11651 2019-07-24 20:42:04 ESP12E-S1 31.80 33.51 47.80
11650 2019-07-24 20:13:46 ESP12E-S1 32.80 34.12 43.00
11649 2019-07-24 19:45:23 ESP12E-S1 33.20 33.19 35.60
11648 2019-07-24 19:17:01 ESP12E-S1 33.60 33.78 35.60
11647 2019-07-24 18:48:39 ESP12E-S1 33.90 34.19 35.40
11646 2019-07-24 18:20:16 ESP12E-S1 34.20 35.00 36.90
11645 2019-07-24 17:51:58 ESP12E-S1 34.60 35.45 36.10
11644 2019-07-24 17:23:35 ESP12E-S1 35.00 35.65 34.30
11643 2019-07-24 16:55:11 ESP12E-S1 35.20 36.35 35.70
11642 2019-07-24 16:26:47 ESP12E-S1 35.30 36.54 35.80
11641 2019-07-24 15:58:25 ESP12E-S1 35.50 37.32 37.30
11640 2019-07-24 15:30:03 ESP12E-S1 35.90 37.77 36.40
11639 2019-07-24 15:01:39 ESP12E-S1 36.10 38.01 36.00
11638 2019-07-24 14:33:15 ESP12E-S1 36.20 38.10 35.70
11637 2019-07-24 14:04:49 ESP12E-S1 36.10 38.83 38.50
11636 2019-07-24 13:36:25 ESP12E-S1 36.00 38.77 38.90
11635 2019-07-24 13:07:58 ESP12E-S1 35.10 36.93 38.40
11634 2019-07-24 12:39:29 ESP12E-S1 33.90 35.44 40.70
11633 2019-07-24 12:11:06 ESP12E-S1 33.70 36.04 44.30
11632 2019-07-24 11:42:37 ESP12E-S1 32.80 35.06 46.90
11631 2019-07-24 11:14:07 ESP12E-S1 31.70 33.42 48.20
11630 2019-07-24 10:45:31 ESP12E-S1 30.00 31.05 50.00
11629 2019-07-24 10:16:56 ESP12E-S1 28.50 29.14 51.00
11628 2019-07-24 09:48:25 ESP12E-S1 27.40 27.98 52.30
11627 2019-07-24 09:19:52 ESP12E-S1 26.30 27.08 56.20
11626 2019-07-24 08:51:18 ESP12E-S1 25.00 24.99 55.10
11625 2019-07-24 08:22:49 ESP12E-S1 24.30 24.21 54.50
11624 2019-07-24 07:54:22 ESP12E-S1 23.80 23.75 57.90
11623 2019-07-24 07:25:56 ESP12E-S1 23.50 23.44 58.90
11622 2019-07-24 06:57:32 ESP12E-S1 23.30 23.18 57.40
11621 2019-07-24 06:29:08 ESP12E-S1 23.40 23.19 53.50
11620 2019-07-24 06:00:45 ESP12E-S1 23.60 23.43 54.00
11619 2019-07-24 05:32:22 ESP12E-S1 23.90 23.72 52.60
11618 2019-07-24 05:04:00 ESP12E-S1 24.20 24.04 52.30
11617 2019-07-24 04:35:38 ESP12E-S1 24.70 24.54 50.50
11616 2019-07-24 04:07:15 ESP12E-S1 25.00 24.86 50.00
11615 2019-07-24 03:38:52 ESP12E-S1 25.20 25.07 49.50
11614 2019-07-24 03:10:29 ESP12E-S1 25.40 25.30 50.10
11613 2019-07-24 02:42:06 ESP12E-S1 25.50 25.41 49.90
11612 2019-07-24 02:13:43 ESP12E-S1 25.70 25.63 49.80
11611 2019-07-24 01:45:21 ESP12E-S1 25.90 25.85 49.90
11610 2019-07-24 01:16:57 ESP12E-S1 26.00 25.95 49.70
11609 2019-07-24 00:48:34 ESP12E-S1 26.20 26.67 48.90
11608 2019-07-24 00:20:11 ESP12E-S1 26.20 26.65 48.40
11607 2019-07-23 23:51:49 ESP12E-S1 26.40 26.85 49.20
11606 2019-07-23 23:23:32 ESP12E-S1 26.80 27.17 48.80
11605 2019-07-23 22:55:08 ESP12E-S1 27.30 27.58 48.10
11604 2019-07-23 22:26:47 ESP12E-S1 27.80 28.04 47.70
11603 2019-07-23 21:58:26 ESP12E-S1 28.30 28.51 47.00
11602 2019-07-23 21:30:05 ESP12E-S1 28.90 29.14 46.50
11601 2019-07-23 21:01:45 ESP12E-S1 29.60 29.77 44.70
11600 2019-07-23 20:33:25 ESP12E-S1 30.10 30.26 43.60
11599 2019-07-23 20:05:04 ESP12E-S1 30.70 30.59 40.40
11598 2019-07-23 19:36:41 ESP12E-S1 30.90 30.84 40.40
11597 2019-07-23 19:08:19 ESP12E-S1 31.20 31.00 38.80
11596 2019-07-23 18:39:57 ESP12E-S1 31.60 31.48 38.50
11595 2019-07-23 18:11:37 ESP12E-S1 32.10 32.28 39.20
11594 2019-07-23 17:43:14 ESP12E-S1 32.50 32.67 38.20
11593 2019-07-23 17:14:50 ESP12E-S1 32.70 33.28 39.80
11592 2019-07-23 16:46:26 ESP12E-S1 32.70 33.50 40.90
11591 2019-07-23 16:18:02 ESP12E-S1 32.90 33.40 38.90
11590 2019-07-23 15:49:40 ESP12E-S1 33.30 33.85 38.10
11589 2019-07-23 15:21:20 ESP12E-S1 33.50 34.36 39.00
11588 2019-07-23 14:52:56 ESP12E-S1 33.70 34.99 40.30
11587 2019-07-23 14:24:32 ESP12E-S1 34.00 36.15 42.70
11586 2019-07-23 13:56:09 ESP12E-S1 34.10 35.50 39.60
11585 2019-07-23 13:27:42 ESP12E-S1 33.80 35.52 41.70
11584 2019-07-23 12:59:10 ESP12E-S1 32.30 33.83 45.40
11583 2019-07-23 12:30:46 ESP12E-S1 31.50 32.57 45.60
11582 2019-07-23 12:02:21 ESP12E-S1 31.00 31.98 46.60
11581 2019-07-23 11:33:56 ESP12E-S1 30.30 31.47 49.80
11580 2019-07-23 11:05:25 ESP12E-S1 29.20 30.23 52.30
11579 2019-07-23 10:36:44 ESP12E-S1 27.40 28.03 53.00
11578 2019-07-23 10:08:13 ESP12E-S1 26.00 26.09 54.80
11577 2019-07-23 09:39:44 ESP12E-S1 24.90 24.97 58.40
11576 2019-07-23 09:11:08 ESP12E-S1 23.60 23.69 64.10
11575 2019-07-23 08:42:35 ESP12E-S1 22.30 22.26 64.00
11574 2019-07-23 08:14:08 ESP12E-S1 21.60 21.65 70.30
11573 2019-07-23 07:45:42 ESP12E-S1 21.30 21.36 71.80
11572 2019-07-23 07:17:16 ESP12E-S1 20.90 20.83 68.50
11571 2019-07-23 06:48:53 ESP12E-S1 20.70 20.57 66.80
11570 2019-07-23 06:20:31 ESP12E-S1 20.90 20.69 62.90
11569 2019-07-23 05:52:09 ESP12E-S1 21.20 20.94 60.00
11568 2019-07-23 05:23:46 ESP12E-S1 21.50 21.26 59.60
11567 2019-07-23 04:55:25 ESP12E-S1 21.80 21.56 58.50
11566 2019-07-23 04:27:02 ESP12E-S1 22.00 21.76 57.50
11565 2019-07-23 03:58:39 ESP12E-S1 22.30 22.06 56.60
11564 2019-07-23 03:30:16 ESP12E-S1 22.40 22.15 55.90
11563 2019-07-23 03:01:53 ESP12E-S1 22.40 22.15 55.60
11562 2019-07-23 02:33:31 ESP12E-S1 22.50 22.25 55.20
11561 2019-07-23 02:05:08 ESP12E-S1 22.80 22.56 54.60
11560 2019-07-23 01:36:46 ESP12E-S1 23.30 23.08 53.40
11559 2019-07-23 01:08:25 ESP12E-S1 23.50 23.29 53.10
11558 2019-07-23 00:40:05 ESP12E-S1 24.00 23.81 51.80
11557 2019-07-23 00:11:40 ESP12E-S1 24.20 23.99 50.30
11556 2019-07-22 23:43:20 ESP12E-S1 24.50 24.33 50.80
11555 2019-07-22 23:15:04 ESP12E-S1 24.70 24.52 49.70
11554 2019-07-22 22:46:42 ESP12E-S1 25.10 24.95 49.10
11553 2019-07-22 22:18:21 ESP12E-S1 25.50 25.37 48.40
11552 2019-07-22 21:50:01 ESP12E-S1 25.90 25.81 48.30
11551 2019-07-22 21:21:42 ESP12E-S1 26.40 26.78 47.60
11550 2019-07-22 20:53:22 ESP12E-S1 27.10 27.37 47.80
11549 2019-07-22 20:25:01 ESP12E-S1 27.50 27.78 48.20
11548 2019-07-22 19:56:41 ESP12E-S1 28.10 28.28 46.80
11547 2019-07-22 19:28:20 ESP12E-S1 28.50 28.35 42.80
11546 2019-07-22 19:00:00 ESP12E-S1 28.90 28.76 42.80
11545 2019-07-22 18:31:38 ESP12E-S1 29.30 29.15 42.30
11544 2019-07-22 18:03:16 ESP12E-S1 29.40 29.01 39.90
11543 2019-07-22 17:34:54 ESP12E-S1 29.70 29.55 41.80
11542 2019-07-22 17:06:31 ESP12E-S1 29.90 29.86 42.40
11541 2019-07-22 16:38:12 ESP12E-S1 29.90 29.75 41.50
11540 2019-07-22 16:09:50 ESP12E-S1 30.70 30.74 41.50
11539 2019-07-22 15:41:28 ESP12E-S1 31.20 31.45 41.80
11538 2019-07-22 15:13:04 ESP12E-S1 31.10 31.41 42.40
11537 2019-07-22 14:44:42 ESP12E-S1 31.00 31.03 40.80
11536 2019-07-22 14:16:16 ESP12E-S1 30.80 31.11 43.10
11535 2019-07-22 13:47:52 ESP12E-S1 30.60 30.84 43.10
11534 2019-07-22 13:19:17 ESP12E-S1 29.70 30.40 48.50
11533 2019-07-22 12:50:51 ESP12E-S1 28.50 29.05 50.20
11532 2019-07-22 12:22:30 ESP12E-S1 28.30 28.72 49.30
11531 2019-07-22 11:54:02 ESP12E-S1 27.40 28.24 55.70
11530 2019-07-22 11:25:32 ESP12E-S1 26.20 27.05 57.90
11529 2019-07-22 10:56:51 ESP12E-S1 24.70 24.76 58.60
11528 2019-07-22 10:28:22 ESP12E-S1 23.80 23.80 59.90
11527 2019-07-22 09:59:52 ESP12E-S1 22.90 22.88 62.50
11526 2019-07-22 09:31:27 ESP12E-S1 22.40 22.36 63.70
11525 2019-07-22 09:02:59 ESP12E-S1 21.20 21.15 67.80
11524 2019-07-22 08:34:29 ESP12E-S1 20.30 20.38 76.20
11523 2019-07-22 08:06:03 ESP12E-S1 19.80 19.69 70.90
11522 2019-07-22 07:37:38 ESP12E-S1 19.60 19.46 70.80
11521 2019-07-22 07:09:14 ESP12E-S1 19.30 19.17 72.00
11520 2019-07-22 06:40:52 ESP12E-S1 19.30 19.05 67.70
11519 2019-07-22 06:12:28 ESP12E-S1 19.20 18.89 65.50
11518 2019-07-22 05:44:05 ESP12E-S1 19.40 19.06 63.80
11517 2019-07-22 05:15:43 ESP12E-S1 19.60 19.25 62.70
11516 2019-07-22 04:47:23 ESP12E-S1 19.80 19.44 61.60
11515 2019-07-22 04:19:00 ESP12E-S1 19.90 19.53 60.80
11514 2019-07-22 03:50:37 ESP12E-S1 20.20 19.83 59.70
11513 2019-07-22 03:22:14 ESP12E-S1 20.30 19.91 58.50
11512 2019-07-22 02:53:51 ESP12E-S1 20.40 20.01 58.10
11511 2019-07-22 02:25:28 ESP12E-S1 20.50 20.11 57.70
11510 2019-07-22 01:57:05 ESP12E-S1 20.70 20.35 58.40
11509 2019-07-22 01:28:46 ESP12E-S1 21.00 20.68 58.40
11508 2019-07-22 01:00:24 ESP12E-S1 21.40 21.12 58.20
11507 2019-07-22 00:32:01 ESP12E-S1 21.70 21.41 56.90
11506 2019-07-22 00:03:40 ESP12E-S1 22.00 21.73 56.60
11505 2019-07-21 23:35:20 ESP12E-S1 22.50 22.26 55.60
11504 2019-07-21 23:07:00 ESP12E-S1 23.10 22.87 53.80
11503 2019-07-21 22:38:38 ESP12E-S1 23.60 23.41 53.40
11502 2019-07-21 22:10:17 ESP12E-S1 24.00 23.83 52.80
11501 2019-07-21 21:41:57 ESP12E-S1 24.50 24.38 52.50
11500 2019-07-21 21:13:36 ESP12E-S1 24.70 24.61 53.20
11499 2019-07-21 20:45:16 ESP12E-S1 25.20 25.14 52.10
11498 2019-07-21 20:16:56 ESP12E-S1 25.80 25.78 51.60
11497 2019-07-21 19:48:36 ESP12E-S1 26.40 26.83 48.80
11496 2019-07-21 19:20:16 ESP12E-S1 26.90 27.21 48.00
11495 2019-07-21 18:51:53 ESP12E-S1 27.30 27.55 47.70
11494 2019-07-21 18:23:31 ESP12E-S1 27.60 27.78 46.80
11493 2019-07-21 17:55:10 ESP12E-S1 28.00 28.09 45.80
11492 2019-07-21 17:26:50 ESP12E-S1 28.40 28.37 44.30
11491 2019-07-21 16:58:27 ESP12E-S1 28.70 28.90 46.40
11490 2019-07-21 16:30:07 ESP12E-S1 28.80 28.93 45.60
11489 2019-07-21 16:01:44 ESP12E-S1 28.90 28.95 44.70
11488 2019-07-21 15:33:19 ESP12E-S1 29.10 29.23 45.20
11487 2019-07-21 15:05:01 ESP12E-S1 29.80 29.54 40.70
11486 2019-07-21 14:36:36 ESP12E-S1 29.80 29.71 42.20
11485 2019-07-21 14:08:15 ESP12E-S1 29.40 29.60 45.30
11484 2019-07-21 13:39:52 ESP12E-S1 29.70 29.76 43.60
11483 2019-07-21 13:11:18 ESP12E-S1 29.10 29.34 46.20
11482 2019-07-21 12:42:53 ESP12E-S1 28.30 28.54 47.30
11481 2019-07-21 12:14:25 ESP12E-S1 27.50 27.93 50.30
11480 2019-07-21 11:45:52 ESP12E-S1 26.20 26.82 52.40
11479 2019-07-21 11:17:32 ESP12E-S1 26.70 27.35 53.80
11478 2019-07-21 10:49:04 ESP12E-S1 25.60 25.67 55.90
11477 2019-07-21 10:20:30 ESP12E-S1 24.40 24.45 59.40
11476 2019-07-21 09:52:04 ESP12E-S1 23.60 23.74 65.90
11475 2019-07-21 09:23:33 ESP12E-S1 22.50 22.59 68.50
11474 2019-07-21 08:55:01 ESP12E-S1 21.30 21.39 73.00
11473 2019-07-21 08:26:40 ESP12E-S1 20.80 20.90 75.10
11472 2019-07-21 07:58:17 ESP12E-S1 20.90 21.00 74.80
11471 2019-07-21 07:29:53 ESP12E-S1 20.80 20.83 72.40
11470 2019-07-21 07:01:30 ESP12E-S1 20.90 20.92 71.80
11469 2019-07-21 06:33:07 ESP12E-S1 20.90 20.91 71.30
11468 2019-07-21 06:04:43 ESP12E-S1 21.00 20.98 70.00
11467 2019-07-21 05:36:20 ESP12E-S1 21.10 21.12 70.90
11466 2019-07-21 05:07:58 ESP12E-S1 21.20 21.22 70.80
11465 2019-07-21 04:39:37 ESP12E-S1 21.30 21.41 73.80
11464 2019-07-21 04:11:14 ESP12E-S1 21.40 21.61 77.30
11463 2019-07-21 03:42:51 ESP12E-S1 21.30 21.48 76.40
11462 2019-07-21 03:14:29 ESP12E-S1 21.50 21.66 74.80
11461 2019-07-21 02:46:07 ESP12E-S1 21.70 21.84 73.40
11460 2019-07-21 02:17:45 ESP12E-S1 22.00 22.10 70.80
11459 2019-07-21 01:49:25 ESP12E-S1 22.60 22.70 68.40
11458 2019-07-21 01:21:05 ESP12E-S1 23.10 23.20 66.60
11457 2019-07-21 00:52:45 ESP12E-S1 23.40 23.41 61.70
11456 2019-07-21 00:24:22 ESP12E-S1 23.70 23.68 59.40
11455 2019-07-20 23:55:58 ESP12E-S1 24.00 23.98 58.30
11454 2019-07-20 23:27:36 ESP12E-S1 24.20 24.17 57.20
11453 2019-07-20 22:59:14 ESP12E-S1 24.60 24.56 55.40
11452 2019-07-20 22:30:53 ESP12E-S1 24.90 24.87 54.60
11451 2019-07-20 22:02:32 ESP12E-S1 25.40 25.45 55.60
11450 2019-07-20 21:34:12 ESP12E-S1 26.10 26.91 56.90
11449 2019-07-20 21:05:56 ESP12E-S1 27.10 27.78 54.10
11448 2019-07-20 20:37:35 ESP12E-S1 27.60 27.78 46.90
11447 2019-07-20 20:09:13 ESP12E-S1 27.70 27.82 46.10
11446 2019-07-20 19:40:52 ESP12E-S1 28.20 28.28 45.60
11445 2019-07-20 19:12:31 ESP12E-S1 28.50 28.77 47.40
11444 2019-07-20 18:44:10 ESP12E-S1 28.80 29.06 46.90
11443 2019-07-20 18:15:48 ESP12E-S1 29.20 29.50 46.50
11442 2019-07-20 17:47:26 ESP12E-S1 29.20 29.80 49.00
11441 2019-07-20 17:19:03 ESP12E-S1 29.20 29.63 47.60
11440 2019-07-20 16:50:37 ESP12E-S1 29.20 30.41 53.60
11439 2019-07-20 16:22:14 ESP12E-S1 29.20 30.43 53.80
11438 2019-07-20 15:53:49 ESP12E-S1 29.00 30.14 53.80
11437 2019-07-20 15:25:18 ESP12E-S1 27.90 29.08 57.90
11436 2019-07-20 14:56:55 ESP12E-S1 27.70 28.76 57.30
11435 2019-07-20 14:28:35 ESP12E-S1 28.10 29.41 58.30
11434 2019-07-20 14:00:13 ESP12E-S1 27.90 28.85 55.60
11433 2019-07-20 13:31:54 ESP12E-S1 28.20 29.62 58.90
11432 2019-07-20 13:03:29 ESP12E-S1 28.00 29.15 57.20
11431 2019-07-20 12:35:09 ESP12E-S1 28.40 29.98 59.40
11430 2019-07-20 12:06:43 ESP12E-S1 27.80 29.44 62.70
11429 2019-07-20 11:38:17 ESP12E-S1 26.90 28.56 68.40
11428 2019-07-20 11:09:48 ESP12E-S1 25.90 27.14 69.60
11427 2019-07-20 10:41:13 ESP12E-S1 24.50 24.98 75.80
11426 2019-07-20 10:12:40 ESP12E-S1 23.20 23.65 79.40
11425 2019-07-20 09:44:15 ESP12E-S1 22.10 22.51 82.10
11424 2019-07-20 09:15:41 ESP12E-S1 21.10 21.56 87.90
11423 2019-07-20 08:47:10 ESP12E-S1 19.70 20.14 92.40
11422 2019-07-20 08:18:43 ESP12E-S1 19.10 19.52 94.10
11421 2019-07-20 07:50:18 ESP12E-S1 18.50 18.86 94.00
11420 2019-07-20 07:21:53 ESP12E-S1 18.30 18.66 94.70
11419 2019-07-20 06:53:30 ESP12E-S1 18.10 18.42 93.90
11418 2019-07-20 06:25:07 ESP12E-S1 18.10 18.38 92.60
11417 2019-07-20 05:56:44 ESP12E-S1 18.10 18.35 91.40
11416 2019-07-20 05:28:21 ESP12E-S1 18.30 18.55 90.70
11415 2019-07-20 04:59:59 ESP12E-S1 18.30 18.53 89.80
11414 2019-07-20 04:31:39 ESP12E-S1 18.50 18.69 87.50
11413 2019-07-20 04:03:17 ESP12E-S1 18.60 18.77 86.20
11412 2019-07-20 03:34:57 ESP12E-S1 18.70 18.84 85.00
11411 2019-07-20 03:06:36 ESP12E-S1 19.00 19.11 82.70
11410 2019-07-20 02:38:17 ESP12E-S1 19.20 19.31 81.60
11409 2019-07-20 02:09:55 ESP12E-S1 19.50 19.58 79.30
11408 2019-07-20 01:41:36 ESP12E-S1 19.60 19.65 78.10
11407 2019-07-20 01:13:15 ESP12E-S1 19.90 19.94 76.20
11406 2019-07-20 00:44:54 ESP12E-S1 20.10 20.12 74.80
11405 2019-07-20 00:16:32 ESP12E-S1 20.40 20.42 73.70
11404 2019-07-19 23:48:09 ESP12E-S1 20.50 20.47 71.40
11403 2019-07-19 23:19:51 ESP12E-S1 20.70 20.65 70.00
11402 2019-07-19 22:51:30 ESP12E-S1 21.00 20.93 67.90
11401 2019-07-19 22:23:09 ESP12E-S1 21.40 21.34 66.80
11400 2019-07-19 21:54:49 ESP12E-S1 21.90 21.83 64.70
11399 2019-07-19 21:26:29 ESP12E-S1 22.40 22.34 62.90
11398 2019-07-19 20:58:09 ESP12E-S1 23.00 22.91 59.40
11397 2019-07-19 20:29:50 ESP12E-S1 23.50 23.40 57.30
11396 2019-07-19 20:01:26 ESP12E-S1 23.60 23.48 56.00
11395 2019-07-19 19:33:03 ESP12E-S1 23.90 23.78 55.10
11394 2019-07-19 19:04:41 ESP12E-S1 24.10 24.01 55.20
11393 2019-07-19 18:36:24 ESP12E-S1 24.30 24.18 53.50
11392 2019-07-19 18:08:02 ESP12E-S1 24.70 24.64 54.10
11391 2019-07-19 17:39:39 ESP12E-S1 24.90 24.92 56.50
11390 2019-07-19 17:11:14 ESP12E-S1 24.70 24.77 59.10
11389 2019-07-19 16:42:55 ESP12E-S1 25.20 25.23 55.90
11388 2019-07-19 16:14:33 ESP12E-S1 25.40 25.48 56.80
11387 2019-07-19 15:46:09 ESP12E-S1 25.50 25.65 59.00
11386 2019-07-19 15:17:43 ESP12E-S1 25.30 25.50 61.90
11385 2019-07-19 14:49:15 ESP12E-S1 24.40 24.64 66.80
11384 2019-07-19 14:20:53 ESP12E-S1 24.20 24.51 70.20
11383 2019-07-19 13:52:30 ESP12E-S1 24.70 25.06 70.40
11382 2019-07-19 13:23:49 ESP12E-S1 22.90 23.51 86.80
11381 2019-07-19 12:55:23 ESP12E-S1 21.70 22.26 89.40
11380 2019-07-19 12:27:08 ESP12E-S1 22.70 23.38 90.20
11379 2019-07-19 11:58:37 ESP12E-S1 21.40 22.01 92.50
11378 2019-07-19 11:30:15 ESP12E-S1 21.00 21.59 93.40
11377 2019-07-19 11:01:50 ESP12E-S1 20.30 20.87 95.10
11376 2019-07-19 10:33:21 ESP12E-S1 19.40 19.93 97.20
11375 2019-07-19 10:04:57 ESP12E-S1 19.30 19.82 97.10
11374 2019-07-19 09:36:33 ESP12E-S1 19.00 19.46 96.10
11373 2019-07-19 09:08:10 ESP12E-S1 18.80 19.32 99.00
11372 2019-07-19 08:39:47 ESP12E-S1 18.70 19.21 99.00
11371 2019-07-19 08:11:27 ESP12E-S1 18.70 19.18 97.80
11370 2019-07-19 07:43:05 ESP12E-S1 18.60 19.04 96.60
11369 2019-07-19 07:14:44 ESP12E-S1 18.80 19.20 94.40
11368 2019-07-19 06:46:23 ESP12E-S1 19.00 19.38 92.70
11367 2019-07-19 06:18:00 ESP12E-S1 19.10 19.45 91.30
11366 2019-07-19 05:49:39 ESP12E-S1 19.20 19.37 84.20
11365 2019-07-19 05:21:18 ESP12E-S1 19.30 19.49 84.50
11364 2019-07-19 04:52:57 ESP12E-S1 19.50 19.76 86.40
11363 2019-07-19 04:24:36 ESP12E-S1 19.60 19.82 84.30
11362 2019-07-19 03:56:14 ESP12E-S1 19.90 20.00 78.70
11361 2019-07-19 03:27:53 ESP12E-S1 20.20 20.09 69.40
11360 2019-07-19 02:59:33 ESP12E-S1 20.30 20.02 62.60
11359 2019-07-19 02:31:13 ESP12E-S1 20.50 20.17 60.00
11358 2019-07-19 02:02:52 ESP12E-S1 20.60 20.29 60.30
11357 2019-07-19 01:34:29 ESP12E-S1 20.50 20.16 59.40
11356 2019-07-19 01:06:07 ESP12E-S1 20.60 20.27 59.60
11355 2019-07-19 00:37:47 ESP12E-S1 20.70 20.35 58.30
11354 2019-07-19 00:09:28 ESP12E-S1 20.90 20.57 58.40
11353 2019-07-18 23:41:07 ESP12E-S1 21.20 20.95 60.20
11352 2019-07-18 23:12:45 ESP12E-S1 21.40 21.18 60.70
11351 2019-07-18 22:44:24 ESP12E-S1 21.50 21.20 57.40
11350 2019-07-18 22:16:03 ESP12E-S1 21.90 21.68 58.90
11349 2019-07-18 21:47:44 ESP12E-S1 22.30 22.15 59.80
11348 2019-07-18 21:19:25 ESP12E-S1 22.90 22.75 57.80
11347 2019-07-18 20:51:06 ESP12E-S1 23.60 23.40 53.00
11346 2019-07-18 20:22:46 ESP12E-S1 24.10 23.90 51.30
11345 2019-07-18 19:54:26 ESP12E-S1 24.60 24.38 48.50
11344 2019-07-18 19:26:05 ESP12E-S1 25.20 25.01 47.20
11343 2019-07-18 18:57:44 ESP12E-S1 25.50 25.34 47.40
11342 2019-07-18 18:29:24 ESP12E-S1 25.90 25.72 44.90
11341 2019-07-18 18:01:01 ESP12E-S1 26.00 25.86 46.00
11340 2019-07-18 17:32:41 ESP12E-S1 26.40 26.60 43.70
11339 2019-07-18 17:04:27 ESP12E-S1 27.20 27.22 43.70
11338 2019-07-18 16:36:06 ESP12E-S1 27.80 27.70 43.10
11337 2019-07-18 16:07:42 ESP12E-S1 27.80 27.71 43.30
11336 2019-07-18 15:39:17 ESP12E-S1 27.50 27.56 45.00
11335 2019-07-18 15:10:47 ESP12E-S1 26.80 27.22 49.80
11334 2019-07-18 14:42:21 ESP12E-S1 26.80 27.29 51.10
11333 2019-07-18 14:14:04 ESP12E-S1 26.90 27.38 50.90
11332 2019-07-18 13:45:50 ESP12E-S1 27.30 27.71 50.10
11331 2019-07-18 13:17:24 ESP12E-S1 28.90 29.76 51.90
11330 2019-07-18 12:48:49 ESP12E-S1 26.90 27.61 54.80
11329 2019-07-18 12:20:21 ESP12E-S1 25.70 25.85 58.50
11328 2019-07-18 11:51:58 ESP12E-S1 24.90 25.05 61.40
11327 2019-07-18 11:23:32 ESP12E-S1 24.40 24.59 65.00
11326 2019-07-18 10:55:03 ESP12E-S1 22.60 22.77 71.20
11325 2019-07-18 10:26:27 ESP12E-S1 20.80 20.97 77.90
11324 2019-07-18 09:57:58 ESP12E-S1 19.50 19.69 83.70
11323 2019-07-18 09:29:31 ESP12E-S1 18.70 18.84 84.90
11322 2019-07-18 09:01:04 ESP12E-S1 18.10 18.21 86.10
11321 2019-07-18 08:32:38 ESP12E-S1 17.60 17.69 87.00
11320 2019-07-18 08:04:13 ESP12E-S1 17.10 17.15 87.50
11319 2019-07-18 07:35:49 ESP12E-S1 16.70 16.74 88.60
11318 2019-07-18 07:07:24 ESP12E-S1 16.30 16.25 86.90
11317 2019-07-18 06:39:03 ESP12E-S1 16.20 16.17 88.00
11316 2019-07-18 06:10:43 ESP12E-S1 16.30 16.23 85.80
11315 2019-07-18 05:42:21 ESP12E-S1 16.40 16.30 84.50
11314 2019-07-18 05:13:59 ESP12E-S1 16.50 16.40 83.90
11313 2019-07-18 04:45:38 ESP12E-S1 16.60 16.46 82.30
11312 2019-07-18 04:17:15 ESP12E-S1 16.60 16.45 81.60
11311 2019-07-18 03:48:54 ESP12E-S1 16.90 16.74 80.40
11310 2019-07-18 03:20:34 ESP12E-S1 17.10 16.90 77.80
11309 2019-07-18 02:52:13 ESP12E-S1 17.20 16.98 76.80
11308 2019-07-18 02:23:52 ESP12E-S1 17.40 17.16 75.30
11307 2019-07-18 01:55:31 ESP12E-S1 17.50 17.22 73.50
11306 2019-07-18 01:27:10 ESP12E-S1 17.80 17.51 71.90
11305 2019-07-18 00:58:49 ESP12E-S1 18.10 17.79 70.00
11304 2019-07-18 00:30:30 ESP12E-S1 18.50 18.21 69.00
11303 2019-07-18 00:02:10 ESP12E-S1 18.90 18.55 65.40
11302 2019-07-17 23:33:51 ESP12E-S1 19.50 19.16 63.30
11301 2019-07-17 23:05:31 ESP12E-S1 19.90 19.57 62.20
11300 2019-07-17 22:37:11 ESP12E-S1 20.40 20.06 60.00
11299 2019-07-17 22:08:51 ESP12E-S1 20.80 20.47 58.60
11298 2019-07-17 21:40:36 ESP12E-S1 21.30 20.93 55.40
11297 2019-07-17 21:12:16 ESP12E-S1 21.80 21.30 48.50
11296 2019-07-17 20:43:58 ESP12E-S1 22.30 21.80 46.40
11295 2019-07-17 20:15:39 ESP12E-S1 23.30 22.86 44.80
11294 2019-07-17 19:47:19 ESP12E-S1 23.80 23.47 47.40
11293 2019-07-17 19:18:58 ESP12E-S1 24.30 24.05 48.50
11292 2019-07-17 18:50:37 ESP12E-S1 24.70 24.51 49.20
11291 2019-07-17 18:22:18 ESP12E-S1 25.20 25.03 48.00
11290 2019-07-17 17:53:56 ESP12E-S1 25.50 25.40 49.40
11289 2019-07-17 17:25:35 ESP12E-S1 25.70 25.54 46.40
11288 2019-07-17 16:57:16 ESP12E-S1 26.20 26.10 47.00
11287 2019-07-17 16:28:55 ESP12E-S1 26.30 26.67 47.00
11286 2019-07-17 16:00:35 ESP12E-S1 26.80 27.16 48.70
11285 2019-07-17 15:32:14 ESP12E-S1 27.00 27.34 48.70
11284 2019-07-17 15:03:51 ESP12E-S1 27.30 27.65 49.10
11283 2019-07-17 14:35:32 ESP12E-S1 27.50 28.04 51.70
11282 2019-07-17 14:07:07 ESP12E-S1 27.40 28.12 54.20
11281 2019-07-17 13:38:40 ESP12E-S1 26.90 27.56 53.90
11280 2019-07-17 13:10:09 ESP12E-S1 25.80 25.88 55.40
11279 2019-07-17 12:41:43 ESP12E-S1 24.00 24.03 60.30
11278 2019-07-17 12:13:25 ESP12E-S1 24.00 24.10 63.00
11277 2019-07-17 11:44:48 ESP12E-S1 22.50 22.59 68.40
11276 2019-07-17 11:16:25 ESP12E-S1 21.90 21.96 69.60
11275 2019-07-17 10:47:49 ESP12E-S1 20.70 20.76 74.10
11274 2019-07-17 10:19:23 ESP12E-S1 19.90 19.97 77.50
11273 2019-07-17 09:50:57 ESP12E-S1 19.10 19.18 80.80
11272 2019-07-17 09:22:24 ESP12E-S1 18.00 18.10 85.90
11271 2019-07-17 08:53:52 ESP12E-S1 16.80 16.89 90.20
11270 2019-07-17 08:25:25 ESP12E-S1 16.00 16.04 91.50
11269 2019-07-17 07:57:02 ESP12E-S1 15.60 15.63 92.40
11268 2019-07-17 07:28:36 ESP12E-S1 15.10 15.09 92.80
11267 2019-07-17 07:00:13 ESP12E-S1 14.60 14.52 92.20
11266 2019-07-17 06:31:51 ESP12E-S1 14.50 14.39 91.20
11265 2019-07-17 06:03:29 ESP12E-S1 14.50 14.37 90.50
11264 2019-07-17 05:35:09 ESP12E-S1 14.70 14.53 88.30
11263 2019-07-17 05:06:49 ESP12E-S1 14.90 14.73 87.40
11262 2019-07-17 04:38:30 ESP12E-S1 15.10 14.93 86.90
11261 2019-07-17 04:10:10 ESP12E-S1 15.40 15.24 85.90
11260 2019-07-17 03:41:52 ESP12E-S1 15.70 15.53 84.30
11259 2019-07-17 03:13:32 ESP12E-S1 16.00 15.82 83.00
11258 2019-07-17 02:45:13 ESP12E-S1 16.40 16.18 80.00
11257 2019-07-17 02:16:53 ESP12E-S1 16.50 16.29 79.70
11256 2019-07-17 01:48:36 ESP12E-S1 16.80 16.56 77.60
11255 2019-07-17 01:20:17 ESP12E-S1 17.40 17.14 74.30
11254 2019-07-17 00:51:58 ESP12E-S1 17.80 17.53 72.70
11253 2019-07-17 00:23:37 ESP12E-S1 18.10 17.83 71.50
11252 2019-07-16 23:55:17 ESP12E-S1 18.20 17.83 67.10
11251 2019-07-16 23:26:58 ESP12E-S1 18.50 18.13 65.90
11250 2019-07-16 22:58:41 ESP12E-S1 18.90 18.51 63.60
11249 2019-07-16 22:30:22 ESP12E-S1 19.50 19.11 61.40
11248 2019-07-16 22:02:05 ESP12E-S1 19.90 19.54 61.20
11247 2019-07-16 21:33:46 ESP12E-S1 20.40 20.05 59.60
11246 2019-07-16 21:05:26 ESP12E-S1 20.80 20.50 59.90
11245 2019-07-16 20:37:07 ESP12E-S1 21.10 20.82 59.70
11244 2019-07-16 20:08:46 ESP12E-S1 21.30 21.13 63.10
11243 2019-07-16 19:40:26 ESP12E-S1 21.80 21.69 63.20
11242 2019-07-16 19:12:09 ESP12E-S1 22.70 22.46 54.90
11241 2019-07-16 18:43:50 ESP12E-S1 23.30 23.08 53.50
11240 2019-07-16 18:15:30 ESP12E-S1 23.60 23.36 51.50
11239 2019-07-16 17:47:11 ESP12E-S1 24.20 23.97 49.70
11238 2019-07-16 17:18:53 ESP12E-S1 24.60 24.45 51.10
11237 2019-07-16 16:50:32 ESP12E-S1 24.70 24.56 51.30
11236 2019-07-16 16:22:12 ESP12E-S1 24.90 24.76 50.20
11235 2019-07-16 15:53:52 ESP12E-S1 25.30 25.23 51.40
11234 2019-07-16 15:25:29 ESP12E-S1 25.40 25.34 51.40
11233 2019-07-16 14:57:09 ESP12E-S1 25.70 25.63 49.90
11232 2019-07-16 14:28:49 ESP12E-S1 26.00 25.97 50.50
11231 2019-07-16 14:00:27 ESP12E-S1 26.00 26.01 51.70
11230 2019-07-16 13:32:01 ESP12E-S1 25.50 25.48 52.60
11229 2019-07-16 13:03:35 ESP12E-S1 24.00 23.91 55.60
11228 2019-07-16 12:35:10 ESP12E-S1 22.90 22.79 59.20
11227 2019-07-16 12:06:54 ESP12E-S1 22.70 22.58 59.50
11226 2019-07-16 11:38:26 ESP12E-S1 21.90 21.80 63.20
11225 2019-07-16 11:09:56 ESP12E-S1 20.90 20.79 66.80
11224 2019-07-16 10:41:20 ESP12E-S1 19.40 19.28 72.20
11223 2019-07-16 10:12:50 ESP12E-S1 18.30 18.14 74.80
11222 2019-07-16 09:44:20 ESP12E-S1 17.30 17.16 79.60
11221 2019-07-16 09:15:49 ESP12E-S1 16.30 16.14 82.50
11220 2019-07-16 08:47:26 ESP12E-S1 15.40 15.24 86.10
11219 2019-07-16 08:18:59 ESP12E-S1 14.60 14.37 86.30
11218 2019-07-16 07:50:36 ESP12E-S1 14.10 13.86 88.00
11217 2019-07-16 07:22:13 ESP12E-S1 13.70 13.44 88.60
11216 2019-07-16 06:53:51 ESP12E-S1 13.40 13.10 88.10
11215 2019-07-16 06:25:29 ESP12E-S1 13.50 13.14 85.60
11214 2019-07-16 05:57:08 ESP12E-S1 13.30 12.93 85.80
11213 2019-07-16 05:28:48 ESP12E-S1 13.70 13.30 83.10
11212 2019-07-16 05:00:27 ESP12E-S1 13.80 13.36 81.30
11211 2019-07-16 04:32:05 ESP12E-S1 13.80 13.34 80.50
11210 2019-07-16 04:03:44 ESP12E-S1 13.60 13.11 80.20
11209 2019-07-16 03:35:23 ESP12E-S1 13.60 13.09 79.60
11208 2019-07-16 03:07:04 ESP12E-S1 13.90 13.38 77.90
11207 2019-07-16 02:38:44 ESP12E-S1 14.40 13.86 75.40
11206 2019-07-16 02:10:23 ESP12E-S1 14.70 14.13 73.10
11205 2019-07-16 01:42:02 ESP12E-S1 14.90 14.34 72.50
11204 2019-07-16 01:13:46 ESP12E-S1 15.00 14.49 73.90
11203 2019-07-16 00:45:25 ESP12E-S1 15.30 14.81 73.80
11202 2019-07-16 00:17:03 ESP12E-S1 15.60 15.11 72.50
11201 2019-07-15 23:48:42 ESP12E-S1 15.80 15.31 71.80
11200 2019-07-15 23:20:22 ESP12E-S1 16.00 15.52 71.60
11199 2019-07-15 22:52:03 ESP12E-S1 16.30 15.86 71.70
11198 2019-07-15 22:23:45 ESP12E-S1 16.60 16.16 70.80
11197 2019-07-15 21:55:25 ESP12E-S1 17.00 16.59 70.20
11196 2019-07-15 21:27:08 ESP12E-S1 17.50 17.08 68.00
11195 2019-07-15 20:58:50 ESP12E-S1 18.10 17.69 66.00
11194 2019-07-15 20:30:32 ESP12E-S1 18.60 18.21 65.00
11193 2019-07-15 20:02:13 ESP12E-S1 19.20 18.82 63.00
11192 2019-07-15 19:33:56 ESP12E-S1 19.90 19.57 62.10
11191 2019-07-15 19:05:38 ESP12E-S1 20.50 20.19 60.70
11190 2019-07-15 18:37:22 ESP12E-S1 21.20 20.94 60.00
11189 2019-07-15 18:09:04 ESP12E-S1 21.80 21.58 59.00
11188 2019-07-15 17:40:47 ESP12E-S1 22.30 22.08 57.40
11187 2019-07-15 17:12:29 ESP12E-S1 22.70 22.55 58.50
11186 2019-07-15 16:44:11 ESP12E-S1 23.40 23.25 55.80
11185 2019-07-15 16:15:50 ESP12E-S1 23.30 23.17 56.90
11184 2019-07-15 15:47:28 ESP12E-S1 23.60 23.52 57.70
11183 2019-07-15 15:19:06 ESP12E-S1 23.20 23.10 58.50
11182 2019-07-15 14:50:37 ESP12E-S1 22.30 22.18 61.20
11181 2019-07-15 14:22:17 ESP12E-S1 22.30 22.13 59.30
11180 2019-07-15 13:53:59 ESP12E-S1 23.00 22.90 59.20
11179 2019-07-15 13:25:26 ESP12E-S1 21.40 21.31 65.70
11178 2019-07-15 12:56:56 ESP12E-S1 20.10 20.06 72.40
11177 2019-07-15 12:28:29 ESP12E-S1 19.30 19.29 76.80
11176 2019-07-15 12:00:06 ESP12E-S1 18.70 18.63 76.70
11175 2019-07-15 11:31:42 ESP12E-S1 18.60 18.51 76.40
11174 2019-07-15 11:03:15 ESP12E-S1 18.10 18.00 77.90
11173 2019-07-15 10:34:52 ESP12E-S1 17.80 17.64 76.70
11172 2019-07-15 10:06:30 ESP12E-S1 17.90 17.72 75.70
11171 2019-07-15 09:38:05 ESP12E-S1 17.50 17.37 79.10
11170 2019-07-15 09:09:41 ESP12E-S1 17.10 16.96 80.40
11169 2019-07-15 08:41:16 ESP12E-S1 16.60 16.49 83.20
11168 2019-07-15 08:12:51 ESP12E-S1 16.20 16.06 83.70
11167 2019-07-15 07:44:31 ESP12E-S1 15.80 15.60 82.90
11166 2019-07-15 07:16:07 ESP12E-S1 15.70 15.50 83.30
11165 2019-07-15 06:47:43 ESP12E-S1 15.50 15.27 82.90
11164 2019-07-15 06:19:22 ESP12E-S1 15.40 15.16 82.90
11163 2019-07-15 05:50:59 ESP12E-S1 15.40 15.14 82.20
11162 2019-07-15 05:22:38 ESP12E-S1 15.40 15.15 82.60
11161 2019-07-15 04:54:16 ESP12E-S1 15.50 15.23 81.50
11160 2019-07-15 04:25:54 ESP12E-S1 15.70 15.48 82.70
11159 2019-07-15 03:57:33 ESP12E-S1 15.70 15.47 82.20
11158 2019-07-15 03:29:11 ESP12E-S1 15.80 15.59 82.40
11157 2019-07-15 03:00:50 ESP12E-S1 16.00 15.82 83.00
11156 2019-07-15 02:32:29 ESP12E-S1 16.10 15.94 83.10
11155 2019-07-15 02:04:08 ESP12E-S1 16.10 15.93 82.80
11154 2019-07-15 01:35:48 ESP12E-S1 16.30 16.14 82.60
11153 2019-07-15 01:07:28 ESP12E-S1 16.40 16.20 80.70
11152 2019-07-15 00:39:09 ESP12E-S1 16.60 16.36 78.40
11151 2019-07-15 00:10:48 ESP12E-S1 16.70 16.44 77.20
11150 2019-07-14 23:42:26 ESP12E-S1 16.90 16.60 75.00
11149 2019-07-14 23:14:05 ESP12E-S1 17.10 16.80 74.10
11148 2019-07-14 22:45:43 ESP12E-S1 17.10 16.79 73.80
11147 2019-07-14 22:17:24 ESP12E-S1 17.40 17.09 72.60
11146 2019-07-14 21:49:03 ESP12E-S1 17.60 17.30 72.30
11145 2019-07-14 21:20:43 ESP12E-S1 17.90 17.64 72.40
11144 2019-07-14 20:52:23 ESP12E-S1 18.20 17.93 71.20
11143 2019-07-14 20:24:05 ESP12E-S1 18.60 18.37 71.00
11142 2019-07-14 19:55:51 ESP12E-S1 19.00 18.80 70.60
11141 2019-07-14 19:27:32 ESP12E-S1 19.40 19.16 67.70
11140 2019-07-14 18:59:12 ESP12E-S1 19.80 19.57 66.40
11139 2019-07-14 18:30:54 ESP12E-S1 20.20 20.00 66.10
11138 2019-07-14 18:02:34 ESP12E-S1 20.50 20.35 66.70
11137 2019-07-14 17:34:15 ESP12E-S1 21.00 20.84 64.60
11136 2019-07-14 17:05:57 ESP12E-S1 21.70 21.59 63.80
11135 2019-07-14 16:37:30 ESP12E-S1 21.40 21.32 65.90
11134 2019-07-14 16:09:06 ESP12E-S1 21.20 21.09 65.60
11133 2019-07-14 15:40:40 ESP12E-S1 20.50 20.34 66.60
11132 2019-07-14 15:12:16 ESP12E-S1 20.40 20.25 67.20
11131 2019-07-14 14:43:55 ESP12E-S1 20.50 20.36 67.10
11130 2019-07-14 14:15:36 ESP12E-S1 20.90 20.77 66.20
11129 2019-07-14 13:47:20 ESP12E-S1 21.80 21.75 65.50
11128 2019-07-14 13:18:58 ESP12E-S1 22.70 22.67 62.90
11127 2019-07-14 12:50:30 ESP12E-S1 21.20 21.18 69.20
11126 2019-07-14 12:22:03 ESP12E-S1 20.20 20.23 74.90
11125 2019-07-14 11:53:30 ESP12E-S1 19.00 19.20 86.00
11124 2019-07-14 11:25:04 ESP12E-S1 18.20 18.13 78.70
11123 2019-07-14 10:56:39 ESP12E-S1 17.70 17.72 84.00
11122 2019-07-14 10:28:16 ESP12E-S1 17.60 17.69 87.00
11121 2019-07-14 09:59:51 ESP12E-S1 17.10 17.23 90.70
11120 2019-07-14 09:31:28 ESP12E-S1 16.90 17.06 92.60
11119 2019-07-14 09:03:06 ESP12E-S1 16.70 16.86 93.30
11118 2019-07-14 08:34:44 ESP12E-S1 16.70 16.88 94.00
11117 2019-07-14 08:06:19 ESP12E-S1 16.30 16.46 94.90
11116 2019-07-14 07:37:54 ESP12E-S1 15.80 15.92 95.10
11115 2019-07-14 07:09:31 ESP12E-S1 15.60 15.69 94.60
11114 2019-07-14 06:41:08 ESP12E-S1 15.80 15.94 96.10
11113 2019-07-14 06:12:47 ESP12E-S1 15.80 15.94 96.00
11112 2019-07-14 05:44:27 ESP12E-S1 15.90 16.04 95.60
11111 2019-07-14 05:16:06 ESP12E-S1 16.00 16.19 97.00
11110 2019-07-14 04:47:45 ESP12E-S1 16.10 16.33 98.20
11109 2019-07-14 04:19:24 ESP12E-S1 16.20 16.43 97.70
11108 2019-07-14 03:51:04 ESP12E-S1 16.40 16.66 98.20
11107 2019-07-14 03:22:44 ESP12E-S1 16.60 16.90 99.00
11106 2019-07-14 02:54:24 ESP12E-S1 16.70 17.03 99.70
11105 2019-07-14 02:26:04 ESP12E-S1 16.80 17.14 99.90
11104 2019-07-14 01:57:42 ESP12E-S1 16.90 17.25 99.90
11103 2019-07-14 01:29:22 ESP12E-S1 16.90 17.25 99.90
11102 2019-07-14 01:01:00 ESP12E-S1 17.00 17.36 99.90
11101 2019-07-14 00:32:39 ESP12E-S1 17.00 17.36 99.90
11100 2019-07-14 00:04:18 ESP12E-S1 17.10 17.47 99.60
11099 2019-07-13 23:35:57 ESP12E-S1 17.30 17.66 98.60
11098 2019-07-13 23:07:38 ESP12E-S1 17.60 17.98 98.10
11097 2019-07-13 22:39:15 ESP12E-S1 17.60 17.98 98.10
11096 2019-07-13 22:10:55 ESP12E-S1 17.60 17.98 98.30
11095 2019-07-13 21:42:36 ESP12E-S1 18.00 18.41 98.00
11094 2019-07-13 21:14:17 ESP12E-S1 18.60 19.09 98.50
11093 2019-07-13 20:45:59 ESP12E-S1 19.20 19.77 99.50
11092 2019-07-13 20:17:40 ESP12E-S1 19.60 20.16 97.30
11091 2019-07-13 19:49:18 ESP12E-S1 19.80 20.33 95.40
11090 2019-07-13 19:20:57 ESP12E-S1 20.10 20.69 96.70
11089 2019-07-13 18:52:34 ESP12E-S1 20.10 20.77 99.60
11088 2019-07-13 18:24:19 ESP12E-S1 20.60 21.15 93.30
11087 2019-07-13 17:55:59 ESP12E-S1 21.60 22.05 85.50
11086 2019-07-13 17:27:37 ESP12E-S1 21.70 22.28 90.10
11085 2019-07-13 16:59:11 ESP12E-S1 21.10 21.72 94.00
11084 2019-07-13 16:30:46 ESP12E-S1 20.50 21.14 97.00
11083 2019-07-13 16:02:19 ESP12E-S1 19.70 20.32 99.20
11082 2019-07-13 15:33:50 ESP12E-S1 18.60 19.12 99.90
11081 2019-07-13 15:05:26 ESP12E-S1 18.10 18.57 99.90
11080 2019-07-13 14:37:07 ESP12E-S1 18.30 18.79 99.90
11079 2019-07-13 14:08:46 ESP12E-S1 18.60 19.12 99.90
11078 2019-07-13 13:40:26 ESP12E-S1 18.80 19.31 98.70
11077 2019-07-13 13:12:00 ESP12E-S1 18.20 18.68 99.90
11076 2019-07-13 12:43:32 ESP12E-S1 17.40 17.80 99.90
11075 2019-07-13 12:15:10 ESP12E-S1 17.00 17.36 99.90
11074 2019-07-13 11:46:51 ESP12E-S1 16.80 17.14 99.90
11073 2019-07-13 11:18:28 ESP12E-S1 16.70 17.03 99.60
11072 2019-07-13 10:50:05 ESP12E-S1 16.50 16.81 99.90
11071 2019-07-13 10:21:45 ESP12E-S1 16.50 16.81 99.80
11070 2019-07-13 09:53:22 ESP12E-S1 16.20 16.48 99.80
11069 2019-07-13 09:25:02 ESP12E-S1 15.90 16.15 99.80
11068 2019-07-13 08:56:42 ESP12E-S1 15.90 16.15 99.60
11067 2019-07-13 08:28:19 ESP12E-S1 15.90 16.13 99.10
11066 2019-07-13 07:59:56 ESP12E-S1 15.70 15.93 99.90
11065 2019-07-13 07:31:34 ESP12E-S1 15.50 15.71 99.90
11064 2019-07-13 07:03:13 ESP12E-S1 15.60 15.82 99.90
11063 2019-07-13 06:34:51 ESP12E-S1 15.60 15.82 99.90
11062 2019-07-13 06:06:28 ESP12E-S1 15.50 15.71 99.90
11061 2019-07-13 05:38:08 ESP12E-S1 15.50 15.71 99.90
11060 2019-07-13 05:09:47 ESP12E-S1 15.60 15.82 99.90
11059 2019-07-13 04:41:26 ESP12E-S1 15.60 15.82 99.90
11058 2019-07-13 04:13:05 ESP12E-S1 15.60 15.82 99.90
11057 2019-07-13 03:44:46 ESP12E-S1 15.70 15.93 99.90
11056 2019-07-13 03:16:26 ESP12E-S1 15.80 16.04 99.90
11055 2019-07-13 02:48:06 ESP12E-S1 15.80 16.04 99.90
11054 2019-07-13 02:19:44 ESP12E-S1 15.80 16.04 99.90
11053 2019-07-13 01:51:22 ESP12E-S1 15.80 16.04 99.90
11052 2019-07-13 01:23:02 ESP12E-S1 15.90 16.15 99.90
11051 2019-07-13 00:54:42 ESP12E-S1 16.00 16.26 99.90
11050 2019-07-13 00:26:23 ESP12E-S1 16.30 16.59 99.90
11049 2019-07-12 23:58:03 ESP12E-S1 16.40 16.70 99.90
11048 2019-07-12 23:29:42 ESP12E-S1 16.60 16.92 99.90
11047 2019-07-12 23:01:30 ESP12E-S1 16.70 17.03 99.90
11046 2019-07-12 22:33:14 ESP12E-S1 17.00 17.36 99.90
11045 2019-07-12 22:04:52 ESP12E-S1 17.10 17.47 99.90
11044 2019-07-12 21:36:33 ESP12E-S1 17.30 17.69 99.90
11043 2019-07-12 21:08:13 ESP12E-S1 17.60 18.02 99.90
11042 2019-07-12 20:39:53 ESP12E-S1 17.80 18.24 99.90
11041 2019-07-12 20:11:32 ESP12E-S1 18.10 18.57 99.90
11040 2019-07-12 19:43:13 ESP12E-S1 18.40 18.90 99.90
11039 2019-07-12 19:14:55 ESP12E-S1 18.50 18.99 99.00
11038 2019-07-12 18:46:36 ESP12E-S1 19.00 19.56 99.90
11037 2019-07-12 18:18:16 ESP12E-S1 19.30 19.89 99.90
11036 2019-07-12 17:49:55 ESP12E-S1 19.60 20.22 99.90
11035 2019-07-12 17:21:32 ESP12E-S1 19.40 20.00 99.90
11034 2019-07-12 16:53:10 ESP12E-S1 19.40 20.00 99.90
11033 2019-07-12 16:24:48 ESP12E-S1 19.60 20.22 99.90
11032 2019-07-12 15:56:24 ESP12E-S1 19.30 19.89 99.90
11031 2019-07-12 15:27:54 ESP12E-S1 17.80 18.24 99.90
11030 2019-07-12 14:59:44 ESP12E-S1 17.90 18.35 99.90
11029 2019-07-12 14:31:31 ESP12E-S1 18.20 18.68 99.90
11028 2019-07-12 14:03:07 ESP12E-S1 18.50 19.01 99.90
11027 2019-07-12 13:34:52 ESP12E-S1 19.00 19.56 99.90
11026 2019-07-12 13:06:37 ESP12E-S1 19.80 20.39 97.90
11025 2019-07-12 12:38:41 ESP12E-S1 20.90 21.41 90.40
11024 2019-07-12 12:10:04 ESP12E-S1 20.50 21.10 95.50
11023 2019-07-12 11:41:42 ESP12E-S1 20.10 20.70 97.10
11022 2019-07-12 11:13:25 ESP12E-S1 20.60 21.31 99.20
11021 2019-07-12 10:44:52 ESP12E-S1 18.70 19.23 99.90
11020 2019-07-12 10:16:25 ESP12E-S1 17.70 18.13 99.90
11019 2019-07-12 09:48:01 ESP12E-S1 17.50 17.91 99.90
11018 2019-07-12 09:19:55 ESP12E-S1 17.10 17.47 99.90
11017 2019-07-12 08:51:27 ESP12E-S1 17.20 17.58 99.90
11016 2019-07-12 08:23:03 ESP12E-S1 17.10 17.47 99.90
11015 2019-07-12 07:54:38 ESP12E-S1 16.40 16.70 99.90
11014 2019-07-12 07:26:17 ESP12E-S1 16.00 16.26 99.90
11013 2019-07-12 06:57:54 ESP12E-S1 15.80 16.04 99.90
11012 2019-07-12 06:29:31 ESP12E-S1 15.70 15.93 99.90
11011 2019-07-12 06:01:08 ESP12E-S1 15.50 15.71 99.90
11010 2019-07-12 05:32:49 ESP12E-S1 15.90 16.15 99.90
11009 2019-07-12 05:04:27 ESP12E-S1 15.80 16.04 99.90
11008 2019-07-12 04:36:07 ESP12E-S1 15.70 15.93 99.90
11007 2019-07-12 04:07:47 ESP12E-S1 15.70 15.93 99.90
11006 2019-07-12 03:39:33 ESP12E-S1 15.70 15.93 99.90
11005 2019-07-12 03:11:10 ESP12E-S1 15.70 15.93 99.90
11004 2019-07-12 02:42:51 ESP12E-S1 16.00 16.26 99.90
11003 2019-07-12 02:14:41 ESP12E-S1 16.20 16.48 99.90
11002 2019-07-12 01:46:29 ESP12E-S1 16.50 16.81 99.90
11001 2019-07-12 01:18:08 ESP12E-S1 16.80 17.14 99.90
11000 2019-07-12 00:49:50 ESP12E-S1 17.00 17.36 99.90
10999 2019-07-12 00:21:38 ESP12E-S1 17.10 17.47 99.90
10998 2019-07-11 23:53:24 ESP12E-S1 17.20 17.58 99.90
10997 2019-07-11 23:25:01 ESP12E-S1 17.30 17.69 99.90
10996 2019-07-11 22:56:40 ESP12E-S1 17.30 17.69 99.90
10995 2019-07-11 22:28:19 ESP12E-S1 17.40 17.80 99.90
10994 2019-07-11 22:00:00 ESP12E-S1 17.40 17.80 99.90
10993 2019-07-11 21:31:38 ESP12E-S1 17.50 17.91 99.90
10992 2019-07-11 21:03:18 ESP12E-S1 17.50 17.91 99.90
10991 2019-07-11 20:34:58 ESP12E-S1 17.60 18.02 99.90
10990 2019-07-11 20:06:37 ESP12E-S1 17.50 17.91 99.90
10989 2019-07-11 19:38:16 ESP12E-S1 17.60 18.02 99.90
10988 2019-07-11 19:09:56 ESP12E-S1 17.70 18.13 99.90
10987 2019-07-11 18:41:36 ESP12E-S1 17.80 18.24 99.80
10986 2019-07-11 18:13:17 ESP12E-S1 17.90 18.34 99.50
10985 2019-07-11 17:44:55 ESP12E-S1 17.70 18.13 99.90
10984 2019-07-11 17:16:36 ESP12E-S1 17.50 17.91 99.60
10983 2019-07-11 16:48:15 ESP12E-S1 17.70 18.07 97.30
10982 2019-07-11 16:19:54 ESP12E-S1 17.70 18.02 95.50
10981 2019-07-11 15:51:34 ESP12E-S1 17.70 17.98 93.90
10980 2019-07-11 15:23:13 ESP12E-S1 17.90 18.15 92.00
10979 2019-07-11 14:54:54 ESP12E-S1 18.10 18.37 92.00
10978 2019-07-11 14:26:32 ESP12E-S1 18.20 18.44 90.40
10977 2019-07-11 13:58:15 ESP12E-S1 18.50 18.76 90.30
10976 2019-07-11 13:29:55 ESP12E-S1 19.00 19.04 79.80
10975 2019-07-11 13:01:35 ESP12E-S1 19.30 19.38 80.10
10974 2019-07-11 12:33:14 ESP12E-S1 19.20 19.20 77.40
10973 2019-07-11 12:04:53 ESP12E-S1 19.20 19.14 75.30
10972 2019-07-11 11:36:31 ESP12E-S1 19.10 18.99 73.60
10971 2019-07-11 11:08:08 ESP12E-S1 18.90 18.84 76.20
10970 2019-07-11 10:39:47 ESP12E-S1 18.90 18.85 76.80
10969 2019-07-11 10:11:24 ESP12E-S1 18.80 18.76 77.50
10968 2019-07-11 09:42:59 ESP12E-S1 18.00 17.97 80.80
10967 2019-07-11 09:14:36 ESP12E-S1 17.50 17.49 83.70
10966 2019-07-11 08:46:28 ESP12E-S1 17.30 17.28 83.90
10965 2019-07-11 08:18:14 ESP12E-S1 17.20 17.21 85.60
10964 2019-07-11 07:49:50 ESP12E-S1 17.10 17.05 83.80
10963 2019-07-11 07:21:38 ESP12E-S1 17.10 17.10 85.50
10962 2019-07-11 06:53:16 ESP12E-S1 17.20 17.13 82.70
10961 2019-07-11 06:24:56 ESP12E-S1 17.30 17.12 77.80
10960 2019-07-11 05:56:36 ESP12E-S1 17.50 17.15 70.70
10959 2019-07-11 05:28:17 ESP12E-S1 17.60 17.04 62.20
10958 2019-07-11 04:59:57 ESP12E-S1 18.00 17.44 60.50
10957 2019-07-11 04:31:37 ESP12E-S1 18.30 17.67 56.80
10956 2019-07-11 04:03:17 ESP12E-S1 18.70 17.91 49.20
10955 2019-07-11 03:34:58 ESP12E-S1 18.90 18.09 47.70
10954 2019-07-11 03:06:39 ESP12E-S1 19.20 18.39 46.70
10953 2019-07-11 02:38:18 ESP12E-S1 19.50 18.71 46.20
10952 2019-07-11 02:09:57 ESP12E-S1 19.70 18.96 47.40
10951 2019-07-11 01:41:38 ESP12E-S1 20.00 19.27 46.70
10950 2019-07-11 01:13:18 ESP12E-S1 20.20 19.41 43.60
10949 2019-07-11 00:45:00 ESP12E-S1 20.50 19.72 42.70
10948 2019-07-11 00:16:39 ESP12E-S1 20.80 19.94 38.50
10947 2019-07-10 23:48:19 ESP12E-S1 21.10 20.23 37.00
10946 2019-07-10 23:19:59 ESP12E-S1 21.20 20.35 37.40
10945 2019-07-10 22:51:39 ESP12E-S1 21.50 20.62 35.00
10944 2019-07-10 22:23:18 ESP12E-S1 21.70 20.83 34.50
10943 2019-07-10 21:54:58 ESP12E-S1 21.90 21.06 35.10
10942 2019-07-10 21:26:39 ESP12E-S1 22.20 21.37 34.10
10941 2019-07-10 20:58:20 ESP12E-S1 22.70 21.88 32.60
10940 2019-07-10 20:30:01 ESP12E-S1 23.00 22.23 33.40
10939 2019-07-10 20:01:41 ESP12E-S1 23.30 22.60 34.90
10938 2019-07-10 19:33:22 ESP12E-S1 23.70 23.04 34.90
10937 2019-07-10 19:05:03 ESP12E-S1 24.10 23.47 34.60
10936 2019-07-10 18:36:47 ESP12E-S1 24.90 24.36 34.90
10935 2019-07-10 18:08:27 ESP12E-S1 25.30 24.71 31.70
10934 2019-07-10 17:40:09 ESP12E-S1 25.70 25.14 31.30
10933 2019-07-10 17:12:08 ESP12E-S1 26.10 25.60 31.80
10932 2019-07-10 16:44:07 ESP12E-S1 26.50 26.03 31.70
10931 2019-07-10 16:15:59 ESP12E-S1 27.20 26.57 30.60
10930 2019-07-10 15:47:33 ESP12E-S1 28.20 27.32 31.60
10929 2019-07-10 15:19:12 ESP12E-S1 28.30 27.38 31.20
10928 2019-07-10 14:51:09 ESP12E-S1 28.70 27.68 31.00
10927 2019-07-10 14:22:50 ESP12E-S1 29.10 27.99 30.50
10926 2019-07-10 13:54:30 ESP12E-S1 29.20 28.13 31.50
10925 2019-07-10 13:26:05 ESP12E-S1 29.00 27.97 31.70
10924 2019-07-10 12:57:35 ESP12E-S1 25.80 25.40 36.80
10923 2019-07-10 12:29:13 ESP12E-S1 24.00 23.44 37.70
10922 2019-07-10 12:01:00 ESP12E-S1 23.60 23.14 43.00
10921 2019-07-10 11:32:36 ESP12E-S1 22.20 21.71 47.20
10920 2019-07-10 11:04:00 ESP12E-S1 20.70 20.20 52.50
10919 2019-07-10 10:35:47 ESP12E-S1 18.90 18.40 59.40
10918 2019-07-10 10:07:13 ESP12E-S1 18.10 17.63 63.90
10917 2019-07-10 09:38:43 ESP12E-S1 17.10 16.38 58.10
10916 2019-07-10 09:10:09 ESP12E-S1 15.60 14.82 61.60
10915 2019-07-10 08:41:40 ESP12E-S1 14.40 13.52 62.10
10914 2019-07-10 08:13:15 ESP12E-S1 13.70 12.83 65.40
10913 2019-07-10 07:44:51 ESP12E-S1 13.10 12.15 64.60
10912 2019-07-10 07:16:30 ESP12E-S1 12.60 11.62 65.40
10911 2019-07-10 06:48:09 ESP12E-S1 12.50 11.51 65.10
10910 2019-07-10 06:19:49 ESP12E-S1 12.70 11.66 62.50
10909 2019-07-10 05:51:28 ESP12E-S1 12.70 11.61 60.60
10908 2019-07-10 05:23:08 ESP12E-S1 12.80 11.69 59.50
10907 2019-07-10 04:54:49 ESP12E-S1 13.00 11.89 58.80
10906 2019-07-10 04:26:30 ESP12E-S1 13.20 12.10 58.30
10905 2019-07-10 03:58:11 ESP12E-S1 13.40 12.30 57.50
10904 2019-07-10 03:29:53 ESP12E-S1 13.70 12.59 56.10
10903 2019-07-10 03:01:32 ESP12E-S1 13.70 12.58 55.60
10902 2019-07-10 02:33:14 ESP12E-S1 13.90 12.79 55.30
10901 2019-07-10 02:04:55 ESP12E-S1 14.30 13.20 54.20
10900 2019-07-10 01:36:35 ESP12E-S1 14.40 13.29 53.50
10899 2019-07-10 01:08:15 ESP12E-S1 14.70 13.60 52.50
10898 2019-07-10 00:39:56 ESP12E-S1 15.10 14.02 51.70
10897 2019-07-10 00:11:36 ESP12E-S1 15.10 14.00 51.30
10896 2019-07-09 23:43:16 ESP12E-S1 15.40 14.33 51.10
10895 2019-07-09 23:14:58 ESP12E-S1 15.60 14.50 49.30
10894 2019-07-09 22:46:40 ESP12E-S1 15.90 14.84 49.40
10893 2019-07-09 22:18:24 ESP12E-S1 16.40 15.36 48.30
10892 2019-07-09 21:50:09 ESP12E-S1 16.80 15.81 48.80
10891 2019-07-09 21:21:53 ESP12E-S1 17.50 16.55 47.70
10890 2019-07-09 20:53:37 ESP12E-S1 18.20 17.29 46.70
10889 2019-07-09 20:25:27 ESP12E-S1 19.00 18.13 45.00
10888 2019-07-09 19:57:08 ESP12E-S1 19.30 18.46 45.00
10887 2019-07-09 19:28:52 ESP12E-S1 20.10 19.29 42.90
10886 2019-07-09 19:00:34 ESP12E-S1 20.40 19.63 43.60
10885 2019-07-09 18:32:14 ESP12E-S1 20.50 19.74 43.50
10884 2019-07-09 18:03:55 ESP12E-S1 20.60 19.90 45.30
10883 2019-07-09 17:35:35 ESP12E-S1 20.30 19.61 47.00
10882 2019-07-09 17:07:19 ESP12E-S1 20.80 20.12 45.50
10881 2019-07-09 16:38:58 ESP12E-S1 20.90 20.16 42.50
10880 2019-07-09 16:10:46 ESP12E-S1 20.30 19.54 44.20
10879 2019-07-09 15:42:40 ESP12E-S1 20.40 19.67 45.10
10878 2019-07-09 15:14:15 ESP12E-S1 20.30 19.53 43.70
10877 2019-07-09 14:46:20 ESP12E-S1 21.40 20.73 43.60
10876 2019-07-09 14:18:02 ESP12E-S1 20.30 19.57 45.20
10875 2019-07-09 13:49:55 ESP12E-S1 20.30 19.59 46.00
10874 2019-07-09 13:21:23 ESP12E-S1 19.60 18.87 47.90
10873 2019-07-09 12:52:55 ESP12E-S1 19.00 18.22 48.40
10872 2019-07-09 12:24:38 ESP12E-S1 19.20 18.44 48.30
10871 2019-07-09 11:56:26 ESP12E-S1 18.30 17.48 49.60
10870 2019-07-09 11:27:56 ESP12E-S1 17.00 16.11 51.80
10869 2019-07-09 10:59:44 ESP12E-S1 16.40 15.49 53.30
10868 2019-07-09 10:31:17 ESP12E-S1 15.90 14.90 51.80
10867 2019-07-09 10:02:55 ESP12E-S1 15.60 14.60 53.20
10866 2019-07-09 09:34:32 ESP12E-S1 15.00 13.98 54.40
10865 2019-07-09 09:06:10 ESP12E-S1 14.70 13.69 55.90
10864 2019-07-09 08:37:50 ESP12E-S1 14.40 13.46 59.80
10863 2019-07-09 08:09:24 ESP12E-S1 13.60 12.86 70.80
10862 2019-07-09 07:41:03 ESP12E-S1 13.10 12.46 76.20
10861 2019-07-09 07:12:41 ESP12E-S1 12.60 11.96 78.20
10860 2019-07-09 06:44:20 ESP12E-S1 12.30 11.61 77.60
10859 2019-07-09 06:15:59 ESP12E-S1 12.30 11.56 75.50
10858 2019-07-09 05:47:42 ESP12E-S1 12.70 11.93 73.00
10857 2019-07-09 05:19:22 ESP12E-S1 12.70 11.94 73.20
10856 2019-07-09 04:51:02 ESP12E-S1 13.00 12.22 71.40
10855 2019-07-09 04:22:44 ESP12E-S1 13.20 12.38 69.30
10854 2019-07-09 03:54:24 ESP12E-S1 13.50 12.66 67.20
10853 2019-07-09 03:26:05 ESP12E-S1 13.80 12.94 65.30
10852 2019-07-09 02:57:48 ESP12E-S1 14.00 13.12 63.90
10851 2019-07-09 02:29:30 ESP12E-S1 14.30 13.40 61.80
10850 2019-07-09 02:01:10 ESP12E-S1 14.60 13.70 60.60
10849 2019-07-09 01:32:52 ESP12E-S1 15.00 14.11 59.40
10848 2019-07-09 01:04:31 ESP12E-S1 15.30 14.40 58.10
10847 2019-07-09 00:36:12 ESP12E-S1 15.40 14.49 57.10
10846 2019-07-09 00:07:52 ESP12E-S1 15.60 14.68 56.10
10845 2019-07-08 23:39:32 ESP12E-S1 15.90 14.99 55.20
10844 2019-07-08 23:11:11 ESP12E-S1 15.90 14.98 54.90
10843 2019-07-08 22:42:52 ESP12E-S1 16.20 15.29 54.20
10842 2019-07-08 22:14:33 ESP12E-S1 16.50 15.61 53.80
10841 2019-07-08 21:46:14 ESP12E-S1 16.80 15.91 52.60
10840 2019-07-08 21:17:56 ESP12E-S1 17.20 16.35 52.60
10839 2019-07-08 20:49:39 ESP12E-S1 17.90 17.08 51.00
10838 2019-07-08 20:21:20 ESP12E-S1 18.50 17.68 48.90
10837 2019-07-08 19:53:02 ESP12E-S1 18.80 18.01 49.00
10836 2019-07-08 19:24:44 ESP12E-S1 19.30 18.58 49.40
10835 2019-07-08 18:56:25 ESP12E-S1 19.70 18.95 46.80
10834 2019-07-08 18:28:05 ESP12E-S1 19.90 19.16 46.50
10833 2019-07-08 17:59:44 ESP12E-S1 20.10 19.37 46.00
10832 2019-07-08 17:31:29 ESP12E-S1 20.60 19.89 44.80
10831 2019-07-08 17:03:07 ESP12E-S1 20.30 19.56 44.80
10830 2019-07-08 16:34:47 ESP12E-S1 20.40 19.65 44.20
10829 2019-07-08 16:06:29 ESP12E-S1 21.10 20.44 45.00
10828 2019-07-08 15:38:20 ESP12E-S1 20.90 20.20 44.10
10827 2019-07-08 15:09:52 ESP12E-S1 19.90 19.11 44.60
10826 2019-07-08 14:41:47 ESP12E-S1 20.30 19.59 46.00
10825 2019-07-08 14:13:31 ESP12E-S1 21.20 20.49 42.70
10824 2019-07-08 13:45:20 ESP12E-S1 21.60 20.91 41.80
10823 2019-07-08 13:16:59 ESP12E-S1 21.90 21.24 42.00
10822 2019-07-08 12:49:05 ESP12E-S1 22.80 22.20 40.70
10821 2019-07-08 12:20:45 ESP12E-S1 23.50 22.92 39.00
10820 2019-07-08 11:52:23 ESP12E-S1 23.10 22.55 41.40
10819 2019-07-08 11:24:15 ESP12E-S1 22.40 21.82 43.10
10818 2019-07-08 10:55:38 ESP12E-S1 21.10 20.45 45.20
10817 2019-07-08 10:27:09 ESP12E-S1 19.70 18.91 45.20
10816 2019-07-08 09:58:42 ESP12E-S1 18.50 17.66 48.10
10815 2019-07-08 09:30:15 ESP12E-S1 17.20 16.27 49.40
10814 2019-07-08 09:01:51 ESP12E-S1 16.00 15.07 54.10
10813 2019-07-08 08:33:22 ESP12E-S1 14.90 13.96 58.00
10812 2019-07-08 08:05:19 ESP12E-S1 14.40 13.44 59.00
10811 2019-07-08 07:36:51 ESP12E-S1 14.10 13.11 59.00
10810 2019-07-08 07:08:29 ESP12E-S1 13.60 12.57 59.70
10809 2019-07-08 06:40:21 ESP12E-S1 13.40 12.32 58.40
10808 2019-07-08 06:12:00 ESP12E-S1 13.60 12.49 56.50
10807 2019-07-08 05:43:41 ESP12E-S1 13.70 12.54 54.30
10806 2019-07-08 05:15:22 ESP12E-S1 14.00 12.85 53.60
10805 2019-07-08 04:47:06 ESP12E-S1 14.70 13.59 52.20
10804 2019-07-08 04:18:50 ESP12E-S1 14.90 13.77 50.60
10803 2019-07-08 03:50:32 ESP12E-S1 15.10 13.98 50.30
10802 2019-07-08 03:22:15 ESP12E-S1 15.70 14.58 48.20
10801 2019-07-08 02:53:54 ESP12E-S1 15.60 14.49 48.80
10800 2019-07-08 02:25:36 ESP12E-S1 15.70 14.62 49.70
10799 2019-07-08 01:57:18 ESP12E-S1 15.90 14.86 50.40
10798 2019-07-08 01:29:00 ESP12E-S1 16.20 15.19 50.40
10797 2019-07-08 01:00:43 ESP12E-S1 16.60 15.61 49.50
10796 2019-07-08 00:32:25 ESP12E-S1 16.80 15.81 48.70
10795 2019-07-08 00:04:07 ESP12E-S1 17.10 16.13 48.30
10794 2019-07-07 23:35:52 ESP12E-S1 17.50 16.54 47.20
10793 2019-07-07 23:07:35 ESP12E-S1 18.10 17.15 45.30
10792 2019-07-07 22:39:19 ESP12E-S1 18.70 17.82 45.80
10791 2019-07-07 22:11:02 ESP12E-S1 19.40 18.60 46.30
10790 2019-07-07 21:42:48 ESP12E-S1 20.00 19.23 45.00
10789 2019-07-07 21:14:29 ESP12E-S1 20.50 19.68 41.00
10788 2019-07-07 20:46:13 ESP12E-S1 20.90 20.10 40.20
10787 2019-07-07 20:17:58 ESP12E-S1 21.50 20.76 40.50
10786 2019-07-07 19:49:41 ESP12E-S1 22.00 21.31 40.20
10785 2019-07-07 19:21:24 ESP12E-S1 22.60 21.96 40.10
10784 2019-07-07 18:53:09 ESP12E-S1 23.10 22.44 37.30
10783 2019-07-07 18:24:50 ESP12E-S1 23.50 22.92 39.00
10782 2019-07-07 17:56:31 ESP12E-S1 23.60 23.06 39.90
10781 2019-07-07 17:28:12 ESP12E-S1 23.80 23.30 40.80
10780 2019-07-07 16:59:57 ESP12E-S1 24.20 23.65 37.40
10779 2019-07-07 16:31:41 ESP12E-S1 24.70 24.24 38.80
10778 2019-07-07 16:03:27 ESP12E-S1 25.50 25.13 39.10
10777 2019-07-07 15:35:03 ESP12E-S1 26.10 25.76 38.10
10776 2019-07-07 15:06:40 ESP12E-S1 25.70 25.39 40.80
10775 2019-07-07 14:38:22 ESP12E-S1 25.80 25.56 43.20
10774 2019-07-07 14:10:05 ESP12E-S1 26.60 26.63 41.20
10773 2019-07-07 13:41:37 ESP12E-S1 25.50 25.29 45.50
10772 2019-07-07 13:13:07 ESP12E-S1 22.90 22.53 49.20
10771 2019-07-07 12:44:43 ESP12E-S1 21.00 20.56 53.70
10770 2019-07-07 12:16:25 ESP12E-S1 21.10 20.78 57.90
10769 2019-07-07 11:48:00 ESP12E-S1 19.80 19.53 64.80
10768 2019-07-07 11:19:31 ESP12E-S1 17.90 17.71 75.20
10767 2019-07-07 10:51:09 ESP12E-S1 17.50 17.36 78.60
10766 2019-07-07 10:22:50 ESP12E-S1 17.20 17.06 79.80
10765 2019-07-07 09:54:29 ESP12E-S1 17.00 16.84 79.90
10764 2019-07-07 09:26:09 ESP12E-S1 17.00 16.79 78.10
10763 2019-07-07 08:57:50 ESP12E-S1 17.10 16.81 74.60
10762 2019-07-07 08:29:35 ESP12E-S1 17.50 17.17 71.30
10761 2019-07-07 08:01:18 ESP12E-S1 17.90 17.53 68.40
10760 2019-07-07 07:32:57 ESP12E-S1 18.10 17.56 60.90
10759 2019-07-07 07:04:38 ESP12E-S1 18.10 17.58 61.80
10758 2019-07-07 06:36:19 ESP12E-S1 18.10 17.58 61.90
10757 2019-07-07 06:08:00 ESP12E-S1 18.10 17.58 61.90
10756 2019-07-07 05:39:42 ESP12E-S1 18.30 17.78 61.20
10755 2019-07-07 05:11:23 ESP12E-S1 18.50 17.99 60.70
10754 2019-07-07 04:43:04 ESP12E-S1 18.80 18.32 60.60
10753 2019-07-07 04:14:47 ESP12E-S1 19.10 18.67 61.40
10752 2019-07-07 03:46:29 ESP12E-S1 19.50 19.08 60.30
10751 2019-07-07 03:18:13 ESP12E-S1 20.00 19.61 59.40
10750 2019-07-07 02:49:56 ESP12E-S1 20.50 20.13 58.50
10749 2019-07-07 02:21:37 ESP12E-S1 20.90 20.55 57.80
10748 2019-07-07 01:53:20 ESP12E-S1 21.30 20.94 55.60
10747 2019-07-07 01:25:01 ESP12E-S1 21.70 21.34 54.00
10746 2019-07-07 00:56:44 ESP12E-S1 22.00 21.63 52.60
10745 2019-07-07 00:28:23 ESP12E-S1 22.30 21.88 49.50
10744 2019-07-07 00:00:04 ESP12E-S1 22.60 22.10 45.20
10743 2019-07-06 23:31:46 ESP12E-S1 22.90 22.38 43.60
10742 2019-07-06 23:03:27 ESP12E-S1 23.30 22.80 42.50
10741 2019-07-06 22:35:09 ESP12E-S1 23.80 23.32 41.40
10740 2019-07-06 22:06:51 ESP12E-S1 24.20 23.75 41.10
10739 2019-07-06 21:38:34 ESP12E-S1 24.50 24.03 39.40
10738 2019-07-06 21:10:16 ESP12E-S1 25.10 24.63 36.90
10737 2019-07-06 20:41:55 ESP12E-S1 25.30 24.87 37.60
10736 2019-07-06 20:13:37 ESP12E-S1 25.80 25.44 38.50
10735 2019-07-06 19:45:19 ESP12E-S1 26.30 25.99 38.30
10734 2019-07-06 19:17:00 ESP12E-S1 26.70 26.43 35.00
10733 2019-07-06 18:48:45 ESP12E-S1 27.50 26.64 27.50
10732 2019-07-06 18:20:28 ESP12E-S1 28.30 27.17 26.80
10731 2019-07-06 17:52:13 ESP12E-S1 29.10 27.70 25.00
10730 2019-07-06 17:23:58 ESP12E-S1 30.30 28.83 27.10
10729 2019-07-06 16:55:42 ESP12E-S1 31.30 30.11 30.60
10728 2019-07-06 16:27:24 ESP12E-S1 31.50 29.95 26.70
10727 2019-07-06 15:59:10 ESP12E-S1 32.20 30.93 29.00
10726 2019-07-06 15:30:42 ESP12E-S1 32.50 31.39 30.00
10725 2019-07-06 15:02:23 ESP12E-S1 31.60 30.46 30.80
10724 2019-07-06 14:34:15 ESP12E-S1 33.20 31.93 27.70
10723 2019-07-06 14:05:55 ESP12E-S1 34.00 32.91 27.70
10722 2019-07-06 13:37:27 ESP12E-S1 32.80 31.66 29.30
10721 2019-07-06 13:08:42 ESP12E-S1 30.10 29.37 36.00
10720 2019-07-06 12:40:30 ESP12E-S1 31.00 30.43 36.40
10719 2019-07-06 12:12:10 ESP12E-S1 30.50 29.83 36.20
10718 2019-07-06 11:43:44 ESP12E-S1 29.60 29.20 39.60
10717 2019-07-06 11:15:16 ESP12E-S1 28.20 28.16 44.20
10716 2019-07-06 10:46:45 ESP12E-S1 26.80 27.09 47.40
10715 2019-07-06 10:18:14 ESP12E-S1 25.30 25.22 51.30
10714 2019-07-06 09:49:43 ESP12E-S1 24.00 23.82 52.30
10713 2019-07-06 09:21:12 ESP12E-S1 22.70 22.43 53.80
10712 2019-07-06 08:52:43 ESP12E-S1 21.40 21.02 54.70
10711 2019-07-06 08:24:18 ESP12E-S1 20.50 20.04 55.10
10710 2019-07-06 07:55:54 ESP12E-S1 20.10 19.66 57.10
10709 2019-07-06 07:27:32 ESP12E-S1 19.70 19.23 57.60
10708 2019-07-06 06:59:10 ESP12E-S1 19.40 18.93 58.80
10707 2019-07-06 06:30:50 ESP12E-S1 19.50 19.03 58.50
10706 2019-07-06 06:02:30 ESP12E-S1 19.70 19.20 56.60
10705 2019-07-06 05:34:09 ESP12E-S1 19.70 19.16 55.10
10704 2019-07-06 05:05:52 ESP12E-S1 19.90 19.39 55.20
10703 2019-07-06 04:37:33 ESP12E-S1 20.20 19.71 55.10
10702 2019-07-06 04:09:15 ESP12E-S1 20.70 20.24 54.00
10701 2019-07-06 03:41:02 ESP12E-S1 20.90 20.44 53.50
10700 2019-07-06 03:12:42 ESP12E-S1 21.30 20.85 52.40
10699 2019-07-06 02:44:25 ESP12E-S1 21.50 21.03 50.90
10698 2019-07-06 02:16:07 ESP12E-S1 22.00 21.55 49.60
10697 2019-07-06 01:47:49 ESP12E-S1 22.40 21.96 48.30
10696 2019-07-06 01:19:29 ESP12E-S1 22.60 22.16 47.50
10695 2019-07-06 00:51:10 ESP12E-S1 23.00 22.56 46.30
10694 2019-07-06 00:22:51 ESP12E-S1 23.30 22.87 45.20
10693 2019-07-05 23:54:31 ESP12E-S1 23.50 23.07 44.50
10692 2019-07-05 23:26:13 ESP12E-S1 23.80 23.37 43.30
10691 2019-07-05 22:58:05 ESP12E-S1 24.10 23.69 42.90
10690 2019-07-05 22:29:52 ESP12E-S1 24.50 24.11 42.30
10689 2019-07-05 22:01:29 ESP12E-S1 24.80 24.43 41.80
10688 2019-07-05 21:33:11 ESP12E-S1 25.20 24.86 41.70
10687 2019-07-05 21:04:55 ESP12E-S1 25.60 25.29 41.00
10686 2019-07-05 20:36:50 ESP12E-S1 26.10 25.84 41.10
10685 2019-07-05 20:08:41 ESP12E-S1 26.50 26.49 39.50
10684 2019-07-05 19:40:29 ESP12E-S1 26.90 26.71 38.40
10683 2019-07-05 19:12:16 ESP12E-S1 27.50 27.11 37.50
10682 2019-07-05 18:44:12 ESP12E-S1 28.00 27.45 36.60
10681 2019-07-05 18:15:59 ESP12E-S1 28.30 27.61 35.30
10680 2019-07-05 17:47:36 ESP12E-S1 28.50 27.75 34.90
10679 2019-07-05 17:19:20 ESP12E-S1 29.20 28.31 34.00
10678 2019-07-05 16:51:04 ESP12E-S1 29.70 28.73 33.40
10677 2019-07-05 16:22:48 ESP12E-S1 30.30 29.39 34.10
10676 2019-07-05 15:54:40 ESP12E-S1 31.70 30.76 32.40
10675 2019-07-05 15:26:14 ESP12E-S1 31.50 30.66 33.50
10674 2019-07-05 14:58:04 ESP12E-S1 31.90 30.98 32.30
10673 2019-07-05 14:29:57 ESP12E-S1 31.90 30.91 31.80
10672 2019-07-05 14:01:37 ESP12E-S1 32.40 31.85 34.10
10671 2019-07-05 13:33:13 ESP12E-S1 31.80 31.27 35.40
10670 2019-07-05 13:04:29 ESP12E-S1 29.60 28.95 37.10
10669 2019-07-05 12:36:07 ESP12E-S1 26.50 26.67 43.50
10668 2019-07-05 12:07:29 ESP12E-S1 24.60 24.21 42.10
10667 2019-07-05 11:39:03 ESP12E-S1 23.50 23.07 44.60
10666 2019-07-05 11:10:59 ESP12E-S1 23.20 22.75 44.80
10665 2019-07-05 10:42:25 ESP12E-S1 22.30 21.79 46.00
10664 2019-07-05 10:14:16 ESP12E-S1 21.40 20.80 46.00
10663 2019-07-05 09:45:51 ESP12E-S1 21.40 20.77 44.80
10662 2019-07-05 09:17:28 ESP12E-S1 20.90 20.23 45.20
10661 2019-07-05 08:49:03 ESP12E-S1 20.00 19.27 46.60
10660 2019-07-05 08:20:39 ESP12E-S1 19.40 18.65 47.90
10659 2019-07-05 07:52:38 ESP12E-S1 19.10 18.32 47.90
10658 2019-07-05 07:24:09 ESP12E-S1 18.80 18.03 49.40
10657 2019-07-05 06:55:49 ESP12E-S1 18.80 18.05 50.50
10656 2019-07-05 06:27:41 ESP12E-S1 18.60 17.82 49.90
10655 2019-07-05 05:59:16 ESP12E-S1 18.50 17.67 48.30
10654 2019-07-05 05:30:55 ESP12E-S1 18.40 17.55 47.90
10653 2019-07-05 05:02:37 ESP12E-S1 18.60 17.74 47.00
10652 2019-07-05 04:34:22 ESP12E-S1 18.70 17.83 46.10
10651 2019-07-05 04:06:02 ESP12E-S1 18.80 17.92 45.30
10650 2019-07-05 03:37:45 ESP12E-S1 19.10 18.25 45.40
10649 2019-07-05 03:09:30 ESP12E-S1 19.50 18.66 44.20
10648 2019-07-05 02:41:14 ESP12E-S1 20.30 19.45 40.60
10647 2019-07-05 02:12:54 ESP12E-S1 20.70 19.88 40.40
10646 2019-07-05 01:44:35 ESP12E-S1 20.90 20.11 40.90
10645 2019-07-05 01:16:16 ESP12E-S1 21.00 20.24 41.40
10644 2019-07-05 00:47:57 ESP12E-S1 21.20 20.43 40.40
10643 2019-07-05 00:19:37 ESP12E-S1 21.30 20.56 41.00
10642 2019-07-04 23:51:16 ESP12E-S1 21.20 20.47 42.00
10641 2019-07-04 23:22:58 ESP12E-S1 21.60 20.90 41.40
10640 2019-07-04 22:54:42 ESP12E-S1 21.80 21.12 41.70
10639 2019-07-04 22:26:25 ESP12E-S1 22.30 21.68 42.00
10638 2019-07-04 21:58:09 ESP12E-S1 22.80 22.24 42.30
10637 2019-07-04 21:29:54 ESP12E-S1 23.40 22.88 41.50
10636 2019-07-04 21:01:40 ESP12E-S1 24.40 23.93 39.80
10635 2019-07-04 20:33:23 ESP12E-S1 24.90 24.37 35.50
10634 2019-07-04 20:05:03 ESP12E-S1 25.30 24.77 33.90
10633 2019-07-04 19:36:45 ESP12E-S1 25.70 25.16 32.10
10632 2019-07-04 19:08:29 ESP12E-S1 26.20 25.72 32.50
10631 2019-07-04 18:40:10 ESP12E-S1 26.60 26.28 32.60
10630 2019-07-04 18:11:51 ESP12E-S1 27.00 26.55 33.10
10629 2019-07-04 17:43:37 ESP12E-S1 27.40 26.75 31.70
10628 2019-07-04 17:15:20 ESP12E-S1 28.20 27.29 30.90
10627 2019-07-04 16:47:01 ESP12E-S1 28.50 27.59 32.20
10626 2019-07-04 16:18:48 ESP12E-S1 29.10 28.04 31.30
10625 2019-07-04 15:50:40 ESP12E-S1 30.10 28.81 29.50
10624 2019-07-04 15:22:20 ESP12E-S1 30.50 29.34 31.30
10623 2019-07-04 14:54:11 ESP12E-S1 31.30 29.99 29.40
10622 2019-07-04 14:25:54 ESP12E-S1 31.00 29.64 28.90
10621 2019-07-04 13:57:38 ESP12E-S1 31.50 30.35 30.80
10620 2019-07-04 13:29:13 ESP12E-S1 31.70 30.44 29.60
10619 2019-07-04 13:00:38 ESP12E-S1 28.90 27.93 32.40
10618 2019-07-04 12:32:28 ESP12E-S1 26.90 26.65 37.10
10617 2019-07-04 12:04:01 ESP12E-S1 27.00 26.69 36.40
10616 2019-07-04 11:35:55 ESP12E-S1 26.10 25.73 36.80
10615 2019-07-04 11:07:38 ESP12E-S1 24.60 24.16 40.00
10614 2019-07-04 10:39:20 ESP12E-S1 22.90 22.31 40.60
10613 2019-07-04 10:10:41 ESP12E-S1 21.60 20.89 41.00
10612 2019-07-04 09:42:11 ESP12E-S1 20.30 19.50 42.70
10611 2019-07-04 09:13:40 ESP12E-S1 19.10 18.24 45.00
10610 2019-07-04 08:45:36 ESP12E-S1 17.80 16.82 45.50
10609 2019-07-04 08:17:02 ESP12E-S1 17.20 16.18 46.00
10608 2019-07-04 07:49:07 ESP12E-S1 16.90 15.84 45.80
10607 2019-07-04 07:20:34 ESP12E-S1 16.60 15.55 47.30
10606 2019-07-04 06:52:13 ESP12E-S1 16.30 15.23 47.80
10605 2019-07-04 06:23:55 ESP12E-S1 16.20 15.10 46.80
10604 2019-07-04 05:55:36 ESP12E-S1 16.10 14.96 45.90
10603 2019-07-04 05:27:17 ESP12E-S1 16.20 15.08 46.20
10602 2019-07-04 04:58:58 ESP12E-S1 16.50 15.39 45.20
10601 2019-07-04 04:30:41 ESP12E-S1 16.80 15.70 44.50
10600 2019-07-04 04:02:21 ESP12E-S1 17.10 16.02 44.10
10599 2019-07-04 03:34:04 ESP12E-S1 17.30 16.21 43.20
10598 2019-07-04 03:05:46 ESP12E-S1 17.60 16.53 42.60
10597 2019-07-04 02:37:28 ESP12E-S1 17.80 16.74 42.20
10596 2019-07-04 02:09:10 ESP12E-S1 18.00 16.95 42.00
10595 2019-07-04 01:40:52 ESP12E-S1 18.30 17.28 42.00
10594 2019-07-04 01:12:35 ESP12E-S1 18.50 17.50 41.80
10593 2019-07-04 00:44:16 ESP12E-S1 18.90 17.92 41.30
10592 2019-07-04 00:15:59 ESP12E-S1 19.30 18.36 41.30
10591 2019-07-03 23:47:43 ESP12E-S1 19.60 18.70 41.60
10590 2019-07-03 23:19:25 ESP12E-S1 19.90 19.02 41.10
10589 2019-07-03 22:51:07 ESP12E-S1 20.30 19.44 40.50
10588 2019-07-03 22:22:49 ESP12E-S1 20.80 20.00 40.90
10587 2019-07-03 21:54:33 ESP12E-S1 21.40 20.65 40.30
10586 2019-07-03 21:26:18 ESP12E-S1 22.00 21.30 40.10
10585 2019-07-03 20:58:11 ESP12E-S1 22.80 22.19 40.50
10584 2019-07-03 20:29:52 ESP12E-S1 23.50 22.97 40.70
10583 2019-07-03 20:01:35 ESP12E-S1 24.20 23.65 37.30
10582 2019-07-03 19:33:19 ESP12E-S1 24.90 24.42 37.40
10581 2019-07-03 19:05:00 ESP12E-S1 25.40 24.95 36.40
10580 2019-07-03 18:36:42 ESP12E-S1 25.90 25.43 34.00
10579 2019-07-03 18:08:23 ESP12E-S1 26.40 26.03 35.90
10578 2019-07-03 17:40:05 ESP12E-S1 26.80 26.50 35.00
10577 2019-07-03 17:12:14 ESP12E-S1 27.30 26.84 35.10
10576 2019-07-03 16:43:46 ESP12E-S1 27.90 27.22 34.00
10575 2019-07-03 16:15:33 ESP12E-S1 28.60 27.83 34.70
10574 2019-07-03 15:47:17 ESP12E-S1 29.50 28.56 33.70
10573 2019-07-03 15:19:00 ESP12E-S1 30.20 29.14 32.50
10572 2019-07-03 14:50:38 ESP12E-S1 30.70 29.71 33.00
10571 2019-07-03 14:22:26 ESP12E-S1 30.70 29.66 32.50
10570 2019-07-03 13:54:07 ESP12E-S1 31.60 30.72 33.10
10569 2019-07-03 13:25:44 ESP12E-S1 30.40 29.51 34.20
10568 2019-07-03 12:56:50 ESP12E-S1 27.20 26.84 36.70
10567 2019-07-03 12:28:26 ESP12E-S1 26.10 25.77 38.30
10566 2019-07-03 12:00:16 ESP12E-S1 26.30 25.99 38.40
10565 2019-07-03 11:31:52 ESP12E-S1 25.70 25.36 39.60
10564 2019-07-03 11:03:24 ESP12E-S1 24.50 24.05 40.10
10563 2019-07-03 10:35:01 ESP12E-S1 22.20 21.61 43.30
10562 2019-07-03 10:06:44 ESP12E-S1 21.80 21.20 44.50
10561 2019-07-03 09:38:10 ESP12E-S1 20.80 20.08 44.00
10560 2019-07-03 09:09:58 ESP12E-S1 19.50 18.68 45.00
10559 2019-07-03 08:41:24 ESP12E-S1 18.10 17.18 46.50
10558 2019-07-03 08:13:01 ESP12E-S1 17.50 16.55 47.70
10557 2019-07-03 07:44:39 ESP12E-S1 17.00 16.03 48.80
10556 2019-07-03 07:16:17 ESP12E-S1 16.50 15.53 50.80
10555 2019-07-03 06:47:57 ESP12E-S1 16.30 15.27 49.30
10554 2019-07-03 06:19:39 ESP12E-S1 16.40 15.36 48.40
10553 2019-07-03 05:51:18 ESP12E-S1 16.40 15.36 48.30
10552 2019-07-03 05:22:58 ESP12E-S1 16.40 15.33 47.30
10551 2019-07-03 04:54:40 ESP12E-S1 16.50 15.44 47.40
10550 2019-07-03 04:26:22 ESP12E-S1 16.80 15.77 47.30
10549 2019-07-03 03:58:04 ESP12E-S1 17.00 15.99 47.40
10548 2019-07-03 03:29:47 ESP12E-S1 17.30 16.29 46.10
10547 2019-07-03 03:01:31 ESP12E-S1 17.70 16.71 45.50
10546 2019-07-03 02:33:16 ESP12E-S1 18.20 17.27 45.70
10545 2019-07-03 02:05:00 ESP12E-S1 18.60 17.68 44.50
10544 2019-07-03 01:36:43 ESP12E-S1 18.90 17.99 44.00
10543 2019-07-03 01:08:26 ESP12E-S1 19.20 18.31 43.50
10542 2019-07-03 00:40:08 ESP12E-S1 19.50 18.64 43.30
10541 2019-07-03 00:11:49 ESP12E-S1 19.70 18.85 43.20
10540 2019-07-02 23:43:33 ESP12E-S1 20.00 19.19 43.60
10539 2019-07-02 23:15:17 ESP12E-S1 20.40 19.63 43.50
10538 2019-07-02 22:46:57 ESP12E-S1 20.80 20.08 44.00
10537 2019-07-02 22:18:38 ESP12E-S1 21.10 20.44 44.90
10536 2019-07-02 21:50:21 ESP12E-S1 21.40 20.76 44.50
10535 2019-07-02 21:22:06 ESP12E-S1 22.00 21.44 45.20
10534 2019-07-02 20:53:49 ESP12E-S1 22.60 22.05 43.60
10533 2019-07-02 20:25:32 ESP12E-S1 23.10 22.62 44.10
10532 2019-07-02 19:57:15 ESP12E-S1 23.70 23.25 42.90
10531 2019-07-02 19:28:58 ESP12E-S1 24.20 23.78 42.40
10530 2019-07-02 19:00:42 ESP12E-S1 24.90 24.48 39.60
10529 2019-07-02 18:32:24 ESP12E-S1 25.60 25.24 39.30
10528 2019-07-02 18:04:12 ESP12E-S1 26.10 25.76 38.20
10527 2019-07-02 17:35:53 ESP12E-S1 26.50 26.41 37.40
10526 2019-07-02 17:07:47 ESP12E-S1 26.90 26.72 38.60
10525 2019-07-02 16:39:22 ESP12E-S1 26.90 26.77 39.50
10524 2019-07-02 16:11:14 ESP12E-S1 27.70 27.20 36.40
10523 2019-07-02 15:42:57 ESP12E-S1 29.00 28.38 37.30
10522 2019-07-02 15:14:48 ESP12E-S1 27.80 27.45 39.40
10521 2019-07-02 14:46:31 ESP12E-S1 29.50 28.89 37.50
10520 2019-07-02 14:18:05 ESP12E-S1 28.50 28.03 38.80
10519 2019-07-02 13:49:34 ESP12E-S1 29.00 28.59 39.80
10518 2019-07-02 13:21:21 ESP12E-S1 30.00 29.55 38.80
10517 2019-07-02 12:53:09 ESP12E-S1 27.40 27.20 40.60
10516 2019-07-02 12:24:46 ESP12E-S1 26.20 25.99 42.80
10515 2019-07-02 11:56:17 ESP12E-S1 25.20 24.92 44.00
10514 2019-07-02 11:28:02 ESP12E-S1 23.70 23.37 47.80
10513 2019-07-02 10:59:41 ESP12E-S1 22.90 22.47 46.90
10512 2019-07-02 10:31:14 ESP12E-S1 22.00 21.49 47.40
10511 2019-07-02 10:02:49 ESP12E-S1 21.80 21.30 48.40
10510 2019-07-02 09:34:20 ESP12E-S1 21.20 20.72 51.60
10509 2019-07-02 09:05:50 ESP12E-S1 19.60 19.07 55.90
10508 2019-07-02 08:37:36 ESP12E-S1 18.60 18.06 59.30
10507 2019-07-02 08:09:28 ESP12E-S1 18.00 17.43 60.40
10506 2019-07-02 07:41:02 ESP12E-S1 17.60 17.01 61.20
10505 2019-07-02 07:12:42 ESP12E-S1 17.30 16.70 61.80
10504 2019-07-02 06:44:21 ESP12E-S1 17.20 16.56 60.60
10503 2019-07-02 06:16:03 ESP12E-S1 17.40 16.74 59.20
10502 2019-07-02 05:47:45 ESP12E-S1 17.60 16.92 57.60
10501 2019-07-02 05:19:28 ESP12E-S1 18.20 17.51 54.90
10500 2019-07-02 04:51:12 ESP12E-S1 18.90 18.23 53.00
10499 2019-07-02 04:22:55 ESP12E-S1 19.40 18.73 51.20
10498 2019-07-02 03:54:36 ESP12E-S1 19.50 18.84 51.30
10497 2019-07-02 03:26:19 ESP12E-S1 19.90 19.26 50.30
10496 2019-07-02 02:58:01 ESP12E-S1 20.10 19.45 49.20
10495 2019-07-02 02:29:44 ESP12E-S1 20.50 19.82 46.70
10494 2019-07-02 02:01:26 ESP12E-S1 20.80 20.09 44.30
10493 2019-07-02 01:33:08 ESP12E-S1 21.20 20.63 48.00
10492 2019-07-02 01:04:51 ESP12E-S1 21.60 21.05 47.20
10491 2019-07-02 00:36:34 ESP12E-S1 21.90 21.36 46.60
10490 2019-07-02 00:08:16 ESP12E-S1 22.20 21.67 45.60
10489 2019-07-01 23:39:58 ESP12E-S1 22.40 21.93 47.10
10488 2019-07-01 23:11:39 ESP12E-S1 22.70 22.25 46.80
10487 2019-07-01 22:43:24 ESP12E-S1 23.10 22.67 46.30
10486 2019-07-01 22:15:08 ESP12E-S1 23.70 23.30 45.10
10485 2019-07-01 21:46:51 ESP12E-S1 24.20 23.84 44.60
10484 2019-07-01 21:18:33 ESP12E-S1 24.60 24.26 44.00
10483 2019-07-01 20:50:16 ESP12E-S1 25.20 24.91 43.30
10482 2019-07-01 20:21:58 ESP12E-S1 25.50 25.26 44.20
10481 2019-07-01 19:53:41 ESP12E-S1 26.00 25.81 44.20
10480 2019-07-01 19:25:24 ESP12E-S1 26.30 26.56 44.30
10479 2019-07-01 18:57:08 ESP12E-S1 27.10 27.21 45.00
10478 2019-07-01 18:28:51 ESP12E-S1 28.00 27.96 44.10
10477 2019-07-01 18:00:32 ESP12E-S1 28.30 28.26 44.20
10476 2019-07-01 17:32:13 ESP12E-S1 28.20 28.45 47.60
10475 2019-07-01 17:03:57 ESP12E-S1 29.40 29.11 40.90
10474 2019-07-01 16:35:42 ESP12E-S1 30.10 29.80 40.00
10473 2019-07-01 16:07:29 ESP12E-S1 30.90 30.54 38.20
10472 2019-07-01 15:39:10 ESP12E-S1 32.10 32.26 39.10
10471 2019-07-01 15:10:52 ESP12E-S1 32.00 31.77 37.00
10470 2019-07-01 14:42:31 ESP12E-S1 31.70 31.36 36.90
10469 2019-07-01 14:14:16 ESP12E-S1 32.50 32.39 36.60
10468 2019-07-01 13:45:47 ESP12E-S1 31.40 32.10 43.90
10467 2019-07-01 13:16:57 ESP12E-S1 27.60 28.03 50.20
10466 2019-07-01 12:48:30 ESP12E-S1 25.80 25.87 55.10
10465 2019-07-01 12:20:20 ESP12E-S1 27.20 27.42 47.10
10464 2019-07-01 11:52:06 ESP12E-S1 27.80 27.94 46.40
10463 2019-07-01 11:23:52 ESP12E-S1 28.30 28.41 45.90
10462 2019-07-01 10:55:26 ESP12E-S1 27.10 27.51 50.00
10461 2019-07-01 10:26:47 ESP12E-S1 25.10 25.06 53.40
10460 2019-07-01 09:58:20 ESP12E-S1 24.90 24.83 52.90
10459 2019-07-01 09:29:52 ESP12E-S1 23.70 23.54 54.00
10458 2019-07-01 09:01:30 ESP12E-S1 23.70 23.60 56.50
10457 2019-07-01 08:33:10 ESP12E-S1 23.70 23.67 59.10
10456 2019-07-01 08:04:53 ESP12E-S1 24.00 23.97 57.90
10455 2019-07-01 07:36:29 ESP12E-S1 23.80 23.75 57.90
10454 2019-07-01 07:08:08 ESP12E-S1 23.90 23.88 58.60
10453 2019-07-01 06:39:49 ESP12E-S1 24.20 24.19 58.10
10452 2019-07-01 02:35:05 ESP12E-S1 26.00 26.78 55.90
10451 2019-07-01 02:06:47 ESP12E-S1 26.30 27.06 55.90
10450 2019-07-01 01:38:29 ESP12E-S1 26.60 27.29 54.60
10449 2019-07-01 01:10:10 ESP12E-S1 26.80 27.47 54.20
10448 2019-07-01 00:41:51 ESP12E-S1 27.20 27.89 54.10
10447 2019-07-01 00:13:32 ESP12E-S1 27.40 28.13 54.30
10446 2019-06-30 23:45:14 ESP12E-S1 27.80 28.52 53.40
10445 2019-06-30 23:16:56 ESP12E-S1 28.20 29.05 53.70
10444 2019-06-30 22:48:40 ESP12E-S1 28.70 29.64 53.10
10443 2019-06-30 22:20:24 ESP12E-S1 29.50 30.71 52.60
10442 2019-06-30 21:52:17 ESP12E-S1 30.40 31.97 51.80
10441 2019-06-30 21:24:02 ESP12E-S1 31.50 33.53 50.30
10440 2019-06-30 20:55:48 ESP12E-S1 32.40 34.46 47.40
10439 2019-06-30 20:27:32 ESP12E-S1 32.80 35.24 47.60
10438 2019-06-30 19:59:15 ESP12E-S1 33.30 35.51 45.10
10437 2019-06-30 19:30:59 ESP12E-S1 33.80 35.62 42.10
10436 2019-06-30 19:02:41 ESP12E-S1 34.30 36.59 42.30
10435 2019-06-30 18:34:36 ESP12E-S1 34.90 37.36 41.10
10434 2019-06-30 18:06:17 ESP12E-S1 35.50 38.00 39.50
10433 2019-06-30 17:38:01 ESP12E-S1 36.10 37.52 34.40
10432 2019-06-30 17:09:42 ESP12E-S1 36.40 37.66 33.10
10431 2019-06-30 16:41:22 ESP12E-S1 36.50 38.42 35.00
10430 2019-06-30 16:13:05 ESP12E-S1 36.90 38.59 33.30
10429 2019-06-30 15:44:43 ESP12E-S1 37.40 39.85 34.30
10428 2019-06-30 15:16:25 ESP12E-S1 37.10 39.46 34.80
10427 2019-06-30 14:48:05 ESP12E-S1 37.10 39.60 35.20
10426 2019-06-30 14:19:48 ESP12E-S1 37.50 40.68 36.00
10425 2019-06-30 13:51:30 ESP12E-S1 37.60 40.53 35.10
10424 2019-06-30 13:23:00 ESP12E-S1 36.80 40.07 38.10
10423 2019-06-30 12:54:22 ESP12E-S1 34.40 36.40 41.00
10422 2019-06-30 12:26:01 ESP12E-S1 33.10 34.68 43.20
10421 2019-06-30 11:57:38 ESP12E-S1 32.70 33.91 42.80
10420 2019-06-30 11:29:11 ESP12E-S1 31.60 32.55 44.70
10419 2019-06-30 11:00:44 ESP12E-S1 30.30 30.85 45.90
10418 2019-06-30 10:32:14 ESP12E-S1 28.70 28.97 47.10
10417 2019-06-30 10:03:45 ESP12E-S1 27.40 27.73 48.90
10416 2019-06-30 09:35:15 ESP12E-S1 26.10 26.70 51.60
10415 2019-06-30 09:06:44 ESP12E-S1 24.70 24.60 52.60
10414 2019-06-30 08:38:17 ESP12E-S1 23.30 23.06 52.50
10413 2019-06-30 08:09:52 ESP12E-S1 22.60 22.29 52.50
10412 2019-06-30 07:41:31 ESP12E-S1 22.20 21.96 56.70
10411 2019-06-30 07:13:10 ESP12E-S1 21.90 21.62 56.40
10410 2019-06-30 06:44:51 ESP12E-S1 21.80 21.45 54.00
10409 2019-06-30 06:16:37 ESP12E-S1 21.90 21.49 51.50
10408 2019-06-30 05:48:16 ESP12E-S1 22.00 21.56 50.00
10407 2019-06-30 05:19:57 ESP12E-S1 22.10 21.64 48.80
10406 2019-06-30 04:51:37 ESP12E-S1 22.30 21.85 48.50
10405 2019-06-30 04:23:20 ESP12E-S1 22.60 22.16 47.70
10404 2019-06-30 03:55:02 ESP12E-S1 22.80 22.38 47.70
10403 2019-06-30 03:26:43 ESP12E-S1 22.90 22.48 47.20
10402 2019-06-30 02:58:25 ESP12E-S1 23.10 22.68 46.40
10401 2019-06-30 02:30:07 ESP12E-S1 23.30 22.89 46.10
10400 2019-06-30 02:01:49 ESP12E-S1 23.70 23.31 45.40
10399 2019-06-30 01:33:31 ESP12E-S1 23.80 23.41 45.10
10398 2019-06-30 01:05:15 ESP12E-S1 24.20 23.85 44.90
10397 2019-06-30 00:36:59 ESP12E-S1 24.70 24.36 43.50
10396 2019-06-30 00:08:43 ESP12E-S1 25.10 24.78 42.60
10395 2019-06-29 23:40:28 ESP12E-S1 25.50 25.20 42.10
10394 2019-06-29 23:12:00 ESP12E-S1 26.00 25.72 40.80
10393 2019-06-29 22:43:20 ESP12E-S1 26.40 26.44 39.80
10392 2019-06-29 22:15:13 ESP12E-S1 26.90 26.72 38.50
10391 2019-06-29 21:47:02 ESP12E-S1 27.70 27.27 37.70
10390 2019-06-29 21:18:51 ESP12E-S1 28.40 27.81 37.10
10389 2019-06-29 20:50:44 ESP12E-S1 29.10 28.57 38.40
10388 2019-06-29 20:22:13 ESP12E-S1 29.70 29.08 37.40
10387 2019-06-29 19:52:50 ESP12E-S1 30.30 29.29 33.00
10386 2019-06-29 19:24:33 ESP12E-S1 30.80 29.70 31.90
10385 2019-06-29 18:56:17 ESP12E-S1 31.20 29.92 29.80
10384 2019-06-29 18:27:57 ESP12E-S1 31.60 30.43 30.60
10383 2019-06-29 17:59:40 ESP12E-S1 32.00 30.78 29.70
10382 2019-06-29 17:31:26 ESP12E-S1 32.50 31.45 30.40
10381 2019-06-29 17:03:09 ESP12E-S1 32.90 31.88 30.00
10380 2019-06-29 16:34:52 ESP12E-S1 33.30 32.56 31.20
10379 2019-06-29 16:06:43 ESP12E-S1 34.40 34.45 33.10
10378 2019-06-29 15:38:23 ESP12E-S1 34.90 34.29 28.80
10377 2019-06-29 15:10:03 ESP12E-S1 34.70 34.25 30.00
10376 2019-06-29 14:41:46 ESP12E-S1 34.90 34.61 30.40
10375 2019-06-29 14:13:32 ESP12E-S1 35.80 35.62 29.00
10374 2019-06-29 13:45:39 ESP12E-S1 35.70 35.82 30.50
10373 2019-06-29 13:17:01 ESP12E-S1 35.20 35.30 31.50
10372 2019-06-29 12:48:13 ESP12E-S1 31.80 31.34 35.90
10371 2019-06-29 12:19:55 ESP12E-S1 31.20 30.87 37.90
10370 2019-06-29 11:51:29 ESP12E-S1 30.60 30.16 38.10
10369 2019-06-29 11:23:03 ESP12E-S1 29.50 28.88 37.40
10368 2019-06-29 10:54:35 ESP12E-S1 27.90 27.52 39.10
10367 2019-06-29 10:26:07 ESP12E-S1 26.50 26.53 40.30
10366 2019-06-29 09:57:44 ESP12E-S1 25.10 24.84 44.80
10365 2019-06-29 09:29:11 ESP12E-S1 23.70 23.32 45.70
10364 2019-06-29 09:00:41 ESP12E-S1 22.40 21.94 47.70
10363 2019-06-29 08:32:20 ESP12E-S1 21.40 20.86 48.60
10362 2019-06-29 08:03:58 ESP12E-S1 20.90 20.26 46.60
10361 2019-06-29 07:35:36 ESP12E-S1 20.50 19.84 47.40
10360 2019-06-29 07:07:16 ESP12E-S1 20.20 19.54 48.30
10359 2019-06-29 06:38:56 ESP12E-S1 20.00 19.32 48.40
10358 2019-06-29 06:10:40 ESP12E-S1 19.90 19.22 48.90
10357 2019-06-29 05:42:24 ESP12E-S1 20.20 19.52 47.70
10356 2019-06-29 05:14:06 ESP12E-S1 20.60 19.94 47.00
10355 2019-06-29 04:45:49 ESP12E-S1 20.80 20.15 46.50
10354 2019-06-29 04:17:31 ESP12E-S1 20.80 20.16 46.80
10353 2019-06-29 03:49:16 ESP12E-S1 21.10 20.48 46.40
10352 2019-06-29 03:20:57 ESP12E-S1 21.10 20.48 46.50
10351 2019-06-29 02:52:39 ESP12E-S1 21.20 20.57 45.90
10350 2019-06-29 02:24:21 ESP12E-S1 21.20 20.59 46.40
10349 2019-06-29 01:56:04 ESP12E-S1 21.50 20.91 46.30
10348 2019-06-29 01:27:48 ESP12E-S1 21.90 21.31 44.70
10347 2019-06-29 00:59:32 ESP12E-S1 22.30 21.73 43.80
10346 2019-06-29 00:31:17 ESP12E-S1 22.80 22.27 43.30
10345 2019-06-29 00:03:01 ESP12E-S1 23.30 22.79 42.30
10344 2019-06-28 23:34:44 ESP12E-S1 23.90 23.45 42.40
10343 2019-06-28 23:06:26 ESP12E-S1 24.20 23.78 42.30
10342 2019-06-28 22:38:09 ESP12E-S1 24.50 24.08 41.00
10341 2019-06-28 22:09:54 ESP12E-S1 24.90 24.48 39.60
10340 2019-06-28 21:41:37 ESP12E-S1 25.30 24.88 38.20
10339 2019-06-28 21:13:20 ESP12E-S1 25.80 25.39 36.50
10338 2019-06-28 20:45:10 ESP12E-S1 26.20 25.81 35.80
10337 2019-06-28 20:16:58 ESP12E-S1 26.70 26.45 35.30
10336 2019-06-28 19:48:42 ESP12E-S1 27.20 26.73 34.40
10335 2019-06-28 19:20:25 ESP12E-S1 28.00 27.23 32.70
10334 2019-06-28 18:52:14 ESP12E-S1 28.50 27.57 31.80
10333 2019-06-28 18:23:55 ESP12E-S1 29.00 28.11 33.80
10332 2019-06-28 17:55:38 ESP12E-S1 29.50 28.39 31.40
10331 2019-06-28 17:27:22 ESP12E-S1 30.20 28.96 30.30
10330 2019-06-28 16:59:05 ESP12E-S1 30.70 29.54 31.30
10329 2019-06-28 16:30:51 ESP12E-S1 31.40 30.20 30.50
10328 2019-06-28 16:02:44 ESP12E-S1 32.50 31.32 29.40
10327 2019-06-28 15:34:19 ESP12E-S1 32.80 31.71 29.70
10326 2019-06-28 15:06:02 ESP12E-S1 33.10 32.04 29.40
10325 2019-06-28 14:37:46 ESP12E-S1 33.10 32.21 30.60
10324 2019-06-28 14:09:31 ESP12E-S1 33.70 32.94 30.30
10323 2019-06-28 13:41:11 ESP12E-S1 33.80 33.50 32.70
10322 2019-06-28 13:12:44 ESP12E-S1 32.90 32.59 34.60
10321 2019-06-28 12:44:01 ESP12E-S1 29.50 29.21 40.80
10320 2019-06-28 12:15:42 ESP12E-S1 29.10 28.94 42.40
10319 2019-06-28 11:47:19 ESP12E-S1 28.30 28.17 43.10
10318 2019-06-28 11:18:43 ESP12E-S1 27.00 27.28 47.70
10317 2019-06-28 10:50:13 ESP12E-S1 25.50 25.41 49.90
10316 2019-06-28 10:21:44 ESP12E-S1 24.20 24.02 51.60
10315 2019-06-28 09:53:15 ESP12E-S1 22.90 22.63 53.00
10314 2019-06-28 09:24:48 ESP12E-S1 21.80 21.47 54.90
10313 2019-06-28 08:56:20 ESP12E-S1 20.60 20.18 56.10
10312 2019-06-28 08:27:57 ESP12E-S1 19.90 19.46 57.90
10311 2019-06-28 07:59:36 ESP12E-S1 19.50 19.01 57.50
10310 2019-06-28 07:31:16 ESP12E-S1 19.10 18.55 57.00
10309 2019-06-28 07:02:56 ESP12E-S1 18.60 18.02 57.80
10308 2019-06-28 06:34:39 ESP12E-S1 18.80 18.22 56.80
10307 2019-06-28 06:06:20 ESP12E-S1 18.70 18.10 56.50
10306 2019-06-28 05:38:01 ESP12E-S1 18.80 18.19 55.80
10305 2019-06-28 05:09:44 ESP12E-S1 19.10 18.52 55.80
10304 2019-06-28 04:41:29 ESP12E-S1 19.40 18.84 55.30
10303 2019-06-28 04:13:11 ESP12E-S1 19.70 19.15 54.60
10302 2019-06-28 03:44:55 ESP12E-S1 20.20 19.68 53.80
10301 2019-06-28 03:16:42 ESP12E-S1 21.00 20.52 52.30
10300 2019-06-28 02:48:26 ESP12E-S1 21.70 21.23 50.00
10299 2019-06-28 02:20:12 ESP12E-S1 22.10 21.65 49.30
10298 2019-06-28 01:51:57 ESP12E-S1 22.30 21.83 47.50
10297 2019-06-28 01:23:40 ESP12E-S1 22.70 22.22 45.70
10296 2019-06-28 00:55:23 ESP12E-S1 23.10 22.61 43.90
10295 2019-06-28 00:27:06 ESP12E-S1 23.40 22.93 43.50
10294 2019-06-27 23:58:49 ESP12E-S1 24.00 23.58 43.00
10293 2019-06-27 23:30:32 ESP12E-S1 24.40 23.99 42.00
10292 2019-06-27 23:02:15 ESP12E-S1 24.90 24.53 41.40
10291 2019-06-27 22:33:58 ESP12E-S1 25.50 25.16 40.50
10290 2019-06-27 22:05:42 ESP12E-S1 26.00 25.70 40.10
10289 2019-06-27 21:37:26 ESP12E-S1 26.60 26.53 38.70
10288 2019-06-27 21:09:10 ESP12E-S1 27.30 26.96 37.50
10287 2019-06-27 20:40:55 ESP12E-S1 28.00 27.46 36.90
10286 2019-06-27 20:12:39 ESP12E-S1 28.50 27.75 34.90
10285 2019-06-27 19:44:23 ESP12E-S1 29.20 28.35 34.50
10284 2019-06-27 19:16:06 ESP12E-S1 29.80 29.34 38.90
10283 2019-06-27 18:47:55 ESP12E-S1 31.00 30.19 34.40
10282 2019-06-27 18:19:38 ESP12E-S1 31.50 30.55 32.60
10281 2019-06-27 17:51:23 ESP12E-S1 32.10 31.34 33.20
10280 2019-06-27 17:23:07 ESP12E-S1 32.50 31.74 32.50
10279 2019-06-27 16:54:51 ESP12E-S1 33.10 32.69 33.60
10278 2019-06-27 16:26:36 ESP12E-S1 33.90 33.51 32.00
10277 2019-06-27 15:58:32 ESP12E-S1 35.50 35.78 31.60
10276 2019-06-27 15:30:07 ESP12E-S1 35.60 35.89 31.40
10275 2019-06-27 15:01:52 ESP12E-S1 36.20 36.63 30.60
10274 2019-06-27 14:33:42 ESP12E-S1 36.40 36.87 30.30
10273 2019-06-27 14:05:28 ESP12E-S1 37.50 39.10 31.60
10272 2019-06-27 13:37:08 ESP12E-S1 37.90 40.10 32.40
10271 2019-06-27 13:08:31 ESP12E-S1 36.20 37.85 34.90
10270 2019-06-27 12:39:56 ESP12E-S1 33.00 33.27 37.50
10269 2019-06-27 12:11:39 ESP12E-S1 33.00 33.68 39.50
10268 2019-06-27 11:43:19 ESP12E-S1 32.40 33.16 41.50
10267 2019-06-27 11:14:51 ESP12E-S1 31.00 31.45 43.50
10266 2019-06-27 10:46:22 ESP12E-S1 29.70 30.03 45.80
10265 2019-06-27 10:17:54 ESP12E-S1 28.10 28.39 48.10
10264 2019-06-27 09:49:25 ESP12E-S1 26.80 27.34 51.90
10263 2019-06-27 09:20:57 ESP12E-S1 25.80 25.79 52.00
10262 2019-06-27 08:52:32 ESP12E-S1 25.00 24.95 53.60
10261 2019-06-27 08:24:09 ESP12E-S1 24.40 24.37 56.40
10260 2019-06-27 07:55:48 ESP12E-S1 24.10 24.06 57.40
10259 2019-06-27 07:27:27 ESP12E-S1 24.00 24.02 59.90
10258 2019-06-27 06:59:07 ESP12E-S1 24.00 24.05 61.00
10257 2019-06-27 06:30:48 ESP12E-S1 23.80 23.88 63.10
10256 2019-06-27 06:02:30 ESP12E-S1 24.10 24.26 64.80
10255 2019-06-27 05:34:12 ESP12E-S1 24.40 24.61 65.80
10254 2019-06-27 05:05:57 ESP12E-S1 24.90 25.14 65.00
10253 2019-06-27 04:37:39 ESP12E-S1 25.10 25.37 65.40
10252 2019-06-27 04:09:21 ESP12E-S1 25.50 25.79 64.70
10251 2019-06-27 03:41:03 ESP12E-S1 25.90 26.93 63.10
10250 2019-06-27 03:12:46 ESP12E-S1 26.10 27.15 62.90
10249 2019-06-27 02:44:28 ESP12E-S1 26.60 27.67 61.30
10248 2019-06-27 02:16:11 ESP12E-S1 26.70 27.75 60.60
10247 2019-06-27 01:47:54 ESP12E-S1 27.10 28.20 59.90
10246 2019-06-27 01:19:40 ESP12E-S1 27.50 28.65 59.00
10245 2019-06-27 00:51:24 ESP12E-S1 28.00 29.14 57.10
10244 2019-06-27 00:23:06 ESP12E-S1 28.40 29.53 55.70
10243 2019-06-26 23:54:47 ESP12E-S1 28.70 29.85 54.80
10242 2019-06-26 23:26:29 ESP12E-S1 29.10 30.33 54.10
10241 2019-06-26 22:58:12 ESP12E-S1 29.60 31.02 53.70
10240 2019-06-26 22:29:53 ESP12E-S1 29.90 31.33 52.70
10239 2019-06-26 22:01:36 ESP12E-S1 30.20 31.77 52.50
10238 2019-06-26 21:33:20 ESP12E-S1 30.70 32.64 52.70
10237 2019-06-26 21:05:05 ESP12E-S1 31.50 34.03 52.50
10236 2019-06-26 20:36:51 ESP12E-S1 32.20 34.83 50.40
10235 2019-06-26 20:08:35 ESP12E-S1 32.80 35.83 49.80
10234 2019-06-26 19:40:20 ESP12E-S1 33.30 36.40 48.30
10233 2019-06-26 19:12:03 ESP12E-S1 33.90 37.28 47.20
10232 2019-06-26 18:43:45 ESP12E-S1 34.40 37.85 45.80
10231 2019-06-26 18:15:27 ESP12E-S1 34.80 38.41 45.00
10230 2019-06-26 17:47:10 ESP12E-S1 35.30 38.87 43.30
10229 2019-06-26 17:18:55 ESP12E-S1 35.90 40.32 43.80
10228 2019-06-26 16:50:37 ESP12E-S1 36.50 41.21 42.70
10227 2019-06-26 16:22:21 ESP12E-S1 37.00 42.25 42.50
10226 2019-06-26 15:54:12 ESP12E-S1 38.40 45.69 42.70
10225 2019-06-26 15:25:52 ESP12E-S1 38.80 46.22 41.80
10224 2019-06-26 14:57:44 ESP12E-S1 40.10 49.30 41.30
10223 2019-06-26 14:29:40 ESP12E-S1 40.10 50.79 43.70
10222 2019-06-26 14:01:21 ESP12E-S1 41.10 52.31 41.70
10221 2019-06-26 13:32:50 ESP12E-S1 40.50 51.87 43.60
10220 2019-06-26 13:04:08 ESP12E-S1 37.70 48.52 51.40
10219 2019-06-26 12:35:42 ESP12E-S1 35.20 41.85 51.70
10218 2019-06-26 12:07:23 ESP12E-S1 34.90 42.40 54.80
10217 2019-06-26 11:39:00 ESP12E-S1 34.10 41.54 57.80
10216 2019-06-26 11:10:30 ESP12E-S1 32.60 38.51 60.00
10215 2019-06-26 10:42:02 ESP12E-S1 31.20 37.05 66.40
10214 2019-06-26 10:13:32 ESP12E-S1 29.70 35.08 73.30
10213 2019-06-26 09:45:03 ESP12E-S1 28.40 33.47 81.90
10212 2019-06-26 09:16:33 ESP12E-S1 26.90 30.27 86.80
10211 2019-06-26 08:48:06 ESP12E-S1 25.50 26.82 92.80
10210 2019-06-26 08:19:42 ESP12E-S1 24.40 25.39 95.40
10209 2019-06-26 07:51:21 ESP12E-S1 24.50 25.19 83.60
10208 2019-06-26 07:23:03 ESP12E-S1 24.30 24.89 80.70
10207 2019-06-26 06:54:42 ESP12E-S1 24.20 24.83 82.40
10206 2019-06-26 06:26:22 ESP12E-S1 24.20 24.72 78.40
10205 2019-06-26 05:58:02 ESP12E-S1 24.20 24.64 75.40
10204 2019-06-26 05:29:42 ESP12E-S1 24.20 24.56 72.20
10203 2019-06-26 05:01:22 ESP12E-S1 24.20 24.45 67.80
10202 2019-06-26 04:33:04 ESP12E-S1 24.30 24.45 63.80
10201 2019-06-26 04:04:46 ESP12E-S1 24.40 24.51 61.90
10200 2019-06-26 03:36:28 ESP12E-S1 24.60 24.73 62.00
10199 2019-06-26 03:08:10 ESP12E-S1 24.90 25.07 62.20
10198 2019-06-26 02:39:52 ESP12E-S1 25.20 25.41 62.50
10197 2019-06-26 02:11:34 ESP12E-S1 25.60 25.85 62.60
10196 2019-06-26 01:43:17 ESP12E-S1 25.90 26.92 62.90
10195 2019-06-26 01:15:00 ESP12E-S1 26.20 27.29 63.30
10194 2019-06-26 00:46:42 ESP12E-S1 26.50 27.65 63.20
10193 2019-06-26 00:18:31 ESP12E-S1 26.80 27.98 62.30
10192 2019-06-25 23:50:11 ESP12E-S1 27.20 28.36 60.30
10191 2019-06-25 23:21:55 ESP12E-S1 27.60 28.85 59.70
10190 2019-06-25 22:53:38 ESP12E-S1 28.00 29.23 58.00
10189 2019-06-25 22:25:21 ESP12E-S1 28.40 29.70 57.10
10188 2019-06-25 21:57:05 ESP12E-S1 29.00 30.57 56.90
10187 2019-06-25 21:28:49 ESP12E-S1 29.50 31.17 55.60
10186 2019-06-25 21:00:34 ESP12E-S1 30.30 32.31 54.50
10185 2019-06-25 20:32:18 ESP12E-S1 31.10 33.09 51.50
10184 2019-06-25 20:04:03 ESP12E-S1 31.70 33.21 47.20
10183 2019-06-25 19:35:45 ESP12E-S1 32.30 34.19 47.00
10182 2019-06-25 19:07:36 ESP12E-S1 32.60 34.15 44.60
10181 2019-06-25 18:39:17 ESP12E-S1 33.20 34.61 42.20
10180 2019-06-25 18:10:59 ESP12E-S1 33.30 34.75 42.10
10179 2019-06-25 17:42:41 ESP12E-S1 33.70 35.58 42.60
10178 2019-06-25 17:14:26 ESP12E-S1 34.00 35.53 40.40
10177 2019-06-25 16:46:09 ESP12E-S1 34.50 36.59 41.00
10176 2019-06-25 16:17:54 ESP12E-S1 34.70 37.07 41.40
10175 2019-06-25 15:49:41 ESP12E-S1 36.10 39.31 39.90
10174 2019-06-25 15:21:22 ESP12E-S1 36.20 40.02 41.30
10173 2019-06-25 14:53:01 ESP12E-S1 36.70 41.49 42.30
10172 2019-06-25 14:24:51 ESP12E-S1 36.80 42.09 43.20
10171 2019-06-25 13:56:38 ESP12E-S1 37.80 44.60 43.50
10170 2019-06-25 13:28:00 ESP12E-S1 36.60 42.27 44.70
10169 2019-06-25 12:59:20 ESP12E-S1 33.70 37.39 48.90
10168 2019-06-25 12:30:58 ESP12E-S1 32.00 35.14 53.10
10167 2019-06-25 12:02:39 ESP12E-S1 31.90 35.57 55.50
10166 2019-06-25 11:34:14 ESP12E-S1 30.80 33.82 57.40
10165 2019-06-25 11:05:48 ESP12E-S1 29.80 32.25 58.90
10164 2019-06-25 10:37:20 ESP12E-S1 28.40 30.45 63.00
10163 2019-06-25 10:08:50 ESP12E-S1 27.00 28.42 64.60
10162 2019-06-25 09:40:23 ESP12E-S1 25.90 27.03 66.30
10161 2019-06-25 09:11:54 ESP12E-S1 24.70 25.08 71.10
10160 2019-06-25 08:43:27 ESP12E-S1 23.50 23.82 73.50
10159 2019-06-25 08:15:05 ESP12E-S1 23.00 23.50 82.20
10158 2019-06-25 07:46:45 ESP12E-S1 23.00 23.11 67.30
10157 2019-06-25 07:18:24 ESP12E-S1 22.80 22.92 68.40
10156 2019-06-25 06:50:03 ESP12E-S1 22.60 22.68 67.60
10155 2019-06-25 06:21:44 ESP12E-S1 22.70 22.74 65.60
10154 2019-06-25 05:53:26 ESP12E-S1 22.80 22.79 63.30
10153 2019-06-25 05:25:08 ESP12E-S1 23.00 22.97 62.00
10152 2019-06-25 04:56:49 ESP12E-S1 23.10 23.06 60.90
10151 2019-06-25 04:28:31 ESP12E-S1 23.30 23.27 60.50
10150 2019-06-25 04:00:12 ESP12E-S1 23.40 23.35 59.60
10149 2019-06-25 03:31:53 ESP12E-S1 23.60 23.56 59.00
10148 2019-06-25 03:03:34 ESP12E-S1 23.90 23.88 58.60
10147 2019-06-25 02:35:15 ESP12E-S1 24.10 24.10 58.80
10146 2019-06-25 02:06:56 ESP12E-S1 24.30 24.30 58.10
10145 2019-06-25 01:38:39 ESP12E-S1 24.60 24.63 58.10
10144 2019-06-25 01:10:23 ESP12E-S1 24.80 24.84 57.70
10143 2019-06-25 00:42:05 ESP12E-S1 25.00 25.06 57.50
10142 2019-06-25 00:13:46 ESP12E-S1 25.20 25.26 56.80
10141 2019-06-24 23:45:29 ESP12E-S1 25.50 25.58 56.50
10140 2019-06-24 23:17:10 ESP12E-S1 25.80 25.90 56.20
10139 2019-06-24 22:48:54 ESP12E-S1 26.00 26.10 55.50
10138 2019-06-24 22:20:35 ESP12E-S1 26.40 27.06 53.80
10137 2019-06-24 21:52:20 ESP12E-S1 26.90 27.50 53.00
10136 2019-06-24 21:24:05 ESP12E-S1 27.60 28.17 52.00
10135 2019-06-24 20:55:47 ESP12E-S1 28.30 28.75 49.60
10134 2019-06-24 20:27:30 ESP12E-S1 28.80 29.17 47.90
10133 2019-06-24 19:59:12 ESP12E-S1 29.30 29.84 48.30
10132 2019-06-24 19:30:54 ESP12E-S1 29.70 30.18 46.90
10131 2019-06-24 19:02:35 ESP12E-S1 30.00 30.51 46.40
10130 2019-06-24 18:34:19 ESP12E-S1 30.40 30.93 45.50
10129 2019-06-24 18:06:01 ESP12E-S1 30.90 31.54 44.90
10128 2019-06-24 17:37:46 ESP12E-S1 31.50 32.49 45.20
10127 2019-06-24 17:09:28 ESP12E-S1 31.70 32.82 45.30
10126 2019-06-24 16:41:11 ESP12E-S1 32.30 33.14 42.20
10125 2019-06-24 16:12:57 ESP12E-S1 32.90 34.38 43.40
10124 2019-06-24 15:44:40 ESP12E-S1 33.40 34.75 41.40
10123 2019-06-24 15:16:26 ESP12E-S1 34.30 36.88 43.30
10122 2019-06-24 14:48:08 ESP12E-S1 35.10 38.39 43.10
10121 2019-06-24 14:20:04 ESP12E-S1 36.20 40.10 41.50
10120 2019-06-24 13:51:42 ESP12E-S1 36.60 41.31 42.40
10119 2019-06-24 13:23:19 ESP12E-S1 36.30 41.05 43.40
10118 2019-06-24 12:54:33 ESP12E-S1 32.80 35.83 49.80
10117 2019-06-24 12:26:12 ESP12E-S1 31.30 33.80 53.10
10116 2019-06-24 11:57:52 ESP12E-S1 30.90 32.75 51.50
10115 2019-06-24 11:29:26 ESP12E-S1 29.90 32.45 59.00
10114 2019-06-24 11:00:56 ESP12E-S1 28.70 30.69 61.10
10113 2019-06-24 10:32:30 ESP12E-S1 27.50 29.30 65.90
10112 2019-06-24 10:04:01 ESP12E-S1 25.90 27.13 69.20
10111 2019-06-24 09:35:31 ESP12E-S1 24.70 25.17 74.40
10110 2019-06-24 09:07:01 ESP12E-S1 23.20 23.56 76.20
10109 2019-06-24 08:38:35 ESP12E-S1 22.00 22.29 77.90
10108 2019-06-24 08:10:12 ESP12E-S1 21.50 21.73 77.40
10107 2019-06-24 07:41:52 ESP12E-S1 21.40 21.64 78.20
10106 2019-06-24 07:13:32 ESP12E-S1 21.20 21.43 78.80
10105 2019-06-24 06:45:12 ESP12E-S1 21.20 21.43 78.60
10104 2019-06-24 06:16:56 ESP12E-S1 21.10 21.33 79.00
10103 2019-06-24 05:48:37 ESP12E-S1 21.20 21.40 77.70
10102 2019-06-24 05:20:21 ESP12E-S1 21.20 21.37 76.50
10101 2019-06-24 04:52:02 ESP12E-S1 21.40 21.56 75.30
10100 2019-06-24 04:23:46 ESP12E-S1 21.60 21.74 73.70
10099 2019-06-24 03:55:28 ESP12E-S1 21.80 21.92 72.20
10098 2019-06-24 03:27:11 ESP12E-S1 22.00 22.08 69.80
10097 2019-06-24 02:58:53 ESP12E-S1 22.10 22.15 68.50
10096 2019-06-24 02:30:36 ESP12E-S1 22.40 22.46 67.60
10095 2019-06-24 02:02:19 ESP12E-S1 22.60 22.62 65.20
10094 2019-06-24 01:34:02 ESP12E-S1 22.90 22.93 64.40
10093 2019-06-24 01:05:45 ESP12E-S1 23.00 23.02 63.80
10092 2019-06-24 00:37:27 ESP12E-S1 23.20 23.23 63.40
10091 2019-06-24 00:09:08 ESP12E-S1 23.40 23.42 62.30
10090 2019-06-23 23:40:51 ESP12E-S1 23.60 23.65 62.70
10089 2019-06-23 23:12:40 ESP12E-S1 23.90 23.97 62.30
10088 2019-06-23 22:44:23 ESP12E-S1 24.30 24.35 60.00
10087 2019-06-23 22:16:06 ESP12E-S1 24.70 24.79 59.90
10086 2019-06-23 21:47:48 ESP12E-S1 25.20 25.28 57.70
10085 2019-06-23 21:19:32 ESP12E-S1 25.80 25.92 56.90
10084 2019-06-23 20:51:17 ESP12E-S1 26.50 27.16 53.90
10083 2019-06-23 20:23:00 ESP12E-S1 27.10 27.59 51.20
10082 2019-06-23 19:54:43 ESP12E-S1 27.70 28.03 48.90
10081 2019-06-23 19:26:26 ESP12E-S1 28.20 28.50 48.10
10080 2019-06-23 18:58:08 ESP12E-S1 28.70 28.89 46.30
10079 2019-06-23 18:29:49 ESP12E-S1 29.10 29.41 46.80
10078 2019-06-23 18:01:31 ESP12E-S1 29.20 29.34 45.10
10077 2019-06-23 17:33:16 ESP12E-S1 30.20 30.33 43.20
10076 2019-06-23 17:05:13 ESP12E-S1 34.00 35.79 41.40
10075 2019-06-23 16:36:47 ESP12E-S1 33.10 33.94 40.00
10074 2019-06-23 16:08:28 ESP12E-S1 33.70 35.12 40.80
10073 2019-06-23 15:40:06 ESP12E-S1 33.50 34.80 40.90
10072 2019-06-23 15:11:43 ESP12E-S1 32.80 33.96 42.30
10071 2019-06-23 14:43:21 ESP12E-S1 32.60 33.53 41.80
10070 2019-06-23 14:14:58 ESP12E-S1 31.70 32.66 44.50
10069 2019-06-23 13:46:37 ESP12E-S1 31.40 32.41 45.60
10068 2019-06-23 13:18:18 ESP12E-S1 30.80 31.69 46.70
10067 2019-06-23 12:49:52 ESP12E-S1 29.90 30.55 47.60
10066 2019-06-23 12:21:29 ESP12E-S1 29.30 30.11 50.40
10065 2019-06-23 11:53:12 ESP12E-S1 28.30 29.93 60.20
10064 2019-06-23 11:24:42 ESP12E-S1 26.80 28.15 64.80
10063 2019-06-23 10:56:01 ESP12E-S1 24.10 24.39 70.00
10062 2019-06-23 10:27:44 ESP12E-S1 23.60 23.80 68.40
10061 2019-06-23 09:59:23 ESP12E-S1 23.50 23.81 72.80
10060 2019-06-23 09:30:54 ESP12E-S1 22.20 22.43 74.90
10059 2019-06-23 09:02:26 ESP12E-S1 20.80 21.01 79.60
10058 2019-06-23 08:34:01 ESP12E-S1 19.80 19.95 81.10
10057 2019-06-23 08:05:40 ESP12E-S1 19.20 19.31 81.80
10056 2019-06-23 07:37:20 ESP12E-S1 18.90 19.01 82.90
10055 2019-06-23 07:09:00 ESP12E-S1 18.80 18.94 84.40
10054 2019-06-23 06:40:43 ESP12E-S1 18.60 18.77 86.40
10053 2019-06-23 06:12:23 ESP12E-S1 18.40 18.60 88.10
10052 2019-06-23 05:44:04 ESP12E-S1 18.50 18.69 87.40
10051 2019-06-23 05:15:45 ESP12E-S1 18.60 18.75 85.60
10050 2019-06-23 04:47:28 ESP12E-S1 18.70 18.88 86.40
10049 2019-06-23 04:19:11 ESP12E-S1 18.80 18.96 85.10
10048 2019-06-23 03:50:51 ESP12E-S1 18.80 19.01 87.00
10047 2019-06-23 03:22:33 ESP12E-S1 18.90 19.17 89.10
10046 2019-06-23 02:54:15 ESP12E-S1 19.00 19.27 88.70
10045 2019-06-23 02:25:57 ESP12E-S1 19.40 19.69 88.00
10044 2019-06-23 01:57:40 ESP12E-S1 19.60 19.91 87.90
10043 2019-06-23 01:29:23 ESP12E-S1 19.60 19.92 88.40
10042 2019-06-23 01:01:05 ESP12E-S1 19.70 20.02 87.70
10041 2019-06-23 00:32:47 ESP12E-S1 19.80 20.18 89.70
10040 2019-06-23 00:04:31 ESP12E-S1 19.90 20.25 88.20
10039 2019-06-22 23:36:14 ESP12E-S1 20.20 20.58 88.10
10038 2019-06-22 23:07:56 ESP12E-S1 20.40 20.81 88.70
10037 2019-06-22 22:39:38 ESP12E-S1 20.60 21.07 90.20
10036 2019-06-22 22:11:23 ESP12E-S1 20.90 21.35 88.10
10035 2019-06-22 21:43:05 ESP12E-S1 21.20 21.61 85.50
10034 2019-06-22 21:14:48 ESP12E-S1 21.50 21.84 81.60
10033 2019-06-22 20:46:32 ESP12E-S1 22.00 22.28 77.70
10032 2019-06-22 20:18:18 ESP12E-S1 23.10 23.28 69.50
10031 2019-06-22 19:50:03 ESP12E-S1 23.80 23.84 61.30
10030 2019-06-22 19:21:48 ESP12E-S1 24.70 24.73 57.70
10029 2019-06-22 18:53:36 ESP12E-S1 25.70 25.70 52.70
10028 2019-06-22 18:25:24 ESP12E-S1 26.80 27.29 51.00
10027 2019-06-22 17:57:10 ESP12E-S1 28.10 28.36 47.70
10026 2019-06-22 17:28:57 ESP12E-S1 28.60 28.84 47.00
10025 2019-06-22 17:00:41 ESP12E-S1 29.00 29.14 45.40
10024 2019-06-22 16:32:24 ESP12E-S1 29.40 29.65 45.70
10023 2019-06-22 16:04:13 ESP12E-S1 30.30 30.42 42.90
10022 2019-06-22 15:35:54 ESP12E-S1 31.10 31.56 43.30
10021 2019-06-22 15:07:45 ESP12E-S1 32.30 33.12 42.10
10020 2019-06-22 14:39:14 ESP12E-S1 30.90 31.74 46.10
10019 2019-06-22 14:10:58 ESP12E-S1 31.80 33.23 46.50
10018 2019-06-22 13:42:49 ESP12E-S1 32.80 34.31 43.80
10017 2019-06-22 13:14:36 ESP12E-S1 31.50 32.72 46.40
10016 2019-06-22 12:45:50 ESP12E-S1 29.90 30.95 50.30
10015 2019-06-22 12:17:30 ESP12E-S1 28.90 29.60 50.60
10014 2019-06-22 11:49:04 ESP12E-S1 28.00 28.68 52.50
10013 2019-06-22 11:20:38 ESP12E-S1 26.80 27.50 54.60
10012 2019-06-22 10:52:13 ESP12E-S1 25.50 25.67 59.80
10011 2019-06-22 10:23:43 ESP12E-S1 24.30 24.25 56.00
10010 2019-06-22 09:55:13 ESP12E-S1 22.70 22.51 56.70
10009 2019-06-22 09:26:45 ESP12E-S1 21.30 21.05 60.00
10008 2019-06-22 08:58:16 ESP12E-S1 19.90 19.51 60.00
10007 2019-06-22 08:29:57 ESP12E-S1 18.80 18.35 61.80
10006 2019-06-22 08:01:35 ESP12E-S1 18.40 17.91 62.00
10005 2019-06-22 07:33:16 ESP12E-S1 18.20 17.73 63.50
10004 2019-06-22 07:04:54 ESP12E-S1 18.00 17.49 62.60
10003 2019-06-22 06:36:34 ESP12E-S1 17.80 17.28 63.10
10002 2019-06-22 06:08:16 ESP12E-S1 17.60 17.02 61.40
10001 2019-06-22 05:39:58 ESP12E-S1 17.70 17.07 59.00
10000 2019-06-22 05:11:38 ESP12E-S1 17.80 17.11 56.60
9999 2019-06-22 04:43:20 ESP12E-S1 17.90 17.19 55.20
9998 2019-06-22 04:15:02 ESP12E-S1 18.00 17.19 51.20
9997 2019-06-22 03:46:43 ESP12E-S1 18.10 17.28 50.40
9996 2019-06-22 03:18:25 ESP12E-S1 18.20 17.37 49.40
9995 2019-06-22 02:50:07 ESP12E-S1 18.40 17.56 48.60
9994 2019-06-22 02:21:50 ESP12E-S1 18.60 17.79 48.80
9993 2019-06-22 01:53:31 ESP12E-S1 18.80 18.01 49.00
9992 2019-06-22 01:25:13 ESP12E-S1 18.90 18.07 47.00
9991 2019-06-22 00:56:55 ESP12E-S1 19.20 18.42 47.60
9990 2019-06-22 00:28:37 ESP12E-S1 19.40 18.67 48.70
9989 2019-06-22 00:00:18 ESP12E-S1 19.50 18.72 46.60
9988 2019-06-21 23:32:01 ESP12E-S1 19.70 18.93 46.30
9987 2019-06-21 23:03:44 ESP12E-S1 20.00 19.28 46.80
9986 2019-06-21 22:35:28 ESP12E-S1 20.40 19.70 46.20
9985 2019-06-21 22:07:11 ESP12E-S1 21.00 20.35 45.80
9984 2019-06-21 21:38:55 ESP12E-S1 21.40 20.80 46.30
9983 2019-06-21 21:10:38 ESP12E-S1 21.90 21.32 44.80
9982 2019-06-21 20:42:21 ESP12E-S1 22.40 21.87 44.90
9981 2019-06-21 20:14:05 ESP12E-S1 22.80 22.30 44.70
9980 2019-06-21 19:45:49 ESP12E-S1 23.50 23.04 43.30
9979 2019-06-21 19:17:32 ESP12E-S1 23.90 23.46 42.50
9978 2019-06-21 18:49:16 ESP12E-S1 24.40 24.06 44.70
9977 2019-06-21 18:21:00 ESP12E-S1 24.90 24.53 41.50
9976 2019-06-21 17:52:44 ESP12E-S1 25.30 25.07 45.30
9975 2019-06-21 17:24:27 ESP12E-S1 25.70 25.43 42.20
9974 2019-06-21 16:56:12 ESP12E-S1 26.10 25.85 41.60
9973 2019-06-21 16:27:56 ESP12E-S1 26.80 26.79 41.50
9972 2019-06-21 15:59:48 ESP12E-S1 28.00 27.83 42.40
9971 2019-06-21 15:31:32 ESP12E-S1 28.70 28.47 41.90
9970 2019-06-21 15:03:48 ESP12E-S1 30.20 30.08 41.30
9969 2019-06-21 14:35:31 ESP12E-S1 28.10 28.03 43.80
9968 2019-06-21 14:07:43 ESP12E-S1 32.10 32.83 42.20
9967 2019-06-21 13:39:07 ESP12E-S1 31.30 31.81 43.10
9966 2019-06-21 13:10:22 ESP12E-S1 28.10 28.45 48.80
9965 2019-06-21 12:41:41 ESP12E-S1 24.00 23.87 54.20
9964 2019-06-21 12:13:30 ESP12E-S1 25.40 25.36 52.30
9963 2019-06-21 11:45:04 ESP12E-S1 24.20 24.23 59.70
9962 2019-06-21 11:16:27 ESP12E-S1 22.30 22.29 65.40
9961 2019-06-21 10:47:55 ESP12E-S1 22.00 22.23 75.80
9960 2019-06-21 10:19:26 ESP12E-S1 20.30 20.40 77.00
9959 2019-06-21 09:51:01 ESP12E-S1 19.50 19.69 83.50
9958 2019-06-21 09:22:36 ESP12E-S1 18.80 18.94 84.30
9957 2019-06-21 08:54:14 ESP12E-S1 18.30 18.48 87.80
9956 2019-06-21 08:25:55 ESP12E-S1 18.10 18.30 89.60
9955 2019-06-21 07:57:37 ESP12E-S1 18.10 18.26 87.90
9954 2019-06-21 07:29:16 ESP12E-S1 17.70 17.89 90.70
9953 2019-06-21 07:00:57 ESP12E-S1 17.50 17.67 90.70
9952 2019-06-21 06:32:37 ESP12E-S1 17.40 17.57 90.80
9951 2019-06-21 06:04:18 ESP12E-S1 17.30 17.51 92.80
9950 2019-06-21 05:36:04 ESP12E-S1 17.40 17.61 92.60
9949 2019-06-21 05:07:46 ESP12E-S1 17.40 17.61 92.40
9948 2019-06-21 04:39:28 ESP12E-S1 17.50 17.72 92.50
9947 2019-06-21 04:11:09 ESP12E-S1 17.60 17.83 92.30
9946 2019-06-21 03:42:51 ESP12E-S1 17.60 17.80 91.50
9945 2019-06-21 03:14:34 ESP12E-S1 17.80 17.99 90.10
9944 2019-06-21 02:46:16 ESP12E-S1 17.70 17.86 89.40
9943 2019-06-21 02:17:58 ESP12E-S1 17.60 17.71 88.00
9942 2019-06-21 01:49:42 ESP12E-S1 18.00 18.06 84.60
9941 2019-06-21 01:21:26 ESP12E-S1 18.00 18.13 87.10
9940 2019-06-21 00:53:08 ESP12E-S1 18.30 18.37 83.70
9939 2019-06-21 00:24:51 ESP12E-S1 18.60 18.70 83.80
9938 2019-06-20 23:56:34 ESP12E-S1 18.90 18.86 77.00
9937 2019-06-20 23:28:16 ESP12E-S1 19.20 19.21 78.00
9936 2019-06-20 23:00:01 ESP12E-S1 19.50 19.55 78.40
9935 2019-06-20 22:31:43 ESP12E-S1 19.70 19.71 76.00
9934 2019-06-20 22:03:25 ESP12E-S1 20.00 20.15 80.30
9933 2019-06-20 21:35:08 ESP12E-S1 20.30 20.50 80.80
9932 2019-06-20 21:06:50 ESP12E-S1 20.80 21.01 79.50
9931 2019-06-20 20:38:35 ESP12E-S1 21.40 21.60 76.80
9930 2019-06-20 20:10:18 ESP12E-S1 21.90 22.05 72.80
9929 2019-06-20 19:42:01 ESP12E-S1 22.30 22.52 74.20
9928 2019-06-20 19:13:45 ESP12E-S1 22.80 23.04 72.90
9927 2019-06-20 18:45:28 ESP12E-S1 23.20 23.44 71.30
9926 2019-06-20 18:17:10 ESP12E-S1 23.40 23.76 75.10
9925 2019-06-20 17:48:55 ESP12E-S1 23.70 24.08 74.70
9924 2019-06-20 17:20:32 ESP12E-S1 22.80 23.16 77.60
9923 2019-06-20 16:52:28 ESP12E-S1 25.00 25.10 59.20
9922 2019-06-20 16:24:16 ESP12E-S1 26.50 27.18 54.40
9921 2019-06-20 15:56:01 ESP12E-S1 27.10 27.82 54.60
9920 2019-06-20 15:27:29 ESP12E-S1 26.30 27.15 57.90
9919 2019-06-20 14:59:14 ESP12E-S1 26.50 27.70 64.10
9918 2019-06-20 14:30:49 ESP12E-S1 25.40 25.78 68.50
9917 2019-06-20 14:02:31 ESP12E-S1 25.00 25.25 64.90
9916 2019-06-20 13:34:34 ESP12E-S1 28.10 28.83 52.80
9915 2019-06-20 13:06:06 ESP12E-S1 26.20 26.97 56.00
9914 2019-06-20 12:38:03 ESP12E-S1 27.90 28.61 53.10
9913 2019-06-20 12:09:48 ESP12E-S1 28.50 29.50 54.20
9912 2019-06-20 11:41:21 ESP12E-S1 26.80 27.73 58.40
9911 2019-06-20 11:12:47 ESP12E-S1 24.90 25.08 62.60
9910 2019-06-20 10:44:28 ESP12E-S1 24.90 25.17 66.20
9909 2019-06-20 10:15:53 ESP12E-S1 22.70 22.91 72.10
9908 2019-06-20 09:47:33 ESP12E-S1 22.20 22.48 76.90
9907 2019-06-20 09:19:10 ESP12E-S1 21.80 22.09 78.50
9906 2019-06-20 08:50:48 ESP12E-S1 21.30 21.59 80.60
9905 2019-06-20 08:22:26 ESP12E-S1 20.80 21.19 86.30
9904 2019-06-20 07:54:05 ESP12E-S1 20.30 20.74 90.10
9903 2019-06-20 07:25:43 ESP12E-S1 19.80 20.22 91.40
9902 2019-06-20 06:57:25 ESP12E-S1 19.80 20.22 91.20
9901 2019-06-20 06:29:09 ESP12E-S1 20.00 20.42 90.40
9900 2019-06-20 06:00:51 ESP12E-S1 20.20 20.61 89.40
9899 2019-06-20 05:32:34 ESP12E-S1 20.60 20.93 84.80
9898 2019-06-20 05:04:17 ESP12E-S1 21.10 21.34 79.40
9897 2019-06-20 04:35:59 ESP12E-S1 21.30 21.50 77.00
9896 2019-06-20 04:07:41 ESP12E-S1 21.60 21.78 75.40
9895 2019-06-20 03:39:24 ESP12E-S1 21.90 22.04 72.70
9894 2019-06-20 03:11:09 ESP12E-S1 22.40 22.45 67.20
9893 2019-06-20 02:42:53 ESP12E-S1 23.00 22.94 60.70
9892 2019-06-20 02:14:35 ESP12E-S1 23.20 23.10 58.40
9891 2019-06-20 01:46:17 ESP12E-S1 23.50 23.40 57.40
9890 2019-06-20 01:18:00 ESP12E-S1 23.70 23.60 56.60
9889 2019-06-20 00:49:43 ESP12E-S1 24.10 24.04 56.40
9888 2019-06-20 00:21:27 ESP12E-S1 24.50 24.43 54.50
9887 2019-06-19 23:53:09 ESP12E-S1 24.90 24.85 53.70
9886 2019-06-19 23:24:52 ESP12E-S1 25.10 25.06 53.40
9885 2019-06-19 22:56:34 ESP12E-S1 25.30 25.22 51.30
9884 2019-06-19 22:28:18 ESP12E-S1 25.60 25.54 50.90
9883 2019-06-19 22:00:01 ESP12E-S1 25.90 25.86 50.20
9882 2019-06-19 21:31:45 ESP12E-S1 26.60 27.03 49.60
9881 2019-06-19 21:03:31 ESP12E-S1 27.20 27.54 49.00
9880 2019-06-19 20:35:21 ESP12E-S1 27.80 28.12 48.70
9879 2019-06-19 20:07:05 ESP12E-S1 28.40 28.62 47.00
9878 2019-06-19 19:38:46 ESP12E-S1 28.70 28.57 43.00
9877 2019-06-19 19:10:31 ESP12E-S1 29.20 28.84 40.30
9876 2019-06-19 18:42:15 ESP12E-S1 29.80 29.62 41.40
9875 2019-06-19 18:13:59 ESP12E-S1 30.40 30.53 42.80
9874 2019-06-19 17:45:41 ESP12E-S1 30.80 30.87 41.50
9873 2019-06-19 17:17:27 ESP12E-S1 31.30 31.59 41.80
9872 2019-06-19 16:49:11 ESP12E-S1 31.80 31.76 38.60
9871 2019-06-19 16:20:58 ESP12E-S1 32.50 32.84 39.10
9870 2019-06-19 15:52:44 ESP12E-S1 33.40 34.04 38.30
9869 2019-06-19 15:24:29 ESP12E-S1 34.40 35.25 36.60
9868 2019-06-19 14:56:14 ESP12E-S1 35.90 37.90 36.80
9867 2019-06-19 14:27:57 ESP12E-S1 34.70 35.74 36.60
9866 2019-06-19 13:59:42 ESP12E-S1 35.50 37.72 38.60
9865 2019-06-19 13:31:18 ESP12E-S1 37.60 40.46 34.90
9864 2019-06-19 13:02:31 ESP12E-S1 34.40 36.05 39.70
9863 2019-06-19 12:34:03 ESP12E-S1 31.50 32.34 44.40
9862 2019-06-19 12:05:43 ESP12E-S1 30.80 32.23 49.70
9861 2019-06-19 11:37:21 ESP12E-S1 30.20 31.53 51.10
9860 2019-06-19 11:08:54 ESP12E-S1 28.80 30.31 57.20
9859 2019-06-19 10:40:24 ESP12E-S1 27.20 28.99 67.70
9858 2019-06-19 10:12:03 ESP12E-S1 25.70 26.92 72.00
9857 2019-06-19 09:43:33 ESP12E-S1 24.30 24.93 82.00
9856 2019-06-19 09:15:05 ESP12E-S1 23.50 23.89 76.10
9855 2019-06-19 08:46:36 ESP12E-S1 22.20 22.53 78.50
9854 2019-06-19 08:18:12 ESP12E-S1 21.60 21.88 79.10
9853 2019-06-19 07:49:52 ESP12E-S1 21.20 21.52 82.20
9852 2019-06-19 07:21:32 ESP12E-S1 21.00 21.33 83.40
9851 2019-06-19 06:53:12 ESP12E-S1 20.70 20.97 82.00
9850 2019-06-19 06:24:52 ESP12E-S1 20.50 20.68 79.60
9849 2019-06-19 05:56:33 ESP12E-S1 20.50 20.66 78.70
9848 2019-06-19 05:28:14 ESP12E-S1 20.50 20.60 76.40
9847 2019-06-19 04:59:56 ESP12E-S1 20.70 20.79 75.30
9846 2019-06-19 04:31:38 ESP12E-S1 20.80 20.85 73.20
9845 2019-06-19 04:03:20 ESP12E-S1 20.90 20.93 72.00
9844 2019-06-19 03:06:53 ESP12E-S1 21.40 21.48 72.20
9843 2019-06-19 02:38:36 ESP12E-S1 21.60 21.61 68.80
9842 2019-06-19 02:10:18 ESP12E-S1 21.80 21.72 64.40
9841 2019-06-19 01:42:01 ESP12E-S1 22.10 22.03 63.60
9840 2019-06-19 01:13:43 ESP12E-S1 22.40 22.35 63.30
9839 2019-06-19 00:45:25 ESP12E-S1 22.30 22.18 61.20
9838 2019-06-19 00:17:10 ESP12E-S1 23.00 22.94 60.60
9837 2019-06-18 23:48:53 ESP12E-S1 23.30 23.23 59.00
9836 2019-06-18 23:20:38 ESP12E-S1 23.60 23.50 56.90
9835 2019-06-18 22:52:21 ESP12E-S1 24.00 23.89 54.90
9834 2019-06-18 22:24:04 ESP12E-S1 24.50 24.43 54.40
9833 2019-06-18 21:55:48 ESP12E-S1 25.00 24.95 53.60
9832 2019-06-18 21:27:32 ESP12E-S1 25.40 25.38 53.10
9831 2019-06-18 20:59:15 ESP12E-S1 26.10 26.80 54.00
9830 2019-06-18 20:31:01 ESP12E-S1 26.90 27.51 53.20
9829 2019-06-18 20:02:46 ESP12E-S1 27.50 27.91 50.00
9828 2019-06-18 19:34:28 ESP12E-S1 27.80 28.12 48.70
9827 2019-06-18 19:06:13 ESP12E-S1 28.40 28.51 45.80
9826 2019-06-18 18:37:54 ESP12E-S1 28.70 28.70 44.40
9825 2019-06-18 18:09:36 ESP12E-S1 28.80 29.25 48.60
9824 2019-06-18 17:41:20 ESP12E-S1 29.30 29.58 46.20
9823 2019-06-18 17:13:02 ESP12E-S1 29.70 30.18 46.90
9822 2019-06-18 16:44:45 ESP12E-S1 30.00 30.74 48.00
9821 2019-06-18 16:16:31 ESP12E-S1 30.60 31.17 45.30
9820 2019-06-18 15:48:15 ESP12E-S1 31.40 32.68 47.00
9819 2019-06-18 15:19:58 ESP12E-S1 31.90 33.16 45.40
9818 2019-06-18 14:51:49 ESP12E-S1 33.40 36.00 46.20
9817 2019-06-18 14:23:42 ESP12E-S1 33.40 35.23 43.30
9816 2019-06-18 13:55:06 ESP12E-S1 32.90 35.98 49.60
9815 2019-06-18 13:26:32 ESP12E-S1 31.30 32.56 47.20
9814 2019-06-18 12:58:30 ESP12E-S1 31.40 33.55 51.20
9813 2019-06-18 12:30:10 ESP12E-S1 30.60 31.65 48.20
9812 2019-06-18 12:01:50 ESP12E-S1 29.90 31.09 51.20
9811 2019-06-18 11:33:27 ESP12E-S1 29.10 30.60 56.00
9810 2019-06-18 11:05:00 ESP12E-S1 27.80 29.15 59.90
9809 2019-06-18 10:36:29 ESP12E-S1 26.30 27.39 63.00
9808 2019-06-18 10:08:00 ESP12E-S1 24.80 25.11 68.00
9807 2019-06-18 09:39:29 ESP12E-S1 23.30 23.59 72.90
9806 2019-06-18 09:10:57 ESP12E-S1 21.60 21.75 74.00
9805 2019-06-18 08:42:29 ESP12E-S1 20.20 20.24 75.30
9804 2019-06-18 08:14:06 ESP12E-S1 19.50 19.51 76.80
9803 2019-06-18 07:45:45 ESP12E-S1 18.90 18.98 81.80
9802 2019-06-18 07:17:24 ESP12E-S1 18.60 18.77 86.40
9801 2019-06-18 06:49:03 ESP12E-S1 18.20 18.27 83.90
9800 2019-06-18 06:20:43 ESP12E-S1 18.00 17.99 81.70
9799 2019-06-18 05:52:27 ESP12E-S1 18.20 18.11 78.10
9798 2019-06-18 05:24:10 ESP12E-S1 18.40 18.29 76.20
9797 2019-06-18 04:55:53 ESP12E-S1 18.60 18.45 74.20
9796 2019-06-18 04:27:36 ESP12E-S1 18.90 18.72 71.70
9795 2019-06-18 03:59:19 ESP12E-S1 19.20 19.01 70.10
9794 2019-06-18 03:02:50 ESP12E-S1 19.60 19.40 68.30
9793 2019-06-18 02:34:32 ESP12E-S1 19.40 19.16 67.70
9792 2019-06-18 02:06:15 ESP12E-S1 19.60 19.35 66.40
9791 2019-06-18 01:37:57 ESP12E-S1 19.80 19.51 64.00
9790 2019-06-18 01:09:40 ESP12E-S1 20.00 19.69 62.60
9789 2019-06-18 00:41:23 ESP12E-S1 20.40 20.08 60.50
9788 2019-06-18 00:13:06 ESP12E-S1 20.90 20.61 59.90
9787 2019-06-17 23:44:48 ESP12E-S1 21.30 21.02 58.70
9786 2019-06-17 23:16:30 ESP12E-S1 21.50 21.21 57.50
9785 2019-06-17 22:48:14 ESP12E-S1 22.00 21.75 57.10
9784 2019-06-17 22:19:58 ESP12E-S1 22.60 22.39 56.50
9783 2019-06-17 21:51:48 ESP12E-S1 22.90 22.71 56.20
9782 2019-06-17 21:23:32 ESP12E-S1 23.80 23.69 55.70
9781 2019-06-17 20:55:18 ESP12E-S1 24.60 24.49 52.80
9780 2019-06-17 20:27:02 ESP12E-S1 25.10 24.96 49.50
9779 2019-06-17 19:58:47 ESP12E-S1 25.60 25.50 49.10
9778 2019-06-17 19:30:31 ESP12E-S1 26.20 26.67 48.90
9777 2019-06-17 19:02:15 ESP12E-S1 26.50 26.92 49.00
9776 2019-06-17 18:33:59 ESP12E-S1 27.00 27.29 47.80
9775 2019-06-17 18:05:43 ESP12E-S1 27.60 27.82 47.40
9774 2019-06-17 17:37:25 ESP12E-S1 27.90 28.07 46.80
9773 2019-06-17 17:09:19 ESP12E-S1 28.40 28.32 43.70
9772 2019-06-17 16:41:05 ESP12E-S1 29.10 29.16 44.60
9771 2019-06-17 16:12:55 ESP12E-S1 30.00 30.12 43.50
9770 2019-06-17 15:44:45 ESP12E-S1 31.40 31.92 42.90
9769 2019-06-17 15:16:30 ESP12E-S1 31.80 32.22 41.30
9768 2019-06-17 14:48:07 ESP12E-S1 33.40 35.12 42.90
9767 2019-06-17 14:20:08 ESP12E-S1 33.80 35.09 40.00
9766 2019-06-17 13:51:40 ESP12E-S1 33.60 36.10 45.20
9765 2019-06-17 13:23:17 ESP12E-S1 34.00 37.39 46.90
9764 2019-06-17 12:54:27 ESP12E-S1 29.80 30.86 50.70
9763 2019-06-17 12:26:09 ESP12E-S1 27.90 28.51 52.00
9762 2019-06-17 11:57:46 ESP12E-S1 27.30 28.19 56.60
9761 2019-06-17 11:29:24 ESP12E-S1 26.60 27.47 57.80
9760 2019-06-17 11:00:56 ESP12E-S1 25.10 25.26 60.90
9759 2019-06-17 10:32:27 ESP12E-S1 23.60 23.84 70.00
9758 2019-06-17 10:03:55 ESP12E-S1 22.00 22.39 81.70
9757 2019-06-17 09:35:25 ESP12E-S1 20.50 20.84 85.70
9756 2019-06-17 09:06:53 ESP12E-S1 18.90 19.24 91.60
9755 2019-06-17 08:38:26 ESP12E-S1 17.40 17.66 94.20
9754 2019-06-17 08:10:03 ESP12E-S1 16.60 16.81 95.70
9753 2019-06-17 07:41:41 ESP12E-S1 16.00 16.14 95.20
9752 2019-06-17 07:13:20 ESP12E-S1 15.60 15.70 95.10
9751 2019-06-17 06:44:58 ESP12E-S1 15.20 15.25 94.60
9750 2019-06-17 06:16:39 ESP12E-S1 14.90 14.82 90.90
9749 2019-06-17 05:48:20 ESP12E-S1 14.90 14.79 89.90
9748 2019-06-17 05:20:02 ESP12E-S1 14.90 14.78 89.30
9747 2019-06-17 04:51:45 ESP12E-S1 15.10 14.94 87.00
9746 2019-06-17 04:23:27 ESP12E-S1 15.10 14.87 84.60
9745 2019-06-17 03:55:10 ESP12E-S1 15.50 15.23 81.30
9744 2019-06-17 03:26:53 ESP12E-S1 15.80 15.49 78.80
9743 2019-06-17 02:58:36 ESP12E-S1 16.00 15.68 77.60
9742 2019-06-17 02:30:19 ESP12E-S1 16.10 15.74 75.70
9741 2019-06-17 02:02:01 ESP12E-S1 16.40 16.09 76.20
9740 2019-06-17 01:33:44 ESP12E-S1 16.60 16.26 74.40
9739 2019-06-17 01:05:28 ESP12E-S1 17.10 16.73 71.30
9738 2019-06-17 00:37:11 ESP12E-S1 17.30 16.89 69.30
9737 2019-06-17 00:08:53 ESP12E-S1 17.40 16.99 68.60
9736 2019-06-16 23:40:35 ESP12E-S1 17.60 17.20 68.40
9735 2019-06-16 23:12:18 ESP12E-S1 17.80 17.41 68.00
9734 2019-06-16 22:44:01 ESP12E-S1 18.30 17.96 67.80
9733 2019-06-16 22:15:54 ESP12E-S1 18.60 18.29 67.80
9732 2019-06-16 21:47:36 ESP12E-S1 19.10 18.84 68.10
9731 2019-06-16 21:19:21 ESP12E-S1 19.70 19.48 67.20
9730 2019-06-16 20:51:07 ESP12E-S1 20.60 20.43 65.80
9729 2019-06-16 20:22:52 ESP12E-S1 21.10 20.83 59.80
9728 2019-06-16 19:54:35 ESP12E-S1 21.50 21.22 58.00
9727 2019-06-16 19:26:21 ESP12E-S1 22.30 22.04 55.60
9726 2019-06-16 18:58:03 ESP12E-S1 22.70 22.50 56.60
9725 2019-06-16 18:29:47 ESP12E-S1 23.00 22.78 54.60
9724 2019-06-16 18:01:28 ESP12E-S1 23.20 22.96 53.00
9723 2019-06-16 17:33:11 ESP12E-S1 23.60 23.44 54.70
9722 2019-06-16 17:04:57 ESP12E-S1 24.30 24.15 52.10
9721 2019-06-16 16:36:39 ESP12E-S1 24.20 24.04 52.20
9720 2019-06-16 16:08:17 ESP12E-S1 23.80 23.68 55.20
9719 2019-06-16 15:40:11 ESP12E-S1 24.50 24.49 56.90
9718 2019-06-16 15:11:43 ESP12E-S1 23.80 23.83 61.00
9717 2019-06-16 14:43:24 ESP12E-S1 24.30 24.39 61.30
9716 2019-06-16 14:15:01 ESP12E-S1 22.10 22.19 69.80
9715 2019-06-16 13:46:36 ESP12E-S1 22.00 22.17 73.40
9714 2019-06-16 13:18:29 ESP12E-S1 23.10 23.25 68.50
9713 2019-06-16 12:50:16 ESP12E-S1 23.40 23.64 70.70
9712 2019-06-16 12:21:39 ESP12E-S1 21.30 21.61 81.40
9711 2019-06-16 11:53:23 ESP12E-S1 21.50 21.79 80.00
9710 2019-06-16 11:24:58 ESP12E-S1 19.90 20.23 87.60
9709 2019-06-16 10:56:31 ESP12E-S1 18.70 19.06 93.10
9708 2019-06-16 10:28:12 ESP12E-S1 18.40 18.76 94.30
9707 2019-06-16 09:59:49 ESP12E-S1 17.90 18.25 95.90
9706 2019-06-16 09:31:27 ESP12E-S1 17.30 17.57 95.00
9705 2019-06-16 09:03:07 ESP12E-S1 16.90 17.10 94.00
9704 2019-06-16 08:34:55 ESP12E-S1 16.60 16.80 95.00
9703 2019-06-16 08:06:36 ESP12E-S1 16.60 16.80 95.00
9702 2019-06-16 07:38:18 ESP12E-S1 16.60 16.78 94.50
9701 2019-06-16 07:10:02 ESP12E-S1 16.60 16.80 95.00
9700 2019-06-16 06:41:44 ESP12E-S1 16.80 17.00 94.20
9699 2019-06-16 06:13:28 ESP12E-S1 17.20 17.38 92.00
9698 2019-06-16 05:45:12 ESP12E-S1 17.50 17.64 89.60
9697 2019-06-16 05:16:55 ESP12E-S1 17.90 17.95 84.30
9696 2019-06-16 04:48:39 ESP12E-S1 18.10 18.03 79.10
9695 2019-06-16 04:20:23 ESP12E-S1 18.60 18.35 70.40
9694 2019-06-16 03:52:07 ESP12E-S1 18.70 18.42 68.70
9693 2019-06-16 03:23:49 ESP12E-S1 18.80 18.50 67.70
9692 2019-06-16 02:55:32 ESP12E-S1 18.80 18.50 67.60
9691 2019-06-16 02:27:17 ESP12E-S1 18.90 18.58 66.40
9690 2019-06-16 01:59:00 ESP12E-S1 18.90 18.56 65.70
9689 2019-06-16 01:30:43 ESP12E-S1 19.00 18.67 65.80
9688 2019-06-16 01:02:24 ESP12E-S1 19.00 18.65 65.00
9687 2019-06-16 00:34:07 ESP12E-S1 19.00 18.68 65.90
9686 2019-06-16 00:05:47 ESP12E-S1 18.80 18.53 68.80
9685 2019-06-15 23:37:33 ESP12E-S1 18.90 18.63 68.50
9684 2019-06-15 23:09:18 ESP12E-S1 19.40 19.15 67.30
9683 2019-06-15 22:41:03 ESP12E-S1 19.70 19.47 66.70
9682 2019-06-15 22:12:48 ESP12E-S1 20.20 19.93 63.50
9681 2019-06-15 21:44:45 ESP12E-S1 21.00 20.77 61.90
9680 2019-06-15 21:16:25 ESP12E-S1 21.50 21.31 61.60
9679 2019-06-15 20:48:09 ESP12E-S1 22.10 21.90 58.90
9678 2019-06-15 20:19:55 ESP12E-S1 22.70 22.51 57.00
9677 2019-06-15 19:51:40 ESP12E-S1 23.40 23.21 54.30
9676 2019-06-15 19:23:26 ESP12E-S1 23.80 23.69 55.60
9675 2019-06-15 18:55:10 ESP12E-S1 24.40 24.31 54.00
9674 2019-06-15 18:26:55 ESP12E-S1 24.90 24.88 55.00
9673 2019-06-15 17:58:38 ESP12E-S1 25.40 25.42 54.60
9672 2019-06-15 17:30:20 ESP12E-S1 25.50 25.56 55.60
9671 2019-06-15 17:02:00 ESP12E-S1 25.40 25.41 54.00
9670 2019-06-15 16:33:39 ESP12E-S1 25.00 25.06 57.50
9669 2019-06-15 16:05:31 ESP12E-S1 25.60 25.65 54.80
9668 2019-06-15 15:37:31 ESP12E-S1 27.10 27.69 52.80
9667 2019-06-15 15:08:54 ESP12E-S1 25.50 25.58 56.50
9666 2019-06-15 14:40:22 ESP12E-S1 23.70 23.69 60.00
9665 2019-06-15 14:12:14 ESP12E-S1 24.70 24.73 57.50
9664 2019-06-15 13:44:22 ESP12E-S1 27.10 27.71 53.10
9663 2019-06-15 13:15:56 ESP12E-S1 27.90 28.61 53.10
9662 2019-06-15 12:47:36 ESP12E-S1 24.80 24.95 61.70
9661 2019-06-15 12:19:22 ESP12E-S1 23.40 23.52 66.00
9660 2019-06-15 11:51:06 ESP12E-S1 23.00 23.15 68.60
9659 2019-06-15 11:22:47 ESP12E-S1 22.40 22.56 71.50
9658 2019-06-15 10:54:39 ESP12E-S1 22.50 22.74 74.10
9657 2019-06-15 10:26:13 ESP12E-S1 21.40 21.59 76.30
9656 2019-06-15 09:58:05 ESP12E-S1 20.90 21.27 85.20
9655 2019-06-15 09:29:43 ESP12E-S1 20.80 21.11 83.10
9654 2019-06-15 09:01:28 ESP12E-S1 19.70 20.05 89.10
9653 2019-06-15 08:33:00 ESP12E-S1 18.60 18.89 91.10
9652 2019-06-15 08:04:52 ESP12E-S1 18.20 18.47 91.80
9651 2019-06-15 07:36:25 ESP12E-S1 17.60 17.82 92.20
9650 2019-06-15 07:08:05 ESP12E-S1 17.20 17.39 92.60
9649 2019-06-15 06:39:46 ESP12E-S1 17.00 17.14 91.50
9648 2019-06-15 06:11:41 ESP12E-S1 17.00 17.12 90.60
9647 2019-06-15 05:43:19 ESP12E-S1 16.90 16.99 89.80
9646 2019-06-15 05:15:02 ESP12E-S1 17.00 16.99 85.70
9645 2019-06-15 04:46:45 ESP12E-S1 17.10 17.08 85.00
9644 2019-06-15 04:18:32 ESP12E-S1 17.20 17.20 85.10
9643 2019-06-15 03:50:16 ESP12E-S1 17.30 17.29 84.30
9642 2019-06-15 03:22:01 ESP12E-S1 17.70 17.68 82.70
9641 2019-06-15 02:53:45 ESP12E-S1 17.90 17.88 81.70
9640 2019-06-15 02:25:30 ESP12E-S1 18.10 18.06 80.30
9639 2019-06-15 01:57:12 ESP12E-S1 18.40 18.36 79.00
9638 2019-06-15 01:28:56 ESP12E-S1 18.50 18.52 80.90
9637 2019-06-15 01:00:50 ESP12E-S1 18.60 18.64 81.50
9636 2019-06-15 00:32:29 ESP12E-S1 18.70 18.83 84.60
9635 2019-06-15 00:04:23 ESP12E-S1 18.70 18.84 84.90
9634 2019-06-14 23:36:03 ESP12E-S1 18.80 18.95 84.90
9633 2019-06-14 23:07:46 ESP12E-S1 18.90 19.00 82.60
9632 2019-06-14 22:39:29 ESP12E-S1 19.20 19.26 80.00
9631 2019-06-14 22:11:16 ESP12E-S1 19.60 19.64 77.50
9630 2019-06-14 21:42:59 ESP12E-S1 20.00 20.03 75.50
9629 2019-06-14 21:14:44 ESP12E-S1 20.50 20.52 73.50
9628 2019-06-14 20:46:39 ESP12E-S1 20.90 20.90 71.00
9627 2019-06-14 20:18:19 ESP12E-S1 21.10 21.09 70.00
9626 2019-06-14 19:50:14 ESP12E-S1 21.50 21.42 65.50
9625 2019-06-14 19:21:54 ESP12E-S1 21.80 21.75 65.60
9624 2019-06-14 18:53:49 ESP12E-S1 22.30 22.16 60.40
9623 2019-06-14 18:25:38 ESP12E-S1 22.80 22.64 57.50
9622 2019-06-14 17:57:31 ESP12E-S1 23.30 23.22 58.60
9621 2019-06-14 17:29:10 ESP12E-S1 23.70 23.66 58.90
9620 2019-06-14 17:00:53 ESP12E-S1 24.00 24.06 61.40
9619 2019-06-14 16:32:38 ESP12E-S1 24.50 24.60 61.00
9618 2019-06-14 16:04:21 ESP12E-S1 25.00 25.10 59.00
9617 2019-06-14 15:36:04 ESP12E-S1 25.20 25.24 56.10
9616 2019-06-14 15:07:43 ESP12E-S1 25.10 25.15 56.90
9615 2019-06-14 14:39:25 ESP12E-S1 25.20 25.34 59.80
9614 2019-06-14 14:11:09 ESP12E-S1 25.60 25.72 57.80
9613 2019-06-14 13:42:52 ESP12E-S1 26.30 27.07 56.00
9612 2019-06-14 13:14:34 ESP12E-S1 25.80 25.87 55.00
9611 2019-06-14 12:46:12 ESP12E-S1 25.20 25.29 58.20
9610 2019-06-14 12:17:57 ESP12E-S1 25.30 25.40 58.20
9609 2019-06-14 11:49:18 ESP12E-S1 22.90 22.90 63.50
9608 2019-06-14 11:21:02 ESP12E-S1 22.40 22.39 64.80
9607 2019-06-14 10:52:39 ESP12E-S1 21.10 21.02 67.20
9606 2019-06-14 10:24:22 ESP12E-S1 21.00 20.98 69.80
9605 2019-06-14 09:56:05 ESP12E-S1 21.00 20.93 68.00
9604 2019-06-14 09:27:57 ESP12E-S1 20.80 20.80 71.60
9603 2019-06-14 08:59:25 ESP12E-S1 19.20 19.11 74.00
9602 2019-06-14 08:31:10 ESP12E-S1 18.20 17.93 70.90
9601 2019-06-14 08:02:45 ESP12E-S1 17.30 16.95 71.30
9600 2019-06-14 07:34:24 ESP12E-S1 16.80 16.33 68.90
9599 2019-06-14 07:06:06 ESP12E-S1 16.50 15.94 66.50
9598 2019-06-14 06:37:47 ESP12E-S1 16.30 15.75 67.50
9597 2019-06-14 06:09:31 ESP12E-S1 16.20 15.56 64.70
9596 2019-06-14 05:41:14 ESP12E-S1 16.10 15.37 61.60
9595 2019-06-14 05:12:58 ESP12E-S1 16.10 15.31 59.10
9594 2019-06-14 04:44:41 ESP12E-S1 16.10 15.30 58.60
9593 2019-06-14 04:16:23 ESP12E-S1 16.30 15.48 57.40
9592 2019-06-14 03:48:05 ESP12E-S1 16.20 15.33 55.60
9591 2019-06-14 03:19:46 ESP12E-S1 15.90 15.11 60.00
9590 2019-06-14 02:51:31 ESP12E-S1 16.20 15.42 59.20
9589 2019-06-14 02:23:14 ESP12E-S1 16.50 15.72 58.10
9588 2019-06-14 01:54:58 ESP12E-S1 16.80 16.02 56.90
9587 2019-06-14 01:26:41 ESP12E-S1 17.10 16.30 54.90
9586 2019-06-14 00:58:24 ESP12E-S1 17.10 16.28 54.10
9585 2019-06-14 00:30:07 ESP12E-S1 17.20 16.37 53.40
9584 2019-06-14 00:01:49 ESP12E-S1 17.30 16.50 54.10
9583 2019-06-13 23:33:33 ESP12E-S1 17.50 16.68 52.70
9582 2019-06-13 23:05:19 ESP12E-S1 18.00 17.19 51.30
9581 2019-06-13 22:37:04 ESP12E-S1 18.50 17.75 51.40
9580 2019-06-13 22:08:49 ESP12E-S1 19.00 18.26 49.90
9579 2019-06-13 21:40:42 ESP12E-S1 19.70 19.04 50.40
9578 2019-06-13 21:12:25 ESP12E-S1 20.30 19.61 47.00
9577 2019-06-13 20:44:11 ESP12E-S1 21.10 20.44 45.10
9576 2019-06-13 20:15:55 ESP12E-S1 21.70 21.10 44.80
9575 2019-06-13 19:47:40 ESP12E-S1 22.10 21.46 42.00
9574 2019-06-13 19:19:24 ESP12E-S1 22.60 22.00 41.70
9573 2019-06-13 18:51:09 ESP12E-S1 23.00 22.44 41.60
9572 2019-06-13 18:22:53 ESP12E-S1 23.50 22.99 41.60
9571 2019-06-13 17:54:39 ESP12E-S1 24.40 24.02 43.00
9570 2019-06-13 17:26:21 ESP12E-S1 24.40 24.07 44.80
9569 2019-06-13 16:58:07 ESP12E-S1 25.00 24.66 42.20
9568 2019-06-13 16:29:44 ESP12E-S1 24.90 24.71 48.60
9567 2019-06-13 16:01:35 ESP12E-S1 25.50 25.32 46.60
9566 2019-06-13 15:33:23 ESP12E-S1 27.30 27.41 45.40
9565 2019-06-13 15:05:18 ESP12E-S1 28.00 28.13 46.20
9564 2019-06-13 14:36:38 ESP12E-S1 27.10 27.30 46.50
9563 2019-06-13 14:08:27 ESP12E-S1 26.30 26.64 46.30
9562 2019-06-13 13:40:04 ESP12E-S1 28.90 29.03 45.50
9561 2019-06-13 13:11:55 ESP12E-S1 29.60 29.82 45.10
9560 2019-06-13 12:43:09 ESP12E-S1 26.00 25.96 50.10
9559 2019-06-13 12:14:48 ESP12E-S1 24.60 24.47 52.00
9558 2019-06-13 11:46:23 ESP12E-S1 23.80 23.68 55.40
9557 2019-06-13 11:18:05 ESP12E-S1 23.10 22.96 57.10
9556 2019-06-13 10:49:36 ESP12E-S1 21.70 21.58 63.30
9555 2019-06-13 10:21:06 ESP12E-S1 20.10 19.99 69.90
9554 2019-06-13 09:52:38 ESP12E-S1 18.40 18.19 72.70
9553 2019-06-13 09:24:09 ESP12E-S1 17.00 16.88 81.30
9552 2019-06-13 08:55:41 ESP12E-S1 15.60 15.45 85.50
9551 2019-06-13 08:27:37 ESP12E-S1 15.20 15.16 91.30
9550 2019-06-13 07:59:10 ESP12E-S1 14.80 14.78 93.60
9549 2019-06-13 07:30:51 ESP12E-S1 14.40 14.38 95.30
9548 2019-06-13 07:02:31 ESP12E-S1 14.00 13.98 96.60
9547 2019-06-13 06:34:12 ESP12E-S1 13.80 13.75 96.40
9546 2019-06-13 06:05:54 ESP12E-S1 13.60 13.52 96.00
9545 2019-06-13 05:37:39 ESP12E-S1 13.90 13.84 95.60
9544 2019-06-13 05:09:23 ESP12E-S1 14.00 13.94 95.30
9543 2019-06-13 04:41:04 ESP12E-S1 14.00 13.93 94.60
9542 2019-06-13 04:12:47 ESP12E-S1 14.00 13.92 94.40
9541 2019-06-13 03:44:28 ESP12E-S1 13.90 13.80 94.10
9540 2019-06-13 03:16:10 ESP12E-S1 13.60 13.46 93.60
9539 2019-06-13 02:47:54 ESP12E-S1 13.60 13.42 91.90
9538 2019-06-13 02:19:36 ESP12E-S1 13.90 13.72 90.90
9537 2019-06-13 01:51:20 ESP12E-S1 14.10 13.95 91.20
9536 2019-06-13 01:23:03 ESP12E-S1 14.20 14.06 91.40
9535 2019-06-13 00:54:47 ESP12E-S1 14.40 14.27 91.10
9534 2019-06-13 00:26:32 ESP12E-S1 14.60 14.49 90.80
9533 2019-06-12 23:58:14 ESP12E-S1 14.90 14.80 90.10
9532 2019-06-12 23:29:59 ESP12E-S1 15.00 14.86 88.30
9531 2019-06-12 23:01:45 ESP12E-S1 15.40 15.24 85.80
9530 2019-06-12 22:33:28 ESP12E-S1 15.70 15.52 84.00
9529 2019-06-12 22:05:13 ESP12E-S1 16.20 16.02 82.00
9528 2019-06-12 21:36:58 ESP12E-S1 16.60 16.33 77.20
9527 2019-06-12 21:08:44 ESP12E-S1 17.40 17.11 73.50
9526 2019-06-12 20:40:27 ESP12E-S1 18.10 17.67 65.10
9525 2019-06-12 20:12:11 ESP12E-S1 18.40 17.95 63.40
9524 2019-06-12 19:43:54 ESP12E-S1 18.70 18.29 63.60
9523 2019-06-12 19:15:37 ESP12E-S1 19.00 18.61 63.20
9522 2019-06-12 18:47:26 ESP12E-S1 19.60 19.21 61.00
9521 2019-06-12 18:19:07 ESP12E-S1 19.60 19.22 61.40
9520 2019-06-12 17:50:52 ESP12E-S1 20.20 19.96 64.70
9519 2019-06-12 17:22:35 ESP12E-S1 19.90 19.69 66.80
9518 2019-06-12 16:54:17 ESP12E-S1 20.40 20.31 69.50
9517 2019-06-12 16:26:00 ESP12E-S1 20.40 20.32 69.80
9516 2019-06-12 15:57:45 ESP12E-S1 20.60 20.52 69.30
9515 2019-06-12 15:29:36 ESP12E-S1 21.80 21.88 70.80
9514 2019-06-12 15:01:16 ESP12E-S1 21.60 21.75 74.00
9513 2019-06-12 14:32:44 ESP12E-S1 20.80 21.11 83.40
9512 2019-06-12 14:04:31 ESP12E-S1 20.10 20.48 88.80
9511 2019-06-12 13:36:01 ESP12E-S1 16.60 16.84 96.80
9510 2019-06-12 13:07:38 ESP12E-S1 15.80 16.00 98.30
9509 2019-06-12 12:39:21 ESP12E-S1 15.40 15.57 98.50
9508 2019-06-12 12:11:03 ESP12E-S1 15.40 15.57 98.50
9507 2019-06-12 11:42:47 ESP12E-S1 15.80 16.04 99.90
9506 2019-06-12 11:14:32 ESP12E-S1 16.30 16.59 99.90
9505 2019-06-12 10:46:18 ESP12E-S1 16.90 17.25 99.90
9504 2019-06-12 10:18:02 ESP12E-S1 17.10 17.47 99.90
9503 2019-06-12 09:49:44 ESP12E-S1 17.20 17.58 99.90
9502 2019-06-12 09:21:28 ESP12E-S1 17.30 17.67 99.00
9501 2019-06-12 08:53:08 ESP12E-S1 17.10 17.46 99.30
9500 2019-06-12 08:24:50 ESP12E-S1 17.00 17.35 99.20
9499 2019-06-12 07:56:32 ESP12E-S1 16.90 17.24 99.40
9498 2019-06-12 07:28:14 ESP12E-S1 16.80 17.13 99.50
9497 2019-06-12 06:59:55 ESP12E-S1 16.80 17.14 99.80
9496 2019-06-12 06:31:37 ESP12E-S1 16.60 16.92 99.60
9495 2019-06-12 06:03:19 ESP12E-S1 16.70 17.01 99.00
9494 2019-06-12 05:35:02 ESP12E-S1 16.90 17.22 98.70
9493 2019-06-12 05:06:45 ESP12E-S1 17.00 17.32 98.20
9492 2019-06-12 04:38:26 ESP12E-S1 17.10 17.43 98.20
9491 2019-06-12 04:10:10 ESP12E-S1 17.00 17.30 97.50
9490 2019-06-12 03:41:53 ESP12E-S1 17.00 17.30 97.40
9489 2019-06-12 03:13:36 ESP12E-S1 17.00 17.27 96.30
9488 2019-06-12 02:45:18 ESP12E-S1 16.90 17.15 96.00
9487 2019-06-12 02:17:00 ESP12E-S1 16.90 17.10 94.00
9486 2019-06-12 01:48:41 ESP12E-S1 16.90 17.08 93.20
9485 2019-06-12 01:20:25 ESP12E-S1 17.00 17.14 91.50
9484 2019-06-12 00:52:08 ESP12E-S1 17.10 17.25 91.40
9483 2019-06-12 00:23:51 ESP12E-S1 17.10 17.26 91.70
9482 2019-06-11 23:55:35 ESP12E-S1 17.40 17.58 91.40
9481 2019-06-11 23:27:20 ESP12E-S1 17.70 17.90 90.80
9480 2019-06-11 22:59:03 ESP12E-S1 18.10 18.33 90.70
9479 2019-06-11 22:30:47 ESP12E-S1 18.20 18.44 90.50
9478 2019-06-11 22:02:31 ESP12E-S1 18.50 18.71 88.40
9477 2019-06-11 21:34:17 ESP12E-S1 18.90 19.20 90.30
9476 2019-06-11 21:06:02 ESP12E-S1 19.30 19.65 90.40
9475 2019-06-11 20:37:47 ESP12E-S1 19.60 19.82 84.50
9474 2019-06-11 20:09:31 ESP12E-S1 20.00 20.08 77.70
9473 2019-06-11 19:41:16 ESP12E-S1 20.50 20.71 80.50
9472 2019-06-11 19:12:57 ESP12E-S1 20.40 20.67 83.30
9471 2019-06-11 18:44:38 ESP12E-S1 20.10 20.41 85.80
9470 2019-06-11 18:16:17 ESP12E-S1 19.90 20.16 85.00
9469 2019-06-11 17:47:59 ESP12E-S1 19.80 20.00 82.90
9468 2019-06-11 17:19:42 ESP12E-S1 20.00 20.14 79.80
9467 2019-06-11 16:51:26 ESP12E-S1 20.20 20.32 78.30
9466 2019-06-11 16:23:10 ESP12E-S1 20.60 20.74 77.50
9465 2019-06-11 15:54:52 ESP12E-S1 20.50 20.66 78.70
9464 2019-06-11 15:26:36 ESP12E-S1 20.90 21.10 78.70
9463 2019-06-11 14:58:31 ESP12E-S1 22.30 22.67 79.80
9462 2019-06-11 14:29:55 ESP12E-S1 19.30 19.66 90.80
9461 2019-06-11 14:01:34 ESP12E-S1 18.60 18.88 90.60
9460 2019-06-11 13:33:14 ESP12E-S1 18.30 18.57 91.30
9459 2019-06-11 13:05:00 ESP12E-S1 18.70 18.98 90.10
9458 2019-06-11 12:36:39 ESP12E-S1 18.30 18.59 92.20
9457 2019-06-11 12:08:18 ESP12E-S1 17.90 18.16 92.50
9456 2019-06-11 11:40:09 ESP12E-S1 17.90 18.16 92.30
9455 2019-06-11 11:11:51 ESP12E-S1 18.10 18.34 91.00
9454 2019-06-11 10:43:43 ESP12E-S1 19.00 19.31 90.00
9453 2019-06-11 10:15:25 ESP12E-S1 19.10 19.42 90.10
9452 2019-06-11 09:47:03 ESP12E-S1 19.00 19.35 91.60
9451 2019-06-11 09:18:30 ESP12E-S1 17.50 17.79 95.20
9450 2019-06-11 08:50:09 ESP12E-S1 16.80 17.06 96.70
9449 2019-06-11 08:21:48 ESP12E-S1 16.20 16.42 97.40
9448 2019-06-11 07:53:30 ESP12E-S1 16.00 16.18 96.50
9447 2019-06-11 07:25:12 ESP12E-S1 15.80 15.98 97.30
9446 2019-06-11 06:56:53 ESP12E-S1 15.50 15.67 98.10
9445 2019-06-11 06:28:38 ESP12E-S1 15.50 15.64 97.20
9444 2019-06-11 06:00:22 ESP12E-S1 15.70 15.91 99.10
9443 2019-06-11 05:32:06 ESP12E-S1 15.90 16.15 99.90
9442 2019-06-11 05:03:49 ESP12E-S1 16.00 16.26 99.90
9441 2019-06-11 04:35:33 ESP12E-S1 16.10 16.37 99.90
9440 2019-06-11 04:07:16 ESP12E-S1 16.30 16.55 98.20
9439 2019-06-11 03:39:00 ESP12E-S1 16.50 16.75 97.60
9438 2019-06-11 03:10:44 ESP12E-S1 16.80 17.08 97.30
9437 2019-06-11 02:42:29 ESP12E-S1 16.90 17.15 95.80
9436 2019-06-11 02:14:12 ESP12E-S1 17.10 17.36 95.50
9435 2019-06-11 01:45:55 ESP12E-S1 17.40 17.68 95.30
9434 2019-06-11 01:17:38 ESP12E-S1 17.40 17.66 94.40
9433 2019-06-11 00:49:21 ESP12E-S1 17.50 17.75 93.80
9432 2019-06-11 00:21:04 ESP12E-S1 17.60 17.84 92.90
9431 2019-06-10 23:52:47 ESP12E-S1 17.70 17.96 93.10
9430 2019-06-10 23:24:33 ESP12E-S1 17.90 18.15 92.20
9429 2019-06-10 22:56:17 ESP12E-S1 18.30 18.55 90.70
9428 2019-06-10 22:28:02 ESP12E-S1 18.50 18.70 87.80
9427 2019-06-10 21:59:45 ESP12E-S1 18.80 18.97 85.50
9426 2019-06-10 21:31:29 ESP12E-S1 19.10 19.28 84.70
9425 2019-06-10 21:03:13 ESP12E-S1 19.50 19.68 83.30
9424 2019-06-10 20:34:59 ESP12E-S1 19.90 20.13 83.80
9423 2019-06-10 20:06:43 ESP12E-S1 20.30 20.53 82.00
9422 2019-06-10 19:38:28 ESP12E-S1 20.60 20.75 78.10
9421 2019-06-10 19:10:11 ESP12E-S1 20.80 21.01 79.50
9420 2019-06-10 18:41:54 ESP12E-S1 21.00 21.25 80.10
9419 2019-06-10 18:13:39 ESP12E-S1 21.30 21.54 78.50
9418 2019-06-10 17:45:23 ESP12E-S1 21.60 21.71 72.70
9417 2019-06-10 17:17:07 ESP12E-S1 22.10 22.33 75.10
9416 2019-06-10 16:48:52 ESP12E-S1 22.20 22.30 69.80
9415 2019-06-10 16:20:39 ESP12E-S1 22.90 22.87 62.10
9414 2019-06-10 15:52:36 ESP12E-S1 23.80 23.76 58.40
9413 2019-06-10 15:24:17 ESP12E-S1 24.20 24.18 57.70
9412 2019-06-10 14:56:06 ESP12E-S1 25.00 24.99 55.10
9411 2019-06-10 14:27:56 ESP12E-S1 26.80 27.33 51.80
9410 2019-06-10 13:59:23 ESP12E-S1 24.40 24.39 57.30
9409 2019-06-10 13:31:23 ESP12E-S1 27.60 28.34 54.00
9408 2019-06-10 13:02:48 ESP12E-S1 25.80 25.98 59.30
9407 2019-06-10 12:34:12 ESP12E-S1 22.90 22.95 65.10
9406 2019-06-10 12:05:50 ESP12E-S1 21.60 21.55 66.60
9405 2019-06-10 11:37:51 ESP12E-S1 23.80 23.86 62.10
9404 2019-06-10 11:09:36 ESP12E-S1 24.00 24.09 62.70
9403 2019-06-10 10:41:10 ESP12E-S1 22.90 23.07 69.70
9402 2019-06-10 10:12:42 ESP12E-S1 20.90 21.06 77.00
9401 2019-06-10 09:44:16 ESP12E-S1 19.80 20.01 83.30
9400 2019-06-10 09:15:52 ESP12E-S1 18.70 18.94 88.60
9399 2019-06-10 08:47:32 ESP12E-S1 18.20 18.41 89.40
9398 2019-06-10 08:19:15 ESP12E-S1 18.20 18.44 90.40
9397 2019-06-10 07:50:55 ESP12E-S1 17.90 18.14 91.60
9396 2019-06-10 07:22:37 ESP12E-S1 17.60 17.82 92.20
9395 2019-06-10 06:54:19 ESP12E-S1 17.30 17.51 92.70
9394 2019-06-10 06:26:00 ESP12E-S1 17.10 17.28 92.50
9393 2019-06-10 05:57:44 ESP12E-S1 17.20 17.37 91.80
9392 2019-06-10 05:29:27 ESP12E-S1 17.30 17.44 90.30
9391 2019-06-10 05:01:10 ESP12E-S1 17.50 17.55 86.00
9390 2019-06-10 04:32:55 ESP12E-S1 17.70 17.69 82.80
9389 2019-06-10 04:04:39 ESP12E-S1 17.90 17.85 80.70
9388 2019-06-10 03:36:23 ESP12E-S1 18.10 17.97 76.90
9387 2019-06-10 03:08:07 ESP12E-S1 18.30 18.09 73.00
9386 2019-06-10 02:39:53 ESP12E-S1 18.80 18.50 67.70
9385 2019-06-10 02:11:37 ESP12E-S1 19.20 18.82 63.00
9384 2019-06-10 01:43:20 ESP12E-S1 19.50 19.04 58.90
9383 2019-06-10 01:15:05 ESP12E-S1 19.70 19.21 56.80
9382 2019-06-10 00:46:48 ESP12E-S1 19.90 19.44 57.10
9381 2019-06-10 00:18:31 ESP12E-S1 20.20 19.75 56.30
9380 2019-06-09 23:50:14 ESP12E-S1 20.20 19.73 55.90
9379 2019-06-09 23:21:59 ESP12E-S1 20.40 19.88 53.00
9378 2019-06-09 22:53:44 ESP12E-S1 20.90 20.41 52.10
9377 2019-06-09 22:25:29 ESP12E-S1 21.30 20.86 52.60
9376 2019-06-09 21:57:15 ESP12E-S1 21.70 21.29 52.20
9375 2019-06-09 21:29:00 ESP12E-S1 22.10 21.69 50.90
9374 2019-06-09 21:00:45 ESP12E-S1 22.30 21.91 50.90
9373 2019-06-09 20:32:29 ESP12E-S1 22.70 22.35 50.80
9372 2019-06-09 20:04:14 ESP12E-S1 23.20 22.87 49.40
9371 2019-06-09 19:35:58 ESP12E-S1 23.50 23.16 48.20
9370 2019-06-09 19:07:43 ESP12E-S1 24.00 23.68 47.00
9369 2019-06-09 18:39:27 ESP12E-S1 24.30 24.02 47.40
9368 2019-06-09 18:11:11 ESP12E-S1 24.90 24.65 46.00
9367 2019-06-09 17:42:55 ESP12E-S1 25.50 25.28 44.80
9366 2019-06-09 17:14:37 ESP12E-S1 25.70 25.50 44.80
9365 2019-06-09 16:46:22 ESP12E-S1 26.30 26.53 43.60
9364 2019-06-09 16:18:05 ESP12E-S1 26.40 26.60 43.60
9363 2019-06-09 15:49:50 ESP12E-S1 27.00 27.00 42.70
9362 2019-06-09 15:21:39 ESP12E-S1 28.10 27.88 41.80
9361 2019-06-09 14:53:36 ESP12E-S1 30.70 30.21 37.50
9360 2019-06-09 14:25:14 ESP12E-S1 29.10 28.66 39.50
9359 2019-06-09 13:56:54 ESP12E-S1 29.60 29.17 39.30
9358 2019-06-09 13:28:40 ESP12E-S1 31.10 30.81 38.40
9357 2019-06-09 12:59:54 ESP12E-S1 28.20 27.88 40.50
9356 2019-06-09 12:31:27 ESP12E-S1 25.00 24.70 44.00
9355 2019-06-09 12:03:08 ESP12E-S1 24.40 24.12 47.00
9354 2019-06-09 11:34:42 ESP12E-S1 23.70 23.43 50.00
9353 2019-06-09 11:06:14 ESP12E-S1 22.30 21.82 47.30
9352 2019-06-09 10:37:49 ESP12E-S1 21.60 21.20 52.90
9351 2019-06-09 10:09:19 ESP12E-S1 19.80 19.31 56.40
9350 2019-06-09 09:40:52 ESP12E-S1 18.00 17.46 61.30
9349 2019-06-09 09:12:23 ESP12E-S1 16.30 15.74 67.30
9348 2019-06-09 08:43:56 ESP12E-S1 14.70 14.15 73.70
9347 2019-06-09 08:15:31 ESP12E-S1 13.50 12.91 76.60
9346 2019-06-09 07:47:09 ESP12E-S1 12.70 12.10 79.30
9345 2019-06-09 07:18:51 ESP12E-S1 12.30 11.85 86.90
9344 2019-06-09 06:50:32 ESP12E-S1 11.80 11.23 84.00
9343 2019-06-09 06:22:13 ESP12E-S1 11.60 10.95 81.60
9342 2019-06-09 05:53:57 ESP12E-S1 11.40 10.73 81.60
9341 2019-06-09 05:25:40 ESP12E-S1 11.40 10.68 79.90
9340 2019-06-09 04:57:26 ESP12E-S1 11.80 11.06 77.40
9339 2019-06-09 04:29:10 ESP12E-S1 12.20 11.46 75.90
9338 2019-06-09 04:00:57 ESP12E-S1 12.30 11.56 75.70
9337 2019-06-09 03:32:41 ESP12E-S1 12.60 11.86 74.40
9336 2019-06-09 03:04:26 ESP12E-S1 12.50 11.74 74.20
9335 2019-06-09 02:36:10 ESP12E-S1 12.50 11.71 72.80
9334 2019-06-09 02:07:53 ESP12E-S1 12.70 11.88 71.20
9333 2019-06-09 01:39:38 ESP12E-S1 12.90 12.07 69.90
9332 2019-06-09 01:11:23 ESP12E-S1 13.30 12.44 67.10
9331 2019-06-09 00:43:08 ESP12E-S1 13.40 12.51 65.80
9330 2019-06-09 00:14:53 ESP12E-S1 13.70 12.84 65.50
9329 2019-06-08 23:46:37 ESP12E-S1 13.90 13.02 64.30
9328 2019-06-08 23:18:23 ESP12E-S1 14.20 13.32 62.90
9327 2019-06-08 22:50:10 ESP12E-S1 14.60 13.73 62.00
9326 2019-06-08 22:21:56 ESP12E-S1 15.30 14.44 59.50
9325 2019-06-08 21:53:42 ESP12E-S1 15.90 15.01 55.90
9324 2019-06-08 21:25:28 ESP12E-S1 16.60 15.74 54.60
9323 2019-06-08 20:57:14 ESP12E-S1 17.30 16.43 51.40
9322 2019-06-08 20:29:00 ESP12E-S1 17.60 16.72 49.80
9321 2019-06-08 20:00:46 ESP12E-S1 18.00 17.13 48.70
9320 2019-06-08 19:32:31 ESP12E-S1 18.40 17.56 48.30
9319 2019-06-08 19:04:18 ESP12E-S1 19.10 18.31 47.50
9318 2019-06-08 18:36:03 ESP12E-S1 19.40 18.60 46.30
9317 2019-06-08 18:07:45 ESP12E-S1 19.50 18.73 46.90
9316 2019-06-08 17:39:29 ESP12E-S1 19.40 18.60 46.30
9315 2019-06-08 17:11:26 ESP12E-S1 20.10 19.38 46.50
9314 2019-06-08 16:43:05 ESP12E-S1 20.10 19.40 47.20
9313 2019-06-08 16:14:52 ESP12E-S1 20.70 20.02 45.90
9312 2019-06-08 15:46:46 ESP12E-S1 22.10 21.49 42.90
9311 2019-06-08 15:18:29 ESP12E-S1 22.40 21.88 45.50
9310 2019-06-08 14:49:58 ESP12E-S1 22.20 21.73 48.10
9309 2019-06-08 14:21:35 ESP12E-S1 20.90 20.31 48.60
9308 2019-06-08 13:52:58 ESP12E-S1 17.80 17.04 53.90
9307 2019-06-08 13:24:36 ESP12E-S1 17.50 16.78 56.40
9306 2019-06-08 12:56:23 ESP12E-S1 17.00 16.24 56.80
9305 2019-06-08 12:28:06 ESP12E-S1 16.50 15.68 56.50
9304 2019-06-08 11:59:51 ESP12E-S1 16.50 15.69 56.80
9303 2019-06-08 11:31:31 ESP12E-S1 15.50 14.66 59.70
9302 2019-06-08 11:03:12 ESP12E-S1 15.50 14.69 60.60
9301 2019-06-08 10:34:49 ESP12E-S1 14.20 13.27 60.90
9300 2019-06-08 10:06:35 ESP12E-S1 14.30 13.36 60.30
9299 2019-06-08 09:38:13 ESP12E-S1 13.80 12.87 62.50
9298 2019-06-08 09:09:58 ESP12E-S1 13.80 12.84 61.40
9297 2019-06-08 08:41:43 ESP12E-S1 14.10 13.15 60.50
9296 2019-06-08 08:13:29 ESP12E-S1 13.80 12.81 60.20
9295 2019-06-08 07:45:07 ESP12E-S1 13.40 12.48 64.40
9294 2019-06-08 07:16:49 ESP12E-S1 13.20 12.24 63.70
9293 2019-06-08 06:48:32 ESP12E-S1 13.00 12.10 67.00
9292 2019-06-08 06:20:15 ESP12E-S1 13.00 12.12 67.40
9291 2019-06-08 05:52:02 ESP12E-S1 13.20 12.40 70.00
9290 2019-06-08 05:23:46 ESP12E-S1 13.30 12.49 69.30
9289 2019-06-08 04:55:31 ESP12E-S1 13.50 12.74 70.10
9288 2019-06-08 04:27:16 ESP12E-S1 13.70 13.06 74.00
9287 2019-06-08 03:59:01 ESP12E-S1 13.80 13.20 75.10
9286 2019-06-08 03:30:45 ESP12E-S1 13.90 13.34 76.20
9285 2019-06-08 03:02:30 ESP12E-S1 14.00 13.46 76.80
9284 2019-06-08 02:34:15 ESP12E-S1 14.20 13.66 76.00
9283 2019-06-08 02:05:58 ESP12E-S1 14.10 13.58 77.20
9282 2019-06-08 01:37:41 ESP12E-S1 14.10 13.57 76.90
9281 2019-06-08 01:09:30 ESP12E-S1 14.00 13.60 82.20
9280 2019-06-08 00:41:16 ESP12E-S1 14.30 14.01 85.30
9279 2019-06-08 00:13:02 ESP12E-S1 14.70 14.43 84.30
9278 2019-06-07 23:44:45 ESP12E-S1 14.60 14.32 84.50
9277 2019-06-07 23:16:29 ESP12E-S1 14.80 14.45 81.10
9276 2019-06-07 22:48:12 ESP12E-S1 15.00 14.61 78.80
9275 2019-06-07 22:19:54 ESP12E-S1 15.20 14.59 69.40
9274 2019-06-07 21:51:45 ESP12E-S1 15.50 14.89 68.30
9273 2019-06-07 21:23:30 ESP12E-S1 16.00 15.43 68.10
9272 2019-06-07 20:55:19 ESP12E-S1 17.00 16.53 67.80
9271 2019-06-07 20:27:15 ESP12E-S1 18.60 18.16 63.00
9270 2019-06-07 19:59:01 ESP12E-S1 19.70 19.40 64.20
9269 2019-06-07 19:31:02 ESP12E-S1 22.50 22.52 65.60
9268 2019-06-07 19:02:53 ESP12E-S1 23.50 23.68 67.90
9267 2019-06-07 18:34:39 ESP12E-S1 24.60 24.71 60.90
9266 2019-06-07 18:06:28 ESP12E-S1 25.10 25.21 59.10
9265 2019-06-07 17:38:17 ESP12E-S1 26.20 26.84 52.80
9264 2019-06-07 17:10:05 ESP12E-S1 27.20 27.62 50.10
9263 2019-06-07 16:41:48 ESP12E-S1 27.30 27.63 48.80
9262 2019-06-07 16:13:35 ESP12E-S1 28.00 28.45 50.00
9261 2019-06-07 15:45:29 ESP12E-S1 29.30 29.83 48.20
9260 2019-06-07 15:17:11 ESP12E-S1 29.50 30.04 47.80
9259 2019-06-07 14:48:59 ESP12E-S1 31.20 32.46 47.50
9258 2019-06-07 14:20:54 ESP12E-S1 30.30 31.00 46.90
9257 2019-06-07 13:52:37 ESP12E-S1 32.20 33.66 45.40
9256 2019-06-07 13:24:01 ESP12E-S1 30.80 31.99 48.40
9255 2019-06-07 12:55:13 ESP12E-S1 27.10 27.78 54.10
9254 2019-06-07 12:26:46 ESP12E-S1 23.90 23.89 59.10
9253 2019-06-07 11:58:26 ESP12E-S1 23.00 22.96 61.60
9252 2019-06-07 11:29:59 ESP12E-S1 21.50 21.45 66.70
9251 2019-06-07 11:01:28 ESP12E-S1 19.60 19.52 73.10
9250 2019-06-07 10:32:53 ESP12E-S1 17.30 17.12 77.80
9249 2019-06-07 10:04:28 ESP12E-S1 16.10 16.00 85.70
9248 2019-06-07 09:36:10 ESP12E-S1 15.80 15.71 87.00
9247 2019-06-07 09:07:46 ESP12E-S1 14.90 14.94 95.60
9246 2019-06-07 08:39:25 ESP12E-S1 14.10 13.94 90.80
9245 2019-06-07 08:11:03 ESP12E-S1 13.40 13.20 92.10
9244 2019-06-07 07:42:43 ESP12E-S1 13.00 12.80 93.80
9243 2019-06-07 07:14:26 ESP12E-S1 12.60 12.33 92.30
9242 2019-06-07 06:46:08 ESP12E-S1 12.40 12.10 92.20
9241 2019-06-07 06:17:50 ESP12E-S1 12.20 11.89 92.40
9240 2019-06-07 05:49:35 ESP12E-S1 12.30 12.04 93.90
9239 2019-06-07 05:21:19 ESP12E-S1 12.30 12.00 92.50
9238 2019-06-07 04:53:04 ESP12E-S1 12.20 11.82 89.70
9237 2019-06-07 04:24:48 ESP12E-S1 12.50 12.16 90.00
9236 2019-06-07 03:56:33 ESP12E-S1 12.80 12.50 90.50
9235 2019-06-07 03:28:18 ESP12E-S1 13.10 12.84 90.90
9234 2019-06-07 03:00:04 ESP12E-S1 13.60 13.40 91.20
9233 2019-06-07 02:31:50 ESP12E-S1 13.80 13.64 92.10
9232 2019-06-07 02:03:34 ESP12E-S1 13.90 13.74 91.70
9231 2019-06-07 01:35:18 ESP12E-S1 14.00 13.83 90.80
9230 2019-06-07 01:07:03 ESP12E-S1 14.00 13.82 90.50
9229 2019-06-07 00:38:44 ESP12E-S1 14.00 13.83 91.00
9228 2019-06-07 00:10:27 ESP12E-S1 14.00 13.81 90.20
9227 2019-06-06 23:42:12 ESP12E-S1 14.10 13.84 87.20
9226 2019-06-06 23:13:56 ESP12E-S1 14.10 13.88 88.80
9225 2019-06-06 22:45:39 ESP12E-S1 14.10 13.80 85.40
9224 2019-06-06 22:17:23 ESP12E-S1 14.10 13.66 80.40
9223 2019-06-06 21:49:10 ESP12E-S1 14.70 14.25 77.70
9222 2019-06-06 21:20:58 ESP12E-S1 15.30 14.92 78.10
9221 2019-06-06 20:52:43 ESP12E-S1 16.00 15.57 73.30
9220 2019-06-06 20:24:26 ESP12E-S1 16.30 15.89 72.80
9219 2019-06-06 19:56:10 ESP12E-S1 16.40 16.02 73.80
9218 2019-06-06 19:27:53 ESP12E-S1 16.40 16.00 72.90
9217 2019-06-06 18:59:39 ESP12E-S1 16.80 16.36 69.90
9216 2019-06-06 18:31:24 ESP12E-S1 17.20 16.56 60.50
9215 2019-06-06 18:03:11 ESP12E-S1 17.60 16.89 56.30
9214 2019-06-06 17:34:54 ESP12E-S1 17.70 17.00 56.50
9213 2019-06-06 17:06:35 ESP12E-S1 17.70 17.03 57.70
9212 2019-06-06 16:38:18 ESP12E-S1 17.50 16.83 58.20
9211 2019-06-06 16:10:03 ESP12E-S1 17.80 17.11 56.30
9210 2019-06-06 15:41:53 ESP12E-S1 18.90 18.29 55.50
9209 2019-06-06 15:13:23 ESP12E-S1 17.40 16.73 58.70
9208 2019-06-06 14:45:05 ESP12E-S1 17.10 16.39 58.40
9207 2019-06-06 14:16:49 ESP12E-S1 17.20 16.50 58.20
9206 2019-06-06 13:48:35 ESP12E-S1 17.80 17.13 57.30
9205 2019-06-06 13:20:17 ESP12E-S1 18.20 17.57 57.40
9204 2019-06-06 12:51:58 ESP12E-S1 17.20 16.51 58.60
9203 2019-06-06 12:23:45 ESP12E-S1 17.70 17.14 61.90
9202 2019-06-06 11:55:17 ESP12E-S1 16.10 15.48 65.80
9201 2019-06-06 11:26:57 ESP12E-S1 15.90 15.31 67.50
9200 2019-06-06 10:58:40 ESP12E-S1 15.80 15.23 68.90
9199 2019-06-06 10:30:28 ESP12E-S1 16.60 16.08 67.60
9198 2019-06-06 10:02:09 ESP12E-S1 16.60 16.11 68.90
9197 2019-06-06 09:33:47 ESP12E-S1 16.00 15.59 74.20
9196 2019-06-06 09:05:33 ESP12E-S1 16.20 15.84 75.40
9195 2019-06-06 08:37:17 ESP12E-S1 16.40 16.13 78.00
9194 2019-06-06 08:09:01 ESP12E-S1 16.80 16.54 76.80
9193 2019-06-06 07:40:45 ESP12E-S1 17.10 16.91 78.30
9192 2019-06-06 07:12:28 ESP12E-S1 17.40 17.37 83.30
9191 2019-06-06 06:44:14 ESP12E-S1 18.10 18.11 82.30
9190 2019-06-06 06:16:05 ESP12E-S1 19.20 19.32 82.10
9189 2019-06-06 02:22:20 ESP12E-S1 22.80 22.50 52.30
9188 2019-06-06 01:54:07 ESP12E-S1 23.50 23.24 51.20
9187 2019-06-06 01:25:54 ESP12E-S1 24.10 23.94 52.80
9186 2019-06-06 00:57:46 ESP12E-S1 24.30 24.16 52.70
9185 2019-06-06 00:29:26 ESP12E-S1 24.60 24.47 51.90
9184 2019-06-06 00:01:10 ESP12E-S1 24.80 24.67 51.20
9183 2019-06-05 23:32:54 ESP12E-S1 25.10 24.98 50.50
9182 2019-06-05 23:04:38 ESP12E-S1 25.50 25.42 50.50
9181 2019-06-05 22:36:20 ESP12E-S1 25.80 25.71 48.80
9180 2019-06-05 22:08:04 ESP12E-S1 26.10 26.03 48.30
9179 2019-06-05 21:39:48 ESP12E-S1 26.40 26.82 48.60
9178 2019-06-05 21:11:32 ESP12E-S1 26.80 27.19 49.20
9177 2019-06-05 20:43:17 ESP12E-S1 27.40 27.39 43.70
9176 2019-06-05 20:15:01 ESP12E-S1 27.90 27.80 43.20
9175 2019-06-05 19:46:46 ESP12E-S1 28.30 28.23 43.80
9174 2019-06-05 19:18:31 ESP12E-S1 28.80 28.77 44.00
9173 2019-06-05 18:50:15 ESP12E-S1 29.30 29.52 45.70
9172 2019-06-05 18:21:59 ESP12E-S1 29.70 30.14 46.60
9171 2019-06-05 17:53:43 ESP12E-S1 30.20 31.14 48.70
9170 2019-06-05 17:25:28 ESP12E-S1 30.70 31.45 46.10
9169 2019-06-05 16:57:15 ESP12E-S1 31.40 32.15 44.20
9168 2019-06-05 16:29:00 ESP12E-S1 32.00 32.94 43.50
9167 2019-06-05 16:00:45 ESP12E-S1 32.40 32.69 39.10
9166 2019-06-05 15:32:41 ESP12E-S1 34.60 35.21 35.10
9165 2019-06-05 15:04:36 ESP12E-S1 35.70 37.50 36.70
9164 2019-06-05 14:35:57 ESP12E-S1 35.10 36.20 35.80
9163 2019-06-05 14:07:58 ESP12E-S1 36.70 39.30 36.50
9162 2019-06-05 13:39:33 ESP12E-S1 37.10 42.35 42.20
9161 2019-06-05 13:10:40 ESP12E-S1 32.90 36.17 50.30
9160 2019-06-05 12:42:08 ESP12E-S1 29.90 30.92 50.10
9159 2019-06-05 12:13:41 ESP12E-S1 28.40 29.96 59.20
9158 2019-06-05 11:45:14 ESP12E-S1 27.20 28.44 61.30
9157 2019-06-05 11:17:01 ESP12E-S1 27.00 28.32 63.20
9156 2019-06-05 10:48:16 ESP12E-S1 24.10 24.43 71.50
9155 2019-06-05 10:19:42 ESP12E-S1 22.90 23.18 74.20
9154 2019-06-05 09:51:17 ESP12E-S1 22.80 22.97 70.10
9153 2019-06-05 09:23:02 ESP12E-S1 22.50 22.69 72.10
9152 2019-06-05 08:54:56 ESP12E-S1 22.60 22.73 69.50
9151 2019-06-05 08:26:41 ESP12E-S1 22.50 22.50 65.00
9150 2019-06-05 07:58:24 ESP12E-S1 21.50 21.42 65.50
9149 2019-06-05 07:30:20 ESP12E-S1 21.20 21.17 68.60
9148 2019-06-05 07:02:09 ESP12E-S1 20.90 20.82 67.90
9147 2019-06-05 06:34:00 ESP12E-S1 20.40 20.22 66.20
9146 2019-06-05 06:05:39 ESP12E-S1 20.70 20.49 63.70
9145 2019-06-05 05:37:21 ESP12E-S1 20.70 20.44 62.00
9144 2019-06-05 05:09:03 ESP12E-S1 20.40 20.14 62.80
9143 2019-06-05 04:40:46 ESP12E-S1 20.70 20.39 59.80
9142 2019-06-05 04:12:31 ESP12E-S1 21.10 20.83 60.00
9141 2019-06-05 03:44:15 ESP12E-S1 21.40 21.09 57.20
9140 2019-06-05 03:16:00 ESP12E-S1 21.90 21.67 58.40
9139 2019-06-05 02:47:44 ESP12E-S1 22.00 21.79 58.60
9138 2019-06-05 02:19:30 ESP12E-S1 22.40 22.28 60.70
9137 2019-06-05 01:51:14 ESP12E-S1 23.20 23.03 55.90
9136 2019-06-05 01:22:59 ESP12E-S1 23.70 23.49 52.40
9135 2019-06-05 00:54:45 ESP12E-S1 24.00 23.85 53.30
9134 2019-06-04 23:58:19 ESP12E-S1 24.10 24.07 57.70
9133 2019-06-04 23:30:06 ESP12E-S1 25.20 25.16 52.90
9132 2019-06-04 23:01:54 ESP12E-S1 25.70 25.62 49.60
9131 2019-06-04 22:33:38 ESP12E-S1 26.00 25.97 50.20
9130 2019-06-04 22:05:23 ESP12E-S1 26.40 26.89 50.10
9129 2019-06-04 21:37:07 ESP12E-S1 26.90 27.33 50.10
9128 2019-06-04 21:08:59 ESP12E-S1 27.60 27.87 48.10
9127 2019-06-04 20:40:46 ESP12E-S1 28.10 28.30 47.10
9126 2019-06-04 20:12:30 ESP12E-S1 28.60 28.86 47.20
9125 2019-06-04 19:44:15 ESP12E-S1 29.20 29.30 44.80
9124 2019-06-04 19:16:00 ESP12E-S1 29.70 29.62 42.40
9123 2019-06-04 18:47:45 ESP12E-S1 30.30 30.18 41.10
9122 2019-06-04 18:19:36 ESP12E-S1 30.80 30.94 42.00
9121 2019-06-04 17:51:19 ESP12E-S1 31.10 31.09 40.30
9120 2019-06-04 17:23:02 ESP12E-S1 31.50 31.76 41.10
9119 2019-06-04 16:54:48 ESP12E-S1 31.80 32.57 43.20
9118 2019-06-04 16:26:34 ESP12E-S1 32.40 33.47 43.00
9117 2019-06-04 15:58:24 ESP12E-S1 33.50 35.12 42.20
9116 2019-06-04 15:30:09 ESP12E-S1 34.30 36.14 40.70
9115 2019-06-04 15:02:06 ESP12E-S1 35.80 38.95 40.60
9114 2019-06-04 14:33:31 ESP12E-S1 35.60 38.72 41.10
9113 2019-06-04 14:05:28 ESP12E-S1 37.00 42.47 43.00
9112 2019-06-04 13:37:00 ESP12E-S1 36.50 42.38 45.50
9111 2019-06-04 13:08:22 ESP12E-S1 34.60 39.23 48.60
9110 2019-06-04 12:39:41 ESP12E-S1 30.60 32.87 54.70
9109 2019-06-04 12:11:20 ESP12E-S1 29.50 30.89 53.80
9108 2019-06-04 11:42:58 ESP12E-S1 28.50 29.75 56.30
9107 2019-06-04 11:14:29 ESP12E-S1 27.00 27.91 57.60
9106 2019-06-04 10:46:04 ESP12E-S1 25.70 26.00 64.30
9105 2019-06-04 10:17:32 ESP12E-S1 24.00 24.28 70.00
9104 2019-06-04 09:49:06 ESP12E-S1 22.60 22.89 75.50
9103 2019-06-04 09:20:37 ESP12E-S1 21.10 21.35 79.80
9102 2019-06-04 08:52:11 ESP12E-S1 19.80 20.05 85.00
9101 2019-06-04 08:23:48 ESP12E-S1 18.90 19.19 89.80
9100 2019-06-04 07:55:26 ESP12E-S1 18.20 18.52 93.60
9099 2019-06-04 07:27:06 ESP12E-S1 17.60 17.85 93.40
9098 2019-06-04 06:58:46 ESP12E-S1 17.20 17.42 93.70
9097 2019-06-04 06:30:28 ESP12E-S1 16.80 16.93 91.90
9096 2019-06-04 06:02:10 ESP12E-S1 16.70 16.78 90.20
9095 2019-06-04 05:33:58 ESP12E-S1 16.90 17.00 90.00
9094 2019-06-04 05:05:42 ESP12E-S1 17.40 17.45 86.50
9093 2019-06-04 04:37:25 ESP12E-S1 17.40 17.34 82.20
9092 2019-06-04 04:09:06 ESP12E-S1 17.40 17.39 84.10
9091 2019-06-04 03:40:50 ESP12E-S1 17.70 17.75 85.30
9090 2019-06-04 03:12:34 ESP12E-S1 17.80 17.89 86.30
9089 2019-06-04 02:44:17 ESP12E-S1 17.90 17.98 85.50
9088 2019-06-04 02:16:03 ESP12E-S1 18.30 18.38 84.20
9087 2019-06-04 01:47:47 ESP12E-S1 18.60 18.68 83.00
9086 2019-06-04 01:19:30 ESP12E-S1 18.70 18.75 81.20
9085 2019-06-04 00:51:15 ESP12E-S1 18.90 18.92 79.30
9084 2019-06-04 00:23:00 ESP12E-S1 19.40 19.39 76.50
9083 2019-06-03 23:54:44 ESP12E-S1 19.60 19.56 74.40
9082 2019-06-03 23:26:29 ESP12E-S1 19.90 19.83 72.00
9081 2019-06-03 22:58:13 ESP12E-S1 20.40 20.34 70.50
9080 2019-06-03 22:29:58 ESP12E-S1 20.90 20.90 71.00
9079 2019-06-03 22:01:54 ESP12E-S1